Date StartTime U_cm/s V_cm/s W_cm/s Ustd_cm/s Vstd_cm/s Wstd_cm/s Uvar_(cm/s)^2 Vvar_(cm/s)^2 Wvar_(cm/s)^2 KE_(m/s)^2 TurbulentKE_(m/s)^2 HorizWindSpeed_cm/s FrictionSpeec_cm/s DragCoef SpeedOfSound_m/s SonicTemperature_C Pressure_mb 
11/20/2013  00:00:00       45.082       46.008       46.158       29.012       23.818       22.876      841.703      567.276      523.321        0.411        0.097       64.413       13.555        0.044      337.019        8.710      857.442
11/20/2013  00:01:00       19.045       23.065       48.883       25.516       25.438       14.092      651.076      647.091      198.585        0.239        0.075       29.911       14.471        0.234      337.057        8.774      857.431
11/20/2013  00:02:00       21.729       51.674       61.289       26.688       34.754       19.315      712.266     1207.813      373.079        0.460        0.115       56.057       21.595        0.148      337.059        8.775      857.421
11/20/2013  00:03:00       42.747       72.314       57.556       21.097       28.917       23.511      445.082      836.178      552.771        0.610        0.092       84.004       19.393        0.053      336.988        8.657      857.408
11/20/2013  00:04:00       51.353       45.008       36.084       31.290       25.769       29.832      979.042      664.050      889.959        0.425        0.127       68.285       22.217        0.106      336.984        8.654      857.387
11/20/2013  00:05:00       78.455       35.396       37.987       29.117       28.284       19.588      847.777      799.986      383.708        0.544        0.102       86.070       14.572        0.029      337.000        8.678      857.371
11/20/2013  00:06:00       44.673       51.856       37.497       35.616       22.735       20.422     1268.482      516.867      417.062        0.415        0.110       68.444       15.486        0.051      337.009        8.691      857.363
11/20/2013  00:07:00        9.434       29.214       38.674       15.573       25.102       19.643      242.511      630.102      385.837        0.185        0.063       30.699       10.328        0.113      337.035        8.736      857.372
11/20/2013  00:08:00       48.931       39.793       24.803       38.887       21.607       23.174     1512.215      466.855      537.039        0.355        0.126       63.070       25.284        0.161      337.009        8.694      857.382
11/20/2013  00:09:00       77.553       17.623       15.799       23.587       18.116       21.387      556.365      328.207      457.387        0.396        0.067       79.530       10.934        0.019      336.998        8.676      857.379
11/20/2013  00:10:00       44.752       35.325       34.792       26.220       25.538       23.044      687.493      652.178      531.017        0.317        0.094       57.014       17.681        0.096      337.036        8.737      857.379
11/20/2013  00:11:00       61.523       15.663       21.452       24.066       22.136       22.240      579.151      489.983      494.625        0.303        0.078       63.485       13.852        0.048      337.001        8.681      857.375
11/20/2013  00:12:00       80.491       37.059        3.407       16.814       12.581       13.298      282.695      158.272      176.830        0.424        0.031       88.613        5.976        0.005      336.990        8.661      857.371
11/20/2013  00:13:00       78.233       42.784       16.424       14.837       13.654       12.911      220.135      186.436      166.704        0.440        0.029       89.168        6.047        0.005      336.972        8.632      857.369
11/20/2013  00:14:00       70.517       36.882        1.396       10.594       14.975        9.917      112.240      224.241       98.353        0.338        0.022       79.579       11.259        0.020      336.958        8.607      857.376
11/20/2013  00:15:00       50.896       23.899        9.073       13.323       15.217       14.602      177.498      231.545      213.212        0.193        0.031       56.228        8.453        0.023      336.986        8.656      857.387
11/20/2013  00:16:00       36.854       13.661        3.919       15.620       13.875       14.689      243.974      192.509      215.755        0.111        0.033       39.305       11.119        0.080      337.025        8.721      857.392
11/20/2013  00:17:00       39.984       15.902       19.653       16.698       13.679       15.861      278.837      187.111      251.568        0.148        0.036       43.030       10.153        0.056      337.023        8.714      857.385
11/20/2013  00:18:00       61.936       40.161       30.352       32.010       28.216       26.896     1024.613      796.157      723.421        0.446        0.127       73.817       25.424        0.119      337.031        8.730      857.349
11/20/2013  00:19:00       67.115       46.718       19.072       33.552       21.203       26.752     1125.756      449.569      715.658        0.467        0.115       81.774       20.676        0.064      336.990        8.661      857.326
11/20/2013  00:20:00       38.050       52.002       38.030       19.312       15.142       17.275      372.960      229.287      298.436        0.325        0.045       64.436       12.735        0.039      336.986        8.655      857.325
11/20/2013  00:21:00       24.333       35.943       31.137       24.422       15.306       18.263      596.439      234.273      333.554        0.201        0.058       43.405       17.433        0.161      336.966        8.621      857.333
11/20/2013  00:22:00       37.695       15.455        4.712       14.447        8.072       10.376      208.716       65.156      107.661        0.103        0.019       40.741        9.647        0.056      336.929        8.560      857.350
11/20/2013  00:23:00       20.802       21.291        1.644       10.808        9.167        7.849      116.804       84.032       61.602        0.058        0.013       29.766        6.802        0.052      336.907        8.526      857.370
11/20/2013  00:24:00       14.057       30.921       -5.014        8.783        5.358        4.758       77.149       28.712       22.639        0.065        0.006       33.966        2.473        0.005      336.909        8.530      857.385
11/20/2013  00:25:00       36.005       30.840       -0.166       13.737       11.556       11.861      188.706      133.543      140.675        0.136        0.023       47.408        2.735        0.003      336.930        8.562      857.382
11/20/2013  00:26:00       43.696       31.764        0.908        5.506       10.181        8.667       30.316      103.654       75.117        0.156        0.010       54.021        7.632        0.020      336.929        8.558      857.377
11/20/2013  00:27:00       38.630       23.931       11.089        8.843       14.355       15.024       78.196      206.061      225.722        0.135        0.025       45.442       10.028        0.049      336.971        8.628      857.363
11/20/2013  00:28:00       41.325       20.584        6.390       11.249       13.050       13.446      126.537      170.306      180.797        0.132        0.024       46.168        5.468        0.014      336.949        8.591      857.362
11/20/2013  00:29:00       18.985       14.439        1.388       13.904       13.066       14.728      193.334      170.725      216.901        0.058        0.029       23.852       11.053        0.215      336.955        8.602      857.361
11/20/2013  00:30:00       -0.860       37.363       -5.789       12.317       12.023        6.681      151.705      144.541       44.642        0.089        0.017       37.373        5.997        0.026      336.942        8.581      857.360
11/20/2013  00:31:00       -9.323       16.759       -4.215       14.645       13.770        4.912      214.490      189.604       24.123        0.041        0.021       19.178        6.709        0.122      336.947        8.587      857.366
11/20/2013  00:32:00      -39.460      -14.329       -0.117       10.794       19.147        9.057      116.519      366.607       82.031        0.116        0.028       41.981        4.659        0.012      336.960        8.611      857.377
11/20/2013  00:33:00      -34.965       13.251       -7.440        6.731        6.937        5.481       45.308       48.125       30.046        0.079        0.006       37.391        1.931        0.003      336.951        8.594      857.371
11/20/2013  00:34:00      -12.830       12.884        0.318       18.631       16.260        9.136      347.096      264.401       83.465        0.051        0.035       18.182        7.839        0.186      337.047        8.756      857.367
11/20/2013  00:35:00       24.340       26.126       19.154       17.490       17.735       18.323      305.917      314.521      335.724        0.130        0.048       35.707       13.347        0.140      337.008        8.691      857.364
11/20/2013  00:36:00       11.765       48.901       -7.112       15.395       16.678       12.818      237.011      278.140      164.298        0.163        0.034       50.297       11.309        0.051      336.979        8.644      857.360
11/20/2013  00:37:00       12.946       69.781       -9.126       14.599       22.550       13.322      213.132      508.511      177.463        0.301        0.045       70.972       14.371        0.041      336.970        8.628      857.355
11/20/2013  00:38:00       22.727       86.199      -17.244       15.304       23.664        9.238      234.212      559.987       85.342        0.456        0.044       89.145        7.935        0.008      336.959        8.611      857.346
11/20/2013  00:39:00       43.800       26.267        5.169       23.598       20.308       20.306      556.884      412.409      412.348        0.201        0.069       51.073       15.584        0.093      336.976        8.640      857.340
11/20/2013  00:40:00       57.701       34.231       -5.271       24.351       18.321       17.478      592.956      335.657      305.483        0.288        0.062       67.091       14.046        0.044      336.983        8.651      857.343
11/20/2013  00:41:00       57.299       36.360        9.651       14.916       14.436       16.581      222.473      208.405      274.933        0.270        0.035       67.862        8.901        0.017      336.969        8.625      857.360
11/20/2013  00:42:00       28.883       39.532       28.399       18.986       12.361       17.785      360.473      152.804      316.300        0.202        0.041       48.959       11.372        0.054      336.956        8.603      857.375
11/20/2013  00:43:00       44.991       24.062       16.383       20.187       17.674       15.364      407.496      312.367      236.038        0.191        0.048       51.022       11.642        0.052      336.947        8.589      857.362
11/20/2013  00:44:00       70.665       36.597        5.132       12.788       14.271       11.774      163.533      203.669      138.636        0.343        0.025       79.579        8.555        0.012      336.914        8.536      857.334
11/20/2013  00:45:00       93.733       41.939        8.017       22.141       12.697       15.406      490.241      161.208      237.344        0.575        0.044      102.688       12.171        0.014      336.878        8.475      857.304
11/20/2013  00:46:00       76.456       49.709        2.410       20.641       19.723       16.454      426.059      388.998      270.731        0.470        0.054       91.195        8.171        0.008      336.879        8.474      857.285
11/20/2013  00:47:00       91.645       55.155        2.672       21.203       21.976       21.505      449.568      482.945      462.463        0.642        0.070      106.962       14.334        0.018      336.852        8.433      857.265
11/20/2013  00:48:00       42.700       31.920       -1.749       28.630       15.350       19.431      819.695      235.618      377.545        0.214        0.072       53.312       12.413        0.054      336.834        8.403      857.256
11/20/2013  00:49:00       40.969       28.234       -2.784       19.106       15.408       12.777      365.052      237.393      163.253        0.162        0.038       49.756        6.783        0.019      336.820        8.377      857.255
11/20/2013  00:50:00       54.097       26.533        1.383       17.708       14.721       12.317      313.584      216.718      151.698        0.216        0.034       60.254        6.574        0.012      336.829        8.391      857.240
11/20/2013  00:51:00       86.201       40.060        6.702       19.356       22.037       16.940      374.670      485.617      286.968        0.511        0.057       95.055       11.372        0.014      336.808        8.360      857.216
11/20/2013  00:52:00       45.550       27.011        9.378       24.848       17.090       20.558      617.420      292.069      422.625        0.211        0.067       52.957        9.505        0.032      336.808        8.358      857.201
11/20/2013  00:53:00       34.850       27.513        5.856       25.413       21.320       16.721      645.839      454.557      279.606        0.169        0.069       44.401       11.568        0.068      336.791        8.330      857.213
11/20/2013  00:54:00       39.957       12.227       -0.969       18.120       16.123       13.914      328.317      259.960      193.597        0.126        0.039       41.786        6.242        0.022      336.773        8.301      857.228
11/20/2013  00:55:00       35.177        6.457       -2.122       14.544       12.843       10.161      211.527      164.950      103.252        0.088        0.024       35.764        4.637        0.017      336.813        8.367      857.239
11/20/2013  00:56:00        5.210        5.724       13.270        6.640        8.657       11.769       44.095       74.946      138.512        0.025        0.013        7.740        6.783        0.768      336.846        8.421      857.239
11/20/2013  00:57:00       17.113       33.238       34.222       18.801       13.149       12.098      353.479      172.894      146.373        0.162        0.034       37.385        8.894        0.057      336.809        8.361      857.215
11/20/2013  00:58:00        7.657       34.352       39.175       20.010       18.064       12.937      400.397      326.297      167.368        0.183        0.045       35.195       12.957        0.136      336.826        8.389      857.185
11/20/2013  00:59:00       -3.611       43.088       52.362       15.086       20.732       16.071      227.600      429.830      258.284        0.276        0.046       43.239       14.157        0.107      336.846        8.423      857.167
11/20/2013  01:00:00        5.478        3.475       29.730       20.241       35.455       28.247      409.699     1257.039      797.909        0.169        0.123        6.487       26.951       17.261      336.870        8.462      857.154
11/20/2013  01:01:00       15.242        2.864       29.254       19.239       20.316       18.423      370.147      412.722      339.418        0.111        0.056       15.508       12.801        0.681      336.904        8.518      857.144
11/20/2013  01:02:00       24.315        6.822       35.304       20.485       16.373       15.992      419.646      268.084      255.757        0.141        0.047       25.254        9.766        0.150      336.859        8.444      857.130
11/20/2013  01:03:00       11.715      -14.334       34.205       24.195       64.609       28.462      585.376     4174.298      810.094        0.354        0.278       18.512       37.831        4.176      336.887        8.488      857.123
11/20/2013  01:04:00       38.626      -47.394        4.946       19.729       21.782       18.771      389.220      474.477      352.338        0.249        0.061       61.140       10.003        0.027      336.886        8.488      857.121
11/20/2013  01:05:00       45.277      -53.027       -5.137       18.514       23.939       16.057      342.760      573.087      257.818        0.303        0.059       69.727       12.172        0.030      336.906        8.522      857.120
11/20/2013  01:06:00       22.372      -20.749       13.098       19.374       23.296       12.944      375.335      542.725      167.546        0.109        0.054       30.513       14.112        0.214      336.903        8.515      857.125
11/20/2013  01:07:00       66.876      -19.541       -6.293       21.122       18.006       10.993      446.158      324.231      120.836        0.289        0.045       69.672        7.290        0.011      336.848        8.425      857.120
11/20/2013  01:08:00       12.876       10.670       15.619       17.190       16.780       10.171      295.488      281.552      103.453        0.060        0.034       16.722        9.499        0.323      336.895        8.503      857.123
11/20/2013  01:09:00       10.224      -29.269        6.547       16.964       32.788       22.989      287.764     1075.079      528.508        0.145        0.095       31.004       16.731        0.291      336.894        8.502      857.126
11/20/2013  01:10:00        9.451      -13.264       12.004       16.804       23.347       19.671      282.361      545.065      386.942        0.081        0.061       16.286       11.192        0.472      336.923        8.551      857.136
11/20/2013  01:11:00        9.387       -3.927       29.686       20.999       24.892       23.563      440.979      619.618      555.231        0.130        0.081       10.175       10.740        1.114      336.967        8.622      857.131
11/20/2013  01:12:00        9.792      -30.093       17.251       27.922       41.002       29.164      779.656     1681.190      850.532        0.230        0.166       31.646       18.127        0.328      337.017        8.706      857.090
11/20/2013  01:13:00       34.482      -41.931        3.483       41.229       50.029       40.871     1699.864     2502.863     1670.458        0.442        0.294       54.288       37.436        0.476      336.931        8.563      857.055
11/20/2013  01:14:00       69.683      -75.226       -5.276       45.920       43.209       24.520     2108.608     1867.047      601.211        0.756        0.229      102.541       31.197        0.093      336.895        8.503      857.031
11/20/2013  01:15:00       83.108       36.393       55.572       47.274       57.057       40.112     2234.873     3255.549     1608.975        0.921        0.355       90.727       37.047        0.167      336.974        8.635      856.993
11/20/2013  01:16:00       22.125      -22.005      -17.136       54.548       35.800       29.142     2975.535     1281.673      849.252        0.319        0.255       31.205       12.109        0.151      337.141        8.916      856.963
11/20/2013  01:17:00        4.342      -51.404      -21.555       40.022       39.721       22.145     1601.732     1577.746      490.420        0.340        0.183       51.587       14.920        0.084      337.073        8.798      856.948
11/20/2013  01:18:00       -7.598      -52.218       -6.420       32.898       34.436       23.540     1082.252     1185.819      554.144        0.282        0.141       52.768       15.805        0.090      336.972        8.631      856.939
11/20/2013  01:19:00      -61.231      -18.796        0.206       24.463       27.893       16.513      598.457      778.014      272.673        0.288        0.082       64.051        5.192        0.007      336.834        8.403      856.921
11/20/2013  01:20:00      -16.299      -22.843        5.687       22.363       20.794       14.569      500.121      432.402      212.246        0.098        0.057       28.062       14.032        0.250      336.875        8.472      856.890
11/20/2013  01:21:00       -2.960        4.125       18.211       15.792        9.354        9.311      249.394       87.489       86.700        0.039        0.021        5.077        6.206        1.494      336.909        8.526      856.873
11/20/2013  01:22:00      -28.251       -9.283       13.668       26.257       23.111       15.950      689.418      534.121      254.416        0.127        0.074       29.737       15.449        0.270      337.039        8.743      856.866
11/20/2013  01:23:00      -69.162      -19.916        0.029       19.196       15.166       13.806      368.488      230.020      190.611        0.298        0.039       71.972        5.278        0.005      337.127        8.889      856.866
11/20/2013  01:24:00      -54.466      -22.633        6.006       38.136       28.350       15.687     1454.320      803.699      246.073        0.301        0.125       58.982       15.589        0.070      337.077        8.807      856.856
11/20/2013  01:25:00       16.314       22.304       22.355       18.600       28.883       24.490      345.968      834.209      599.761        0.152        0.089       27.634       23.124        0.700      337.033        8.733      856.843
11/20/2013  01:26:00       32.357       46.819       35.354       33.442       21.238       22.913     1118.384      451.056      525.022        0.329        0.105       56.912       15.340        0.073      336.960        8.612      856.833
11/20/2013  01:27:00       -0.627       43.382       59.226       21.076       39.620       29.633      444.204     1569.758      878.118        0.414        0.145       43.386       28.051        0.418      336.939        8.576      856.820
11/20/2013  01:28:00      -11.244       35.774       72.062       14.900       33.851       20.355      222.010     1145.909      414.316        0.419        0.089       37.500       21.936        0.342      336.942        8.583      856.816
11/20/2013  01:29:00      -21.675       11.311       45.491       21.129       31.050       20.798      446.432      964.109      432.571        0.225        0.092       24.449       22.498        0.847      336.925        8.553      856.817
11/20/2013  01:30:00      -37.234      -24.686        3.564       38.023       21.773       17.616     1445.746      474.059      310.329        0.212        0.112       44.674       10.967        0.060      337.059        8.776      856.823
11/20/2013  01:31:00        5.849       -0.836        3.085       13.913       25.193       20.067      193.571      634.670      402.676        0.064        0.062        5.909       18.899       10.231      337.087        8.824      856.819
11/20/2013  01:32:00       -7.948       55.065        0.052       33.995       25.952       26.523     1155.693      673.496      703.481        0.281        0.127       55.636       23.360        0.176      336.922        8.547      856.812
11/20/2013  01:33:00      -18.589       16.225       -3.765       17.142       13.512       11.219      293.840      182.574      125.872        0.061        0.030       24.674        6.726        0.074      336.808        8.359      856.809
11/20/2013  01:34:00        9.598       31.334        0.952       21.176       15.099       11.850      448.411      227.981      140.428        0.095        0.041       32.771        7.956        0.059      336.767        8.292      856.805
11/20/2013  01:35:00       -7.778       44.733      -11.815       18.638       14.309       11.035      347.367      204.746      121.771        0.144        0.034       45.404        9.940        0.048      336.750        8.261      856.814
11/20/2013  01:36:00        8.303       39.294        1.457       15.702       21.972       12.704      246.541      482.755      161.390        0.125        0.045       40.161       13.898        0.120      336.759        8.276      856.815
11/20/2013  01:37:00        6.856        0.631       18.326        7.353        5.677        7.449       54.069       32.226       55.494        0.026        0.007        6.885        4.877        0.502      336.875        8.470      856.819
11/20/2013  01:38:00       -4.275        2.918        2.612        5.545        6.545        5.921       30.744       42.833       35.062        0.007        0.005        5.176        3.728        0.519      336.829        8.394      856.819
11/20/2013  01:39:00        6.838       10.459        3.451        5.552        5.074        6.496       30.820       25.743       42.197        0.013        0.005       12.495        3.143        0.063      336.812        8.367      856.808
11/20/2013  01:40:00       11.757       21.139       15.264       13.809       13.913       16.379      190.690      193.574      268.263        0.074        0.033       24.188       12.067        0.249      336.863        8.451      856.788
11/20/2013  01:41:00       48.504       32.211       18.903       21.496       13.662       17.952      462.076      186.657      322.279        0.236        0.049       58.226       11.647        0.040      336.799        8.345      856.768
11/20/2013  01:42:00       73.977       43.864       22.199       15.395       14.927       17.628      237.005      222.826      310.731        0.433        0.039       86.004        8.417        0.010      336.767        8.291      856.740
11/20/2013  01:43:00       30.456       35.424       27.479       22.151       15.892       15.717      490.686      252.550      247.029        0.196        0.050       46.716        9.330        0.040      336.760        8.281      856.733
11/20/2013  01:44:00       12.797       10.546       23.250       12.237       11.787        6.659      149.737      138.943       44.345        0.057        0.017       16.583        5.457        0.108      336.786        8.321      856.748
11/20/2013  01:45:00       13.530      -14.305       -2.873        7.699       12.665        8.281       59.271      160.393       68.567        0.034        0.014       19.690        6.441        0.107      336.817        8.374      856.769
11/20/2013  01:46:00      -42.542      -19.253        6.500       37.942       27.442       12.627     1439.588      753.082      159.445        0.229        0.118       46.696        8.013        0.029      336.879        8.477      856.791
11/20/2013  01:47:00      -62.307      -49.369        2.533       51.899       40.772       21.579     2693.500     1662.338      465.674        0.557        0.241       79.495       24.428        0.094      336.897        8.505      856.798
11/20/2013  01:48:00      -55.999      -47.874        6.014       35.784       31.061       21.697     1280.494      964.767      470.755        0.409        0.136       73.674       17.675        0.058      336.886        8.489      856.797
11/20/2013  01:49:00      -20.562      -15.122        5.305       23.965       11.968       14.791      574.335      143.221      218.782        0.081        0.047       25.524       10.372        0.165      336.908        8.526      856.796
11/20/2013  01:50:00      -26.012      -21.990        1.388       25.874       24.600       18.353      669.473      605.169      336.849        0.139        0.081       34.062       14.431        0.179      336.925        8.553      856.796
11/20/2013  01:51:00      -75.869      -12.699        9.407       29.164       30.638       19.359      850.512      938.680      374.753        0.408        0.108       76.924       15.394        0.040      336.959        8.610      856.800
11/20/2013  01:52:00      -38.958      -10.158        5.314       29.286       30.528       16.798      857.669      931.931      282.159        0.186        0.104       40.260       10.681        0.070      336.892        8.497      856.791
11/20/2013  01:53:00      -18.502      -16.243       11.717       50.581       33.534       24.705     2558.481     1124.511      610.338        0.252        0.215       24.621       17.374        0.498      336.900        8.511      856.781
11/20/2013  01:54:00      -43.643      -74.613        2.438       50.954       42.579       30.610     2596.305     1812.980      936.995        0.641        0.267       86.440       25.885        0.090      336.890        8.494      856.770
11/20/2013  01:55:00      -32.352      -59.789        0.075       40.958       43.700       31.831     1677.535     1909.725     1013.244        0.461        0.230       67.981       22.486        0.109      336.937        8.572      856.749
11/20/2013  01:56:00      -70.630      -41.609        3.214       38.185       26.190       24.760     1458.073      685.928      613.071        0.474        0.138       81.975       15.221        0.034      336.835        8.405      856.721
11/20/2013  01:57:00      -74.821      -48.054        7.246       56.364       39.607       28.950     3176.851     1568.700      838.093        0.677        0.279       88.924       20.981        0.056      336.812        8.365      856.687
11/20/2013  01:58:00      -79.137      -67.604        1.817       47.548       31.535       20.140     2260.842      994.486      405.639        0.725        0.183      104.082       16.752        0.026      336.731        8.229      856.661
11/20/2013  01:59:00      -79.127      -42.352        5.111       42.792       26.684       23.645     1831.115      712.012      559.096        0.559        0.155       89.748       25.825        0.083      336.758        8.277      856.653
11/20/2013  02:00:00      -54.648      -29.940        4.895       39.210       22.940       18.594     1537.454      526.261      345.720        0.316        0.120       62.312       21.475        0.119      336.770        8.295      856.665
11/20/2013  02:01:00      -39.749      -74.196        2.037       36.333       38.568       21.366     1320.079     1487.516      456.524        0.518        0.163       84.172       19.817        0.055      336.820        8.379      856.700
11/20/2013  02:02:00      -48.026      -89.991       -8.228       29.776       37.213       27.299      886.629     1384.806      745.230        0.674        0.151      102.005       25.041        0.060      336.817        8.374      856.721
11/20/2013  02:03:00       -6.874      -63.761        7.705       26.221       47.797       32.847      687.519     2284.506     1078.936        0.411        0.203       64.130       32.010        0.249      336.818        8.374      856.734
11/20/2013  02:04:00      -51.533      -12.197       17.132       39.935       26.915       27.983     1594.808      724.431      783.053        0.310        0.155       52.956       24.707        0.218      336.801        8.348      856.744
11/20/2013  02:05:00      -22.396      -17.986        5.851       36.274       22.946       18.961     1315.788      526.507      359.521        0.153        0.110       28.724       13.324        0.215      336.823        8.385      856.747
11/20/2013  02:06:00       -8.061       -6.011       20.136       19.192       15.139       13.664      368.316      229.200      186.716        0.065        0.039       10.055        2.970        0.087      336.823        8.385      856.736
11/20/2013  02:07:00      -12.359       30.974       70.067       24.054       34.414       25.513      578.577     1184.330      650.902        0.422        0.121       33.349       26.382        0.626      336.769        8.294      856.712
11/20/2013  02:08:00       -1.700       13.931       36.077       15.437       29.115       17.579      238.296      847.708      309.019        0.145        0.070       14.034       17.537        1.562      336.786        8.322      856.704
11/20/2013  02:09:00       -7.224      -36.321        5.882       19.329       23.154       21.622      373.597      536.099      467.517        0.139        0.069       37.032       16.173        0.191      336.802        8.350      856.709
11/20/2013  02:10:00        7.442      -23.479       10.714       16.653       19.123       20.881      277.333      365.681      436.019        0.090        0.054       24.630       14.042        0.325      336.808        8.359      856.718
11/20/2013  02:11:00      -11.266       17.404       28.941       10.393       21.380       15.102      108.016      457.123      228.062        0.103        0.040       20.732       13.124        0.401      336.816        8.372      856.725
11/20/2013  02:12:00       -6.103       16.302       35.855       12.136       14.989        8.579      147.277      224.677       73.596        0.102        0.022       17.407        8.569        0.242      336.831        8.397      856.731
11/20/2013  02:13:00      -12.943        2.965       16.941       11.443       10.813       11.116      130.933      116.911      123.568        0.042        0.019       13.278        7.864        0.351      336.817        8.373      856.717
11/20/2013  02:14:00      -17.052       14.806       24.192       13.967       16.952       10.974      195.083      287.360      120.423        0.085        0.030       22.583        9.011        0.159      336.807        8.359      856.698
11/20/2013  02:15:00        9.323        2.415       21.932       23.327       22.596       23.240      544.152      510.564      540.105        0.108        0.080        9.631       15.194        2.489      336.826        8.389      856.684
11/20/2013  02:16:00       51.832      -77.759       -7.819       14.568       26.249       21.833      212.216      689.026      476.670        0.509        0.069       93.451       21.563        0.053      336.814        8.370      856.688
11/20/2013  02:17:00       69.392      -58.493        1.953       27.809       33.367       25.265      773.355     1113.368      638.316        0.538        0.126       90.756       26.276        0.084      336.791        8.329      856.694
11/20/2013  02:18:00       46.251      -65.674       -4.012       27.468       26.224       16.515      754.483      687.699      272.739        0.409        0.086       80.326       13.783        0.029      336.813        8.367      856.702
11/20/2013  02:19:00       37.831      -38.506       21.274       21.946       42.667       21.706      481.632     1820.458      471.140        0.307        0.139       53.980       25.036        0.215      336.804        8.351      856.695
11/20/2013  02:20:00       48.414       25.808       14.355       23.418       20.359       15.992      548.420      414.505      255.753        0.222        0.061       54.863        7.458        0.018      336.732        8.232      856.677
11/20/2013  02:21:00       85.392       55.190       18.709       30.963       19.518       20.484      958.725      380.970      419.607        0.622        0.088      101.674       13.781        0.018      336.725        8.221      856.641
11/20/2013  02:22:00       98.391       72.359       36.186       30.351       21.239       28.404      921.154      451.110      806.784        0.920        0.109      122.133       19.348        0.025      336.714        8.202      856.607
11/20/2013  02:23:00       78.891       76.087       52.531       28.907       19.928       27.682      835.619      397.123      766.280        0.839        0.100      109.604       16.028        0.021      336.663        8.118      856.592
11/20/2013  02:24:00       64.182       40.618       25.697       30.452       28.300       25.972      927.346      800.904      674.561        0.442        0.120       75.955       21.075        0.077      336.640        8.077      856.606
11/20/2013  02:25:00       17.816       16.258       24.783       28.902       26.109       13.026      835.342      681.688      169.677        0.144        0.084       24.120       11.000        0.208      336.650        8.094      856.620
11/20/2013  02:26:00        9.829      -15.296       14.295       14.660       29.001       16.161      214.917      841.052      261.183        0.093        0.066       18.182       17.518        0.928      336.827        8.388      856.639
11/20/2013  02:27:00       28.685      -59.880        5.614       27.452       26.376       16.888      753.613      695.677      285.198        0.309        0.087       66.396        8.169        0.015      336.862        8.448      856.644
11/20/2013  02:28:00       43.581      -22.202       14.259       41.052       23.681       16.887     1685.239      560.807      285.166        0.256        0.127       48.911       13.029        0.071      336.781        8.315      856.637
11/20/2013  02:29:00       -6.249      -39.096       -5.830       11.434       12.876       10.362      130.740      165.798      107.372        0.100        0.020       39.592        8.262        0.044      336.800        8.346      856.613
11/20/2013  02:30:00       -5.300       -3.442       14.378        7.522       20.163       12.399       56.585      406.546      153.727        0.043        0.031        6.320       13.068        4.276      336.814        8.371      856.585
11/20/2013  02:31:00      -26.253       -1.806        3.299       11.937       11.082        7.944      142.498      122.818       63.103        0.052        0.016       26.315        2.131        0.007      336.745        8.251      856.579
11/20/2013  02:32:00       -7.278      -12.420        9.660        9.421        9.907        9.299       88.753       98.145       86.467        0.029        0.014       14.395        5.191        0.130      336.837        8.405      856.578
11/20/2013  02:33:00       -4.632      -33.801       -8.852       21.825       22.240       15.227      476.318      494.609      231.870        0.122        0.060       34.117       10.719        0.099      336.837        8.408      856.580
11/20/2013  02:34:00      -21.416      -23.265       -5.407       22.940       37.105       18.752      526.226     1376.814      351.644        0.164        0.113       31.621       15.735        0.248      336.849        8.427      856.573
11/20/2013  02:35:00        4.184       -4.848       -4.647       24.951       19.997       12.105      622.537      399.862      146.538        0.062        0.058        6.404        8.054        1.582      336.816        8.372      856.580
11/20/2013  02:36:00      -54.148      -33.863        3.786       63.683       30.734       17.824     4055.514      944.565      317.705        0.470        0.266       63.864       17.777        0.077      336.792        8.333      856.588
11/20/2013  02:37:00      -28.652       -7.310        7.077       37.775       25.205       20.051     1426.961      635.297      402.057        0.169        0.123       29.570       17.942        0.368      336.822        8.381      856.595
11/20/2013  02:38:00      -60.451      -26.612        6.226       47.214       32.097       24.441     2229.159     1030.192      597.362        0.413        0.193       66.049       23.410        0.126      336.828        8.391      856.600
11/20/2013  02:39:00       -1.554       -5.988        4.208       28.306       14.514       14.097      801.244      210.647      198.718        0.063        0.061        6.187        8.849        2.046      336.856        8.439      856.595
11/20/2013  02:40:00      -13.738       -7.366       -1.796       25.396       17.992       19.223      644.952      323.700      369.518        0.079        0.067       15.588       16.136        1.072      336.859        8.442      856.602
11/20/2013  02:41:00      -55.652      -44.989       -1.934       31.452       23.887       17.282      989.251      570.602      298.658        0.349        0.093       71.562       16.034        0.050      336.811        8.364      856.610
11/20/2013  02:42:00      -44.922      -37.237        0.801       36.181       24.081       17.185     1309.100      579.885      295.317        0.279        0.109       58.349       14.215        0.059      336.795        8.337      856.613
11/20/2013  02:43:00      -56.596      -42.565       -3.551       24.617       25.518       15.955      605.985      651.150      254.577        0.327        0.076       70.816       10.955        0.024      336.779        8.310      856.606
11/20/2013  02:44:00      -11.918      -26.402      -10.989       15.777       34.392       13.579      248.915     1182.814      184.400        0.129        0.081       28.967       13.334        0.212      336.822        8.382      856.589
11/20/2013  02:45:00       -5.836       37.159       33.435       10.117       24.285       36.047      102.364      589.760     1299.357        0.226        0.100       37.615       16.810        0.200      336.824        8.384      856.553
11/20/2013  02:46:00       10.724       82.487       87.471       21.296       36.951       15.652      453.515     1365.379      244.980        0.832        0.103       83.181       18.620        0.050      336.797        8.341      856.500
11/20/2013  02:47:00        0.916       77.546       98.446       19.496       38.853       21.097      380.088     1509.558      445.063        0.902        0.117       77.551       21.929        0.080      336.800        8.347      856.460
11/20/2013  02:48:00       23.358       91.319       94.807       41.559       36.035       23.769     1727.148     1298.530      564.974        1.073        0.180       94.259       19.953        0.045      336.782        8.316      856.438
11/20/2013  02:49:00       58.988       77.149       69.986       35.154       34.356       26.462     1235.788     1180.349      700.252        0.872        0.156       97.116       19.815        0.042      336.779        8.310      856.434
11/20/2013  02:50:00       55.934       83.633       75.265       47.887       32.868       33.684     2293.150     1080.307     1134.640        1.015        0.225      100.614       27.136        0.073      336.836        8.405      856.443
11/20/2013  02:51:00       69.130       86.533       74.603       32.433       21.649       31.307     1051.897      468.695      980.137        1.017        0.125      110.757       17.167        0.024      336.830        8.395      856.453
11/20/2013  02:52:00       93.061       63.238       58.552       41.534       38.712       31.163     1725.055     1498.626      971.123        1.014        0.210      112.514       24.406        0.047      336.752        8.267      856.443
11/20/2013  02:53:00      117.462       45.284       37.078       59.393       46.064       51.469     3527.518     2121.934     2649.097        1.276        0.415      125.889       41.435        0.108      336.690        8.162      856.396
11/20/2013  02:54:00       81.349       78.710       80.774       63.303       46.548       41.389     4007.287     2166.743     1713.090        1.361        0.394      113.195       41.964        0.137      336.630        8.062      856.367
11/20/2013  02:55:00       68.413       82.714       87.578       39.142       37.001       32.652     1532.081     1369.082     1066.132        1.158        0.198      107.341       10.633        0.010      336.608        8.024      856.354
11/20/2013  02:56:00       10.870       10.768       63.836       28.558       39.383       32.707      815.574     1551.040     1069.716        0.387        0.172       15.300       29.903        3.820      336.695        8.171      856.343
11/20/2013  02:57:00       28.886        0.120       48.063       38.655       31.527       26.546     1494.242      993.973      704.667        0.317        0.160       28.886       22.432        0.603      336.667        8.125      856.333
11/20/2013  02:58:00       26.494       46.106       65.588       42.407       40.766       39.083     1798.368     1661.883     1527.513        0.606        0.249       53.176       33.586        0.399      336.650        8.097      856.308
11/20/2013  02:59:00       21.891       60.501       84.711       29.890       41.452       23.635      893.409     1718.285      558.591        0.724        0.159       64.339       25.730        0.160      336.642        8.082      856.265
11/20/2013  03:00:00       59.031       20.292       35.698       57.210       42.835       32.235     3273.030     1834.809     1039.090        0.566        0.307       62.421       33.497        0.288      336.648        8.093      856.243
11/20/2013  03:01:00       68.831       52.327       51.556       48.741       30.785       32.611     2375.655      947.718     1063.509        0.726        0.219       86.462       21.097        0.060      336.633        8.066      856.220
11/20/2013  03:02:00       72.236       27.754       27.173       62.277       42.992       32.535     3878.379     1848.326     1058.499        0.675        0.339       77.384       13.417        0.030      336.615        8.036      856.203
11/20/2013  03:03:00       55.201       23.189       35.033       34.958       28.800       24.315     1222.086      829.465      591.224        0.373        0.132       59.873       16.413        0.075      336.612        8.030      856.193
11/20/2013  03:04:00       70.707       34.613       23.635       33.252       37.099       24.653     1105.669     1376.326      607.746        0.492        0.154       78.724       22.996        0.085      336.582        7.981      856.175
11/20/2013  03:05:00       46.186       38.447       39.841       26.606       31.256       29.702      707.856      976.916      882.184        0.388        0.128       60.094       11.102        0.034      336.586        7.989      856.145
11/20/2013  03:06:00       20.254       23.671       23.483       25.227       18.509       15.592      636.413      342.571      243.111        0.137        0.061       31.154       13.603        0.191      336.579        7.976      856.126
11/20/2013  03:07:00        5.554       -1.473       25.810       20.909       21.918       12.510      437.169      480.379      156.507        0.089        0.054        5.746       16.291        8.038      336.619        8.044      856.120
11/20/2013  03:08:00       40.138      -26.888        9.991       15.122       31.226       18.458      228.664      975.092      340.698        0.199        0.077       48.311       19.191        0.158      336.638        8.076      856.130
11/20/2013  03:09:00       22.648       23.946       39.075       16.519       23.332       11.770      272.867      544.402      138.525        0.178        0.048       32.960       11.673        0.125      336.551        7.929      856.130
11/20/2013  03:10:00       13.447       -1.950       11.123       12.231       13.215       11.054      149.604      174.632      122.191        0.038        0.022       13.588        7.476        0.303      336.602        8.015      856.157
11/20/2013  03:11:00       23.720        1.141       16.762       19.173       15.975       18.210      367.585      255.215      331.592        0.090        0.048       23.747       14.769        0.387      336.604        8.017      856.188
11/20/2013  03:12:00       21.774       31.772       36.610       25.286       28.352       18.588      639.372      803.846      345.497        0.231        0.089       38.518       15.826        0.169      336.640        8.078      856.206
11/20/2013  03:13:00       52.279       40.345       30.767       19.364       11.942       19.263      374.951      142.610      371.081        0.310        0.044       66.036       11.329        0.029      336.677        8.140      856.213
11/20/2013  03:14:00       40.799       33.784       24.101       15.959       10.657       15.351      254.686      113.577      235.661        0.200        0.030       52.971        8.612        0.026      336.648        8.094      856.208
11/20/2013  03:15:00       41.664       47.014       29.122       19.710       12.869       12.439      388.487      165.599      154.730        0.275        0.035       62.819        9.580        0.023      336.565        7.953      856.206
11/20/2013  03:16:00       28.181       21.884        3.198       30.111       29.265       16.929      906.653      856.453      286.601        0.167        0.102       35.681       14.130        0.157      336.561        7.946      856.210
11/20/2013  03:17:00      -19.357      -14.732       -9.959       16.798       15.752       11.491      282.182      248.134      132.042        0.068        0.033       24.326       10.590        0.190      336.550        7.929      856.226
11/20/2013  03:18:00       19.441       29.353       -5.443       12.081       20.565        9.770      145.956      422.902       95.446        0.097        0.033       35.207        9.299        0.070      336.621        8.048      856.244
11/20/2013  03:19:00        0.449       51.335        4.008       14.064       35.333       16.520      197.799     1248.436      272.924        0.219        0.086       51.337       12.608        0.060      336.682        8.149      856.249
11/20/2013  03:20:00      -17.557      105.709       -8.765       18.426       33.259       19.532      339.512     1106.181      381.501        0.669        0.091      107.157        9.359        0.008      336.773        8.301      856.244
11/20/2013  03:21:00      -46.897       49.343      -10.034       26.228       25.010       14.732      687.913      625.513      217.036        0.313        0.077       68.073       11.012        0.026      336.806        8.355      856.230
11/20/2013  03:22:00      -74.473       42.619      -16.429       28.131       42.757       10.051      791.339     1828.203      101.019        0.518        0.136       85.806       11.212        0.017      336.658        8.109      856.210
11/20/2013  03:23:00      -59.875      -41.019       -1.924       37.589       20.568       15.172     1412.962      423.025      230.197        0.367        0.103       72.579       17.573        0.059      336.514        7.867      856.196
11/20/2013  03:24:00      -16.746      -13.595        3.255       12.401       17.990        8.084      153.790      323.640       65.348        0.051        0.027       21.570        8.330        0.149      336.668        8.126      856.169
11/20/2013  03:25:00       16.261      -20.366       -1.556       15.656       22.027        8.643      245.110      485.183       74.697        0.074        0.040       26.061        9.015        0.120      336.751        8.264      856.165
11/20/2013  03:26:00        4.564      -17.500        2.589       14.226       13.594       10.721      202.388      184.791      114.935        0.042        0.025       18.086        7.182        0.158      336.744        8.254      856.170
11/20/2013  03:27:00      -27.827      -19.492       -1.725       17.487       12.553        7.891      305.786      157.584       62.263        0.084        0.026       33.975        5.980        0.031      336.748        8.258      856.191
11/20/2013  03:28:00      -16.465      -23.767        0.091       11.013       12.844        8.133      121.285      164.956       66.148        0.059        0.018       28.913        4.356        0.023      336.781        8.313      856.204
11/20/2013  03:29:00        0.759      -12.133       10.112       23.715       18.814       16.275      562.406      353.951      264.876        0.072        0.059       12.156       17.422        2.054      336.804        8.352      856.214
11/20/2013  03:30:00       12.681       11.753        8.891       13.212       12.103       14.263      174.553      146.489      203.439        0.045        0.026       17.290        8.349        0.233      336.616        8.039      856.217
11/20/2013  03:31:00       -4.933       -7.541       12.248        9.021       20.139        8.368       81.385      405.562       70.020        0.039        0.028        9.011        7.672        0.725      336.629        8.062      856.225
11/20/2013  03:32:00       -3.391       13.222       20.103       11.650       27.507       19.325      135.715      756.625      373.474        0.093        0.063       13.650       21.064        2.381      336.587        7.988      856.236
11/20/2013  03:33:00       42.796       62.632       57.339       41.792       28.438       30.937     1746.576      808.731      957.105        0.628        0.176       75.857       15.413        0.041      336.508        7.858      856.231
11/20/2013  03:34:00       19.556       37.399       54.765       24.568       39.620       24.146      603.564     1569.746      583.024        0.377        0.138       42.204       27.936        0.438      336.466        7.786      856.230
11/20/2013  03:35:00       31.205       -3.924       33.252       31.923       56.604       37.086     1019.092     3203.977     1375.382        0.385        0.280       31.451       42.408        1.818      336.453        7.764      856.226
11/20/2013  03:36:00       19.749       30.859       40.922       37.999       32.560       26.776     1443.910     1060.174      716.935        0.312        0.161       36.638       26.488        0.523      336.426        7.718      856.196
11/20/2013  03:37:00       17.229      -45.379        1.151       29.920       29.083       29.591      895.188      845.823      875.609        0.249        0.131       48.539       18.408        0.144      336.489        7.825      856.160
11/20/2013  03:38:00       35.532      -88.092      -11.131       24.156       23.107       17.593      583.505      533.926      309.523        0.529        0.071       94.988       13.109        0.019      336.652        8.098      856.127
11/20/2013  03:39:00       42.270      -66.251      -12.591       30.292       46.584       22.281      917.627     2170.097      496.465        0.496        0.179       78.587       16.742        0.045      336.668        8.125      856.104
11/20/2013  03:40:00       34.382        8.896       28.633       29.955       25.521       25.041      897.310      651.320      627.043        0.213        0.109       35.515       18.135        0.261      336.571        7.964      856.088
11/20/2013  03:41:00        9.723       38.956       61.425       26.404       26.966       16.456      697.176      727.175      270.793        0.354        0.085       40.151       17.352        0.187      336.487        7.820      856.070
11/20/2013  03:42:00        3.990       48.100       66.623       19.032       37.568       21.288      362.226     1411.334      453.169        0.450        0.111       48.265       24.684        0.262      336.459        7.774      856.040
11/20/2013  03:43:00       56.310       56.184       45.547       36.923       31.564       28.043     1363.323      996.289      786.425        0.577        0.157       79.546       18.614        0.055      336.465        7.785      856.012
11/20/2013  03:44:00       74.357       26.144       34.422       36.441       25.832       26.027     1327.949      667.279      677.409        0.503        0.134       78.819       18.162        0.053      336.412        7.697      855.986
11/20/2013  03:45:00       57.660       27.767       36.606       43.181       28.079       27.008     1864.627      788.416      729.417        0.441        0.169       63.997       25.695        0.161      336.366        7.619      855.954
11/20/2013  03:46:00       77.574       21.076       26.217       39.448       31.738       34.836     1556.159     1007.318     1213.555        0.546        0.189       80.386       18.693        0.054      336.354        7.598      855.927
11/20/2013  03:47:00       71.081       20.200       44.212       37.952       34.143       26.719     1440.324     1165.764      713.900        0.537        0.166       73.896       16.433        0.049      336.330        7.558      855.908
11/20/2013  03:48:00       62.571       20.551       43.507       29.789       26.445       21.742      887.375      699.343      472.722        0.414        0.103       65.860       18.064        0.075      336.329        7.557      855.911
11/20/2013  03:49:00       60.945       39.920       16.331       33.225       25.227       27.531     1103.882      636.383      757.982        0.404        0.125       72.855       22.586        0.096      336.356        7.605      855.917
11/20/2013  03:50:00       13.155       16.024       28.044       22.532       24.140       12.270      507.697      582.758      150.550        0.123        0.062       20.732       12.275        0.351      336.314        7.533      855.935
11/20/2013  03:51:00       16.602        2.535       14.591       16.900       10.676        8.980      285.600      113.968       80.638        0.049        0.024       16.795        7.551        0.202      336.339        7.575      855.941
11/20/2013  03:52:00       44.912       24.308       18.643       30.644       15.821        8.814      939.059      250.291       77.688        0.211        0.063       51.068        7.843        0.024      336.369        7.625      855.938
11/20/2013  03:53:00       76.635       49.924       35.476       25.364       17.791       23.818      643.341      316.531      567.280        0.558        0.076       91.462       17.327        0.036      336.379        7.642      855.906
11/20/2013  03:54:00       32.720       69.343       61.066       24.394       28.006       20.643      595.077      784.340      426.151        0.571        0.090       76.675       13.851        0.033      336.362        7.614      855.892
11/20/2013  03:55:00       34.676       45.863       57.384       30.808       21.876       18.875      949.108      478.541      356.256        0.419        0.089       57.497       15.337        0.071      336.359        7.608      855.886
11/20/2013  03:56:00       43.934       35.090       44.147       27.300       23.862       18.768      745.272      569.409      352.229        0.339        0.083       56.228        8.597        0.023      336.372        7.630      855.881
11/20/2013  03:57:00       24.395       16.240       20.155       32.254       20.443       21.779     1040.303      417.918      474.328        0.160        0.097       29.306       14.507        0.245      336.354        7.598      855.879
11/20/2013  03:58:00       19.668        1.523       22.143       13.855       14.382       12.003      191.962      206.852      144.063        0.071        0.027       19.727        8.383        0.181      336.333        7.565      855.901
11/20/2013  03:59:00       14.022        3.106        7.290       24.178       14.517       11.725      584.576      210.739      137.469        0.060        0.047       14.362       11.795        0.674      336.394        7.666      855.906
11/20/2013  04:00:00       -5.961      -18.245        2.823       16.979       19.676       10.277      288.294      387.135      105.619        0.058        0.039       19.194        9.003        0.220      336.417        7.706      855.915
11/20/2013  04:01:00      -36.543       -6.957        3.973        9.857        9.909        8.414       97.169       98.179       70.799        0.083        0.013       37.199        6.550        0.031      336.339        7.573      855.928
11/20/2013  04:02:00      -15.391      -15.265       -0.689       11.121        8.811        8.307      123.686       77.625       69.009        0.037        0.014       21.677        6.569        0.092      336.327        7.556      855.938
11/20/2013  04:03:00       -7.103        3.187        3.933       11.624       10.295        6.004      135.107      105.993       36.047        0.018        0.014        7.785        2.545        0.107      336.298        7.504      855.929
11/20/2013  04:04:00       -8.177       -2.199       28.920       19.771       24.131       15.029      390.895      582.316      225.882        0.105        0.060        8.468        9.469        1.251      336.404        7.683      855.928
11/20/2013  04:05:00       10.992       10.677       47.012       16.897       31.595       20.752      285.493      998.222      430.635        0.208        0.086       15.324       20.891        1.858      336.438        7.740      855.925
11/20/2013  04:06:00       24.639       -3.363       27.280       19.518       39.055       22.249      380.955     1525.274      495.008        0.188        0.120       24.867       23.494        0.893      336.408        7.691      855.920
11/20/2013  04:07:00       23.427       -7.266       33.578       20.441       28.769       23.899      417.823      827.631      571.148        0.177        0.091       24.528       17.958        0.536      336.428        7.722      855.911
11/20/2013  04:08:00       26.811       -7.477       29.473       23.219       29.433       27.821      539.133      866.326      773.999        0.191        0.109       27.834       22.150        0.633      336.433        7.731      855.932
11/20/2013  04:09:00       61.733      -22.695       20.496       37.555       38.542       24.392     1410.375     1485.522      594.962        0.412        0.175       65.772       26.393        0.161      336.456        7.770      855.955
11/20/2013  04:10:00       35.358      -15.310       25.718       31.445       48.306       35.372      988.771     2333.496     1251.185        0.336        0.229       38.530       36.797        0.912      336.463        7.781      855.958
11/20/2013  04:11:00       11.370       28.536       49.612       27.407       32.695       16.622      751.136     1068.969      276.302        0.275        0.105       30.718       11.698        0.145      336.440        7.742      855.938
11/20/2013  04:12:00       40.232      -24.772       26.308       34.170       50.355       36.267     1167.581     2535.628     1315.280        0.397        0.251       47.247       38.835        0.676      336.420        7.710      855.926
11/20/2013  04:13:00       14.351       -7.653       36.260       24.334       49.756       29.221      592.166     2475.674      853.892        0.275        0.196       16.264       32.825        4.073      336.393        7.663      855.917
11/20/2013  04:14:00       68.072      -52.369        0.960       56.654       60.008       36.340     3209.680     3600.936     1320.571        0.775        0.407       85.886       43.271        0.254      336.416        7.703      855.929
11/20/2013  04:15:00       80.699      -60.777       -0.749       38.847       41.567       27.045     1509.072     1727.852      731.445        0.709        0.198      101.025       29.209        0.084      336.476        7.802      855.953
11/20/2013  04:16:00       53.936        9.358       34.799       53.810       52.655       38.124     2895.551     2772.536     1453.476        0.566        0.356       54.742       47.451        0.751      336.409        7.691      855.952
11/20/2013  04:17:00        7.196       36.767       76.504       32.119       40.017       28.778     1031.620     1601.343      828.185        0.536        0.173       37.464       21.376        0.326      336.400        7.675      855.924
11/20/2013  04:18:00       47.441      -34.103       26.130       58.664       57.387       34.793     3441.438     3293.233     1210.539        0.602        0.397       58.427       42.591        0.531      336.411        7.693      855.906
11/20/2013  04:19:00       98.777      -80.577       -1.416       45.577       48.565       28.730     2077.288     2358.568      825.404        1.076        0.263      127.474       30.832        0.058      336.423        7.712      855.915
11/20/2013  04:20:00       58.536      -34.785       10.507       44.460       37.660       28.572     1976.695     1418.243      816.344        0.448        0.211       68.091       26.718        0.154      336.390        7.660      855.916
11/20/2013  04:21:00       88.202      -54.218        5.262       37.782       28.290       25.377     1427.454      800.313      643.975        0.681        0.144      103.534       25.899        0.063      336.381        7.644      855.908
11/20/2013  04:22:00       55.293      -30.128        6.127       34.064       38.247       33.357     1160.370     1462.831     1112.722        0.387        0.187       62.969       30.311        0.232      336.400        7.676      855.899
11/20/2013  04:23:00       17.087       -8.334       14.579       19.893       27.975       16.658      395.729      782.612      277.495        0.101        0.073       19.011       13.534        0.507      336.425        7.718      855.890
11/20/2013  04:24:00       -9.970       -8.149       12.307       22.467       16.827       12.049      504.752      283.141      145.176        0.062        0.047       12.877       12.858        0.997      336.526        7.889      855.878
11/20/2013  04:25:00      -30.049      -26.461       -6.490       12.969       15.554        9.677      168.189      241.930       93.645        0.107        0.025       40.039        2.602        0.004      336.477        7.807      855.868
11/20/2013  04:26:00      -31.813      -32.625       -2.229       18.906       13.290       16.674      357.446      176.636      278.019        0.145        0.041       45.568       13.616        0.089      336.480        7.811      855.866
11/20/2013  04:27:00      -33.474       -2.412        3.809       39.710       27.345       21.128     1576.868      747.771      446.392        0.196        0.139       33.561       21.434        0.408      336.404        7.683      855.860
11/20/2013  04:28:00      -73.114       64.341      -12.809       19.601       39.104       20.970      384.209     1529.098      439.737        0.600        0.118       97.393       21.260        0.048      336.323        7.548      855.866
11/20/2013  04:29:00      -85.538       71.420      -21.373       19.369       28.294       14.110      375.164      800.559      199.103        0.712        0.069      111.434       12.317        0.012      336.292        7.496      855.877
11/20/2013  04:30:00      -77.977       30.166      -16.859       30.265       19.946       13.741      915.954      397.846      188.809        0.439        0.075       83.608       11.850        0.020      336.272        7.463      855.891
11/20/2013  04:31:00      -62.224       49.174       -8.855       27.058       23.569       17.343      732.151      555.476      300.767        0.398        0.079       79.309       16.075        0.041      336.237        7.404      855.892
11/20/2013  04:32:00      -82.875       50.606      -16.681       27.650       24.468       22.228      764.518      598.685      494.083        0.578        0.093       97.105       20.733        0.046      336.214        7.365      855.881
11/20/2013  04:33:00      -94.119       23.647      -13.416       22.647       25.400       13.872      512.868      645.169      192.435        0.547        0.068       97.044       10.682        0.012      336.211        7.361      855.858
11/20/2013  04:34:00      -88.467      -10.029      -12.290       26.109       27.323       13.759      681.679      746.570      189.316        0.485        0.081       89.034       10.255        0.013      336.231        7.396      855.831
11/20/2013  04:35:00      -61.590      -48.764        1.466       37.830       28.384       25.913     1431.083      805.666      671.462        0.454        0.145       78.558       24.416        0.097      336.201        7.342      855.802
11/20/2013  04:36:00      -24.601      -27.871       11.458       27.173       23.899       15.203      738.397      571.168      231.117        0.153        0.077       37.175       14.073        0.143      336.257        7.438      855.769
11/20/2013  04:37:00      -15.972      -28.729        6.740       14.687       19.495       10.341      215.695      380.049      106.934        0.091        0.035       32.870       10.236        0.097      336.334        7.565      855.731
11/20/2013  04:38:00      -14.285      -36.185        6.064       25.213       26.421       30.864      635.712      698.058      952.596        0.192        0.114       38.903        5.471        0.020      336.393        7.665      855.715
11/20/2013  04:39:00      -56.571      -60.059      -11.048       42.850       31.923       23.026     1836.124     1019.102      530.206        0.516        0.169       82.507       11.842        0.021      336.416        7.702      855.733
11/20/2013  04:40:00      -90.853      -49.581        4.143       31.515       23.143       15.656      993.174      535.611      245.101        0.625        0.089      103.502       11.403        0.012      336.377        7.637      855.760
11/20/2013  04:41:00      -28.791      -13.142        7.823       34.823       29.059       16.830     1212.653      844.430      283.246        0.170        0.117       31.649       19.734        0.389      336.367        7.621      855.774
11/20/2013  04:42:00       20.419        8.731       18.141       14.940       17.245       15.633      223.192      297.394      244.379        0.079        0.038       22.207        7.689        0.120      336.340        7.576      855.777
11/20/2013  04:43:00       97.426       69.888       37.622       27.757       29.595       33.776      770.452      875.892     1140.828        0.929        0.139      119.901       22.204        0.034      336.333        7.563      855.771
11/20/2013  04:44:00       63.684       77.860       47.320       32.901       24.973       22.711     1082.506      623.668      515.792        0.729        0.111      100.588        6.982        0.005      336.304        7.516      855.786
11/20/2013  04:45:00       24.042       48.004        7.806       32.678       48.183       30.919     1067.833     2321.556      955.999        0.364        0.217       53.688       27.086        0.255      336.214        7.364      855.838
11/20/2013  04:46:00      -25.913      127.297      -15.063       27.366       34.091       18.387      748.872     1162.211      338.066        0.968        0.112      129.908       15.969        0.015      336.219        7.373      855.881
11/20/2013  04:47:00      -35.736      149.597      -17.068       22.252       51.284       21.056      495.131     2630.020      443.372        1.376        0.178      153.806       20.801        0.018      336.223        7.380      855.899
11/20/2013  04:48:00      -23.071      181.046      -22.244       24.914       24.386       15.477      620.706      594.690      239.546        1.763        0.073      182.510       13.222        0.005      336.199        7.340      855.885
11/20/2013  04:49:00       11.525      171.191      -25.561       25.053       34.969       17.592      627.629     1222.810      309.493        1.613        0.108      171.578       17.008        0.010      336.103        7.180      855.851
11/20/2013  04:50:00       16.344       88.195       -4.498       25.413       60.414       35.755      645.832     3649.907     1278.408        0.682        0.279       89.697       35.711        0.159      336.049        7.089      855.808
11/20/2013  04:51:00       28.444      113.233      -10.706       34.585       57.183       31.669     1196.149     3269.940     1002.897        0.961        0.273      116.751       34.603        0.088      336.022        7.045      855.779
11/20/2013  04:52:00       20.182      111.079      -11.149       33.877       39.240       27.671     1147.660     1539.790      765.687        0.816        0.173      112.897       16.816        0.022      335.975        6.965      855.757
11/20/2013  04:53:00        6.049       90.718       -5.800       20.118       32.109       18.387      404.745     1031.004      338.073        0.504        0.089       90.919       11.991        0.017      335.970        6.955      855.757
11/20/2013  04:54:00       -1.257      111.783      -11.435       17.226       19.966       11.687      296.742      398.652      136.581        0.673        0.042      111.790        7.210        0.004      336.056        7.101      855.777
11/20/2013  04:55:00      -17.937       86.334      -13.562       12.237       16.322        7.920      149.750      266.396       62.724        0.422        0.024       88.177        5.126        0.003      336.225        7.384      855.796
11/20/2013  04:56:00      -11.636       27.469       -0.945       18.422       21.693       11.464      339.358      470.576      131.433        0.092        0.047       29.832        7.780        0.068      336.212        7.364      855.801
11/20/2013  04:57:00      -20.529       33.003       -7.471       13.141       20.056        7.250      172.686      402.261       52.565        0.110        0.031       38.867        4.654        0.014      336.274        7.466      855.802
11/20/2013  04:58:00       -3.281       14.262        4.514       15.251       15.156       10.713      232.584      229.714      114.766        0.041        0.029       14.634        9.141        0.390      336.286        7.485      855.804
11/20/2013  04:59:00       14.018       20.593        4.031       11.177       11.121        8.302      124.918      123.670       68.929        0.048        0.016       24.912        6.879        0.076      336.356        7.606      855.789
11/20/2013  05:00:00       -2.366        8.379       -3.504        8.590        8.678        4.632       73.797       75.308       21.455        0.013        0.009        8.707        4.535        0.271      336.348        7.591      855.790
11/20/2013  05:01:00      -62.406      -11.295       -9.255       19.712       13.780        9.920      388.549      189.892       98.413        0.239        0.034       63.420        8.877        0.020      336.253        7.431      855.802
11/20/2013  05:02:00     -112.968      -18.117      -10.835       19.820       18.244       12.414      392.814      332.846      154.118        0.704        0.044      114.412        9.514        0.007      336.132        7.229      855.827
11/20/2013  05:03:00     -141.466      -44.794       -9.440       61.687       44.607       26.332     3805.327     1989.793      693.392        1.430        0.324      148.389       16.001        0.012      336.051        7.092      855.858
11/20/2013  05:04:00     -125.465      -52.151       -9.419       57.743       42.632       33.205     3334.214     1817.505     1102.588        1.240        0.313      135.872       30.328        0.050      336.034        7.063      855.888
11/20/2013  05:05:00      -57.206      -18.636       -2.868       41.681       34.981       16.399     1737.301     1223.654      268.937        0.343        0.161       60.165       14.353        0.057      336.068        7.121      855.916
11/20/2013  05:06:00      -86.264      -22.980      -12.510       24.365       29.302       13.443      593.645      858.597      180.717        0.488        0.082       89.273        9.859        0.012      336.126        7.217      855.937
11/20/2013  05:07:00     -107.096       -8.130       -8.803       36.016       30.808       23.173     1297.127      949.145      536.991        0.720        0.139      107.404       22.750        0.045      336.097        7.169      855.956
11/20/2013  05:08:00     -151.276      -15.927      -13.000       43.311       29.537       26.346     1875.875      872.410      694.119        1.337        0.172      152.112       26.208        0.030      336.057        7.104      855.970
11/20/2013  05:09:00     -138.936        3.782      -23.686       35.635       27.585       20.285     1269.850      760.952      411.499        1.116        0.122      138.987       17.869        0.017      336.078        7.137      855.975
11/20/2013  05:10:00      -80.462      -24.080      -11.393       33.205       27.971       19.790     1102.595      782.376      391.632        0.473        0.114       83.988       18.189        0.047      336.039        7.073      855.987
11/20/2013  05:11:00      -61.461      -18.249       -1.111       36.521       34.541       23.304     1333.797     1193.073      543.081        0.359        0.153       64.113       18.942        0.087      336.051        7.093      855.982
11/20/2013  05:12:00      -93.971      -16.733      -11.307       21.997       21.215       20.980      483.847      450.085      440.164        0.531        0.069       95.449       12.856        0.018      336.040        7.076      855.974
11/20/2013  05:13:00      -83.632      -25.136       -5.345       17.791       23.966       16.498      316.534      574.381      272.171        0.441        0.058       87.328       14.780        0.029      336.080        7.142      855.964
11/20/2013  05:14:00      -71.539      -41.878       -6.501       18.581       25.429       13.779      345.240      646.616      189.858        0.405        0.059       82.895       14.646        0.031      336.076        7.135      855.966
11/20/2013  05:15:00      -90.434      -25.113       -6.264       15.781       19.597       10.626      249.030      384.036      112.902        0.480        0.037       93.857        9.619        0.011      336.101        7.176      855.965
11/20/2013  05:16:00      -68.293      -49.028       -7.407       35.744       15.866       13.516     1277.649      251.716      182.683        0.442        0.086       84.070        7.741        0.008      336.110        7.191      855.956
11/20/2013  05:17:00      -81.209      -48.801       -4.052       34.279       17.174       14.518     1175.077      294.933      210.760        0.534        0.084       94.744       10.180        0.012      336.087        7.154      855.954
11/20/2013  05:18:00     -106.007      -89.956        0.853       47.422       39.033       24.960     2248.833     1523.539      622.985        1.186        0.220      139.031       24.954        0.032      336.096        7.168      855.952
11/20/2013  05:19:00     -153.086      -62.535       -4.703       52.236       50.200       28.933     2728.591     2520.007      837.122        1.673        0.304      165.366       26.686        0.026      336.067        7.119      855.958
11/20/2013  05:20:00     -136.332      -95.785       -0.673       48.166       46.364       25.938     2319.949     2149.635      672.779        1.645        0.257      166.616       21.160        0.016      336.049        7.089      855.957
11/20/2013  05:21:00     -117.902       -4.430       -8.557       52.338       39.452       26.574     2739.244     1556.453      706.179        0.950        0.250      117.985       29.893        0.064      336.076        7.135      855.954
11/20/2013  05:22:00     -159.051       31.609      -10.719       70.124       41.369       28.314     4917.414     1711.413      801.657        1.692        0.372      162.162       31.888        0.039      336.092        7.160      855.960
11/20/2013  05:23:00     -121.954      -17.217      -10.913       25.749       30.981       15.483      663.018      959.830      239.721        0.858        0.093      123.163        5.520        0.002      336.070        7.125      855.955
11/20/2013  05:24:00     -128.148       24.960       -5.241       52.101       42.749       22.252     2714.499     1827.509      495.167        1.105        0.252      130.556       20.621        0.025      336.085        7.150      855.957
11/20/2013  05:25:00     -140.969       25.754      -14.257       26.755       26.717       19.481      715.855      713.811      379.527        1.127        0.090      143.302       13.781        0.009      336.138        7.238      855.963
11/20/2013  05:26:00     -119.185        6.783       -7.345       29.598       21.180       16.727      876.066      448.597      279.808        0.795        0.080      119.378       12.074        0.010      336.092        7.160      855.983
11/20/2013  05:27:00     -107.348      -12.745      -17.407       28.167       21.775       16.240      793.365      474.160      263.726        0.676        0.077      108.102        6.631        0.004      336.176        7.302      856.016
11/20/2013  05:28:00      -96.622        0.511      -12.703       26.008       16.961       13.698      676.442      287.674      187.639        0.532        0.058       96.624       13.487        0.019      336.185        7.317      856.039
11/20/2013  05:29:00      -69.418        9.322       -8.503       19.709       22.819       13.944      388.439      520.720      194.424        0.304        0.055       70.041       12.956        0.034      336.266        7.452      856.042
11/20/2013  05:30:00      -51.685        6.294       -9.074       20.369       27.166        9.435      414.899      738.002       89.014        0.202        0.062       52.067        8.195        0.025      336.357        7.605      856.046
11/20/2013  05:31:00      -32.482      -19.361       -2.509       31.735       16.185       10.042     1007.096      261.957      100.847        0.140        0.068       37.814       11.893        0.099      336.325        7.549      856.058
11/20/2013  05:32:00      -81.528      -59.473        3.295       30.108       23.182       19.199      906.507      537.384      368.588        0.600        0.091      100.915       15.219        0.023      336.272        7.461      856.076
11/20/2013  05:33:00      -78.201      -26.067        1.420       32.990       26.180       17.849     1088.333      685.403      318.583        0.444        0.105       82.431       17.919        0.047      336.261        7.444      856.078
11/20/2013  05:34:00      -42.815       -8.549       -2.036       34.144       16.895       12.317     1165.808      285.441      151.708        0.176        0.080       43.660       15.121        0.120      336.304        7.517      856.056
11/20/2013  05:35:00      -35.332       57.493      -11.622       13.143       35.675       12.199      172.742     1272.672      148.810        0.314        0.080       67.482       13.960        0.043      336.483        7.816      856.020
11/20/2013  05:36:00       37.113       75.610       -3.789       28.280       32.266       20.983      799.776     1041.090      440.294        0.469        0.114       84.227       18.757        0.050      336.474        7.799      856.003
11/20/2013  05:37:00       81.360       68.872       14.366       40.637       33.020       42.910     1651.334     1090.313     1841.276        0.808        0.229      106.596       27.441        0.066      336.306        7.519      856.000
11/20/2013  05:38:00       77.267       67.099       24.133       40.441       30.405       32.406     1635.457      924.445     1050.172        0.733        0.181      102.335       18.612        0.033      336.227        7.388      856.014
11/20/2013  05:39:00       11.823       22.911       -7.565       34.256       12.975       12.551     1173.503      168.340      157.538        0.111        0.075       25.782        7.735        0.090      336.304        7.516      856.063
11/20/2013  05:40:00      -57.067       30.647      -10.994       22.602       23.280       13.178      510.832      541.948      173.673        0.277        0.061       64.776       10.902        0.028      336.275        7.470      856.082
11/20/2013  05:41:00      -36.629       65.644       -7.776       44.381       25.660       16.318     1969.702      658.455      266.265        0.430        0.145       75.171       21.250        0.080      336.401        7.679      856.063
11/20/2013  05:42:00       54.892       58.566       -5.986       29.797       31.829       20.782      887.882     1013.099      431.905        0.441        0.117       80.269       15.449        0.037      336.381        7.644      855.994
11/20/2013  05:43:00      176.746       80.560       16.916       57.480       34.856       34.020     3303.903     1214.908     1157.338        2.184        0.284      194.240       16.118        0.007      336.225        7.383      855.920
11/20/2013  05:44:00      122.368      106.647       51.380       62.649       43.860       51.347     3924.846     1923.739     2636.531        1.873        0.424      162.320       38.881        0.057      336.144        7.247      855.873
11/20/2013  05:45:00       92.853      113.312       82.378       64.876       47.944       44.454     4208.831     2298.600     1976.115        1.836        0.424      146.497       39.083        0.071      336.153        7.262      855.869
11/20/2013  05:46:00      -28.875      -29.024       22.818       64.576       66.849       41.548     4170.069     4468.737     1726.255        0.628        0.518       40.941       51.012        1.553      336.291        7.495      855.916
11/20/2013  05:47:00     -168.124     -125.258        0.085       73.416       56.891       37.828     5389.945     3236.535     1430.964        2.700        0.503      209.655       35.830        0.029      336.459        7.771      855.962
11/20/2013  05:48:00      -92.570     -105.190        3.549       59.750       59.376       35.005     3570.039     3525.451     1225.327        1.398        0.416      140.122       25.718        0.034      336.472        7.795      855.988
11/20/2013  05:49:00     -126.457      -91.583        3.742       85.030       60.546       38.079     7230.116     3665.831     1449.984        1.837        0.617      156.138       41.756        0.072      336.334        7.565      855.997
11/20/2013  05:50:00     -123.020      -71.707      -12.463       56.090       41.797       29.395     3146.065     1746.988      864.076        1.309        0.288      142.393       19.028        0.018      336.272        7.462      855.988
11/20/2013  05:51:00      -93.197      -31.547       -4.835       43.303       35.789       18.947     1875.152     1280.830      358.995        0.661        0.176       98.391       19.918        0.041      336.331        7.560      855.975
11/20/2013  05:52:00     -137.586      -22.908       -8.777       32.552       32.919       16.150     1059.628     1083.677      260.819        1.097        0.120      139.480       14.155        0.010      336.340        7.575      855.996
11/20/2013  05:53:00     -115.319      -14.001       -1.086       44.414       35.905       22.195     1972.614     1289.197      492.603        0.862        0.188      116.166       22.117        0.036      336.229        7.389      856.023
11/20/2013  05:54:00     -160.497      -78.386       -0.063       69.209       48.907       31.509     4789.884     2391.909      992.823        2.004        0.409      178.616       34.544        0.037      336.276        7.466      856.025
11/20/2013  05:55:00     -153.211      -93.173      -11.488       64.655       47.164       25.925     4180.270     2224.466      672.111        1.968        0.354      179.318       24.070        0.018      336.412        7.695      856.034
11/20/2013  05:56:00      -67.856      -34.552       -1.715       45.093       22.907       19.443     2033.373      524.721      378.023        0.437        0.147       76.147       19.339        0.064      336.468        7.790      856.029
11/20/2013  05:57:00        1.272       -9.042       12.343       24.557       20.481       14.805      603.055      419.461      219.182        0.074        0.062        9.131       16.655        3.327      336.435        7.733      855.989
11/20/2013  05:58:00       38.280       46.633       23.162       33.228       29.546       26.892     1104.106      872.990      723.158        0.344        0.135       60.332       22.762        0.142      336.528        7.890      855.946
11/20/2013  05:59:00       -8.802      -15.833        8.526       22.030       29.244       23.710      485.324      855.189      562.148        0.115        0.095       18.115       21.743        1.441      336.608        8.026      855.981
11/20/2013  06:00:00      -17.511      -19.750       12.602       33.212       23.516       20.781     1103.068      553.008      431.870        0.147        0.104       26.395       14.659        0.308      336.666        8.122      856.028
11/20/2013  06:01:00     -129.691      -82.415        5.993       70.751       39.106       24.986     5005.666     1529.267      624.318        1.540        0.358      153.662       27.032        0.031      336.436        7.735      856.039
11/20/2013  06:02:00      -80.926      -82.487        5.010       69.714       53.222       30.455     4860.080     2832.626      927.477        1.100        0.431      115.556       34.857        0.091      336.412        7.696      856.028
11/20/2013  06:03:00      -77.934      -59.194        1.092       47.139       46.524       26.720     2222.109     2164.460      713.976        0.734        0.255       97.865       23.883        0.060      336.414        7.699      856.004
11/20/2013  06:04:00     -103.171      -55.676       -5.378       41.744       31.405       22.311     1742.560      986.253      497.795        0.850        0.161      117.235       20.789        0.031      336.499        7.841      856.016
11/20/2013  06:05:00     -133.524      -43.835       -2.092       48.629       30.931       19.574     2364.811      956.733      383.158        1.173        0.185      140.535       20.749        0.022      336.459        7.775      856.066
11/20/2013  06:06:00     -197.549      -18.145      -22.521       48.695       54.967       30.011     2371.221     3021.423      900.683        2.308        0.315      198.380       29.607        0.022      336.325        7.548      856.120
11/20/2013  06:07:00     -133.256        0.431      -12.728       64.062       54.287       36.547     4103.977     2947.041     1335.663        1.315        0.419      133.257       23.637        0.031      336.268        7.455      856.146
11/20/2013  06:08:00     -152.041       -0.337      -18.599       55.370       22.676       19.226     3065.877      514.197      369.621        1.371        0.197      152.041       20.834        0.019      336.412        7.695      856.158
11/20/2013  06:09:00        5.638       12.310       15.167       24.062       22.735       19.741      578.967      516.893      389.717        0.095        0.074       13.540       11.826        0.763      336.380        7.643      856.155
11/20/2013  06:10:00       23.049       23.977       22.131       28.481       26.271       25.869      811.183      690.181      669.219        0.188        0.109       33.259       23.615        0.504      336.443        7.749      856.133
11/20/2013  06:11:00      -37.685        5.132        9.525       27.009       19.894       20.556      729.478      395.761      422.532        0.154        0.077       38.032       22.239        0.342      336.437        7.737      856.154
11/20/2013  06:12:00      -97.597      -22.729       -3.197       32.334       28.345       18.590     1045.475      803.438      345.587        0.612        0.110      100.208       14.615        0.021      336.499        7.841      856.184
11/20/2013  06:13:00      -81.617       13.714       -3.137       30.196       23.217       13.666      911.818      539.008      186.769        0.425        0.082       82.761       13.544        0.027      336.418        7.706      856.190
11/20/2013  06:14:00      -62.829       82.119      -18.181       17.693       16.122       14.815      313.051      259.905      219.476        0.591        0.040      103.397        9.666        0.009      336.645        8.088      856.183
11/20/2013  06:15:00      -76.410       54.574      -18.312       21.964       22.325       10.935      482.397      498.387      119.574        0.513        0.055       93.898       10.068        0.011      336.819        8.377      856.187
11/20/2013  06:16:00     -154.211      -49.205       -0.703       56.231       59.054       28.697     3161.908     3487.372      823.532        1.684        0.374      161.871       31.253        0.037      336.408        7.689      856.201
11/20/2013  06:17:00     -110.048      -60.914       -2.643       63.291       34.464       31.638     4005.718     1187.760     1000.952        1.101        0.310      125.782       32.311        0.066      336.394        7.667      856.217
11/20/2013  06:18:00      -44.942      -63.355       11.743       52.542       40.830       25.727     2760.662     1667.101      661.855        0.563        0.254       77.677       28.131        0.131      336.471        7.794      856.199
11/20/2013  06:19:00      -46.816      -65.349        0.778       34.077       59.872       22.525     1161.261     3584.659      507.383        0.586        0.263       80.388       18.353        0.052      336.617        8.040      856.184
11/20/2013  06:20:00      -27.917       13.409       24.687       58.094       33.049       25.653     3374.901     1092.261      658.077        0.335        0.256       30.970       28.465        0.845      336.490        7.826      856.173
11/20/2013  06:21:00       18.940       39.966       17.675       36.982       35.728       23.325     1367.670     1276.523      544.061        0.273        0.159       44.226       22.580        0.261      336.440        7.742      856.150
11/20/2013  06:22:00      -56.387       40.740       -5.001       24.902       27.826       17.674      620.125      774.308      312.354        0.329        0.085       69.565       16.374        0.055      336.564        7.952      856.137
11/20/2013  06:23:00        7.566       19.611       14.715       17.844       11.817       10.056      318.391      139.643      101.117        0.061        0.028       21.020        9.686        0.212      336.500        7.842      856.114
11/20/2013  06:24:00      -26.319       17.078       -3.293       28.659       21.433        6.247      821.360      459.355       39.029        0.116        0.066       31.374        3.345        0.011      336.557        7.939      856.098
11/20/2013  06:25:00     -125.002      -39.547      -10.091       28.545       24.108       13.536      814.840      581.195      183.235        0.943        0.079      131.109        7.796        0.004      336.469        7.793      856.096
11/20/2013  06:26:00      -81.292      -48.777        2.970       58.946       19.592       14.424     3474.640      383.832      208.050        0.653        0.203       94.803       15.165        0.026      336.498        7.840      856.105
11/20/2013  06:27:00       -9.134      -40.934       -0.750        9.902       11.792        7.667       98.045      139.053       58.784        0.103        0.015       41.941        4.802        0.013      336.742        8.247      856.106
11/20/2013  06:28:00      -46.010      -21.733       -3.180       30.198       18.831        8.412      911.900      354.595       70.762        0.197        0.067       50.884        7.129        0.020      336.679        8.143      856.107
11/20/2013  06:29:00      -83.543        8.249       -8.361       53.853       36.130       23.107     2900.112     1305.404      533.942        0.593        0.237       83.949       26.432        0.099      336.404        7.683      856.130
11/20/2013  06:30:00     -151.410      -12.668      -17.725       48.818       58.013       25.912     2383.238     3365.480      671.448        1.491        0.321      151.939       16.098        0.011      336.309        7.524      856.149
11/20/2013  06:31:00     -200.577      -77.714      -19.806       68.885       44.092       29.359     4745.187     1944.113      861.922        2.711        0.378      215.106       28.568        0.018      336.249        7.422      856.185
11/20/2013  06:32:00      -84.482      -87.452        4.780       77.063       48.741       32.552     5938.699     2375.676     1059.661        1.209        0.469      121.593       36.831        0.092      336.703        8.182      856.193
11/20/2013  06:33:00      -18.707      -49.855       13.784       40.970       36.604       20.617     1678.545     1339.877      425.058        0.323        0.172       53.249       25.742        0.234      336.915        8.536      856.172
11/20/2013  06:34:00      -18.064      -53.249       10.484       50.780       61.689       32.583     2578.562     3805.502     1061.682        0.536        0.372       56.229       23.090        0.169      336.967        8.625      856.179
11/20/2013  06:35:00       -3.101       36.492       18.919       38.351       27.683       32.117     1470.818      766.372     1031.531        0.248        0.163       36.624       22.311        0.371      336.710        8.194      856.187
11/20/2013  06:36:00       33.307       84.465       -9.284       22.220       42.523       19.852      493.729     1808.219      394.088        0.551        0.135       90.795       21.702        0.057      336.377        7.640      856.209
11/20/2013  06:37:00       41.527       41.113      -13.983       39.822       26.565       17.871     1585.753      705.723      319.385        0.311        0.131       58.436       10.141        0.030      336.335        7.568      856.272
11/20/2013  06:38:00      138.587       69.109        6.745       34.491       34.975       33.256     1189.663     1223.252     1105.968        1.377        0.176      154.862       25.974        0.028      336.253        7.431      856.293
11/20/2013  06:39:00      140.103       65.787       35.466       64.317       59.938       49.797     4136.711     3592.614     2479.716        1.771        0.510      154.780       36.184        0.055      336.060        7.107      856.272
11/20/2013  06:40:00      124.525       74.257       50.865       93.047       66.079       55.288     8657.658     4366.477     3056.748        1.984        0.804      144.984       51.778        0.128      335.943        6.910      856.286
11/20/2013  06:41:00      152.590      107.752       28.245       44.135       29.635       26.624     1947.918      878.251      708.814        1.961        0.177      186.800       16.726        0.008      335.900        6.840      856.327
11/20/2013  06:42:00      106.216       41.207       23.822       34.931       33.117       23.944     1220.204     1096.747      573.303        0.822        0.145      113.929       10.831        0.009      335.873        6.799      856.347
11/20/2013  06:43:00       84.755       61.483       48.295       39.421       32.736       34.677     1554.010     1071.640     1202.475        0.856        0.191      104.707       18.339        0.031      335.878        6.804      856.317
11/20/2013  06:44:00      114.881       61.709       51.714       41.394       40.599       41.843     1713.482     1648.296     1750.876        1.240        0.256      130.406       32.416        0.062      335.847        6.754      856.287
11/20/2013  06:45:00      103.683       70.213       17.705       45.384       33.695       37.536     2059.667     1135.356     1408.956        1.030        0.230      125.220       20.758        0.027      335.874        6.798      856.299
11/20/2013  06:46:00      138.672       91.450       19.185       43.088       30.938       36.259     1856.548      957.131     1314.721        1.604        0.206      166.111       23.467        0.020      336.001        7.008      856.313
11/20/2013  06:47:00      130.974       95.797        9.340       55.449       37.937       36.640     3074.636     1439.244     1342.460        1.614        0.293      162.270       17.988        0.012      335.968        6.952      856.299
11/20/2013  06:48:00       98.750       72.119       21.541       45.892       40.176       37.570     2106.075     1614.149     1411.526        1.027        0.257      122.281       20.550        0.028      335.907        6.853      856.276
11/20/2013  06:49:00       72.565       98.393      -12.255       52.679       34.036       26.958     2775.038     1158.442      726.716        0.988        0.233      122.257       24.757        0.041      335.872        6.795      856.254
11/20/2013  06:50:00      126.856      105.655       -3.887       51.467       60.004       50.615     2648.850     3600.472     2561.849        1.804        0.441      165.092       45.861        0.077      335.905        6.849      856.238
11/20/2013  06:51:00       43.087       21.664       13.637       39.590       27.980       24.125     1567.378      782.856      582.016        0.272        0.147       48.227       22.712        0.222      335.965        6.950      856.242
11/20/2013  06:52:00       40.484       34.830       -2.261       16.621       15.548       15.450      276.262      241.726      238.699        0.181        0.038       53.405        4.567        0.007      335.915        6.868      856.241
11/20/2013  06:53:00       53.923       47.076        6.397       33.605       24.989       21.564     1129.268      624.463      465.021        0.369        0.111       71.581       14.427        0.041      335.945        6.916      856.246
11/20/2013  06:54:00       72.128       55.509        3.879       27.339       22.898       19.856      747.430      524.341      394.262        0.498        0.083       91.015       18.683        0.042      335.960        6.941      856.253
11/20/2013  06:55:00        5.517      130.992      -12.548       21.735       48.698       27.685      472.420     2371.481      766.486        1.048        0.181      131.109       32.355        0.061      336.157        7.271      856.267
11/20/2013  06:56:00       32.590      103.546      -14.116       19.235       33.987       17.976      369.974     1155.130      323.125        0.692        0.092      108.553       15.651        0.021      336.233        7.398      856.277
11/20/2013  06:57:00       22.138      141.944      -20.750       32.003       59.332       25.669     1024.176     3520.229      658.875        1.313        0.260      143.659       32.385        0.051      336.320        7.543      856.286
11/20/2013  06:58:00       20.377       70.576       -8.026       35.180       59.046       30.376     1237.632     3486.472      922.674        0.555        0.282       73.459       37.095        0.255      336.258        7.438      856.310
11/20/2013  06:59:00        1.724      100.097      -15.078       17.291       26.179        8.574      298.988      685.340       73.506        0.565        0.053      100.111        8.639        0.007      336.572        7.965      856.347
11/20/2013  07:00:00      -63.603       41.303       -3.382       35.842       28.237       19.570     1284.668      797.353      382.984        0.411        0.123       75.837       10.859        0.021      336.466        7.788      856.346
11/20/2013  07:01:00      -48.362       45.396       -8.037       20.226       22.542       13.129      409.077      508.120      172.377        0.278        0.054       66.330        6.329        0.009      336.415        7.702      856.330
11/20/2013  07:02:00      -73.310       84.853      -18.802       23.853       44.731       21.442      568.979     2000.824      459.771        0.798        0.151      112.136       19.664        0.031      336.562        7.947      856.305
11/20/2013  07:03:00     -120.287      138.617      -25.223       34.435       44.094       21.977     1185.762     1944.266      482.977        1.897        0.181      183.531       16.922        0.009      336.933        8.567      856.284
11/20/2013  07:04:00     -112.987       63.066      -11.205       51.612       51.845       32.285     2663.805     2687.954     1042.320        1.163        0.320      129.396       27.346        0.045      337.058        8.776      856.284
11/20/2013  07:05:00     -139.180       39.842      -14.162       40.177       29.758       21.874     1614.174      885.522      478.463        1.207        0.149      144.770       15.353        0.011      336.873        8.466      856.288
11/20/2013  07:06:00     -107.355       30.806       -9.635       48.985       38.862       20.993     2399.552     1510.237      440.698        0.846        0.218      111.687       20.189        0.033      336.777        8.307      856.277
11/20/2013  07:07:00     -131.622       37.925       -4.032       58.678       36.255       18.808     3443.071     1314.403      353.740        1.194        0.256      136.977       20.343        0.022      336.982        8.649      856.254
11/20/2013  07:08:00     -145.182       60.476      -13.673       98.073       39.157       26.497     9618.333     1533.240      702.101        1.839        0.593      157.274       36.685        0.054      337.021        8.714      856.235
11/20/2013  07:09:00     -199.639       12.141      -11.565       74.538       70.476       39.316     5555.957     4966.840     1545.781        2.610        0.603      200.008       36.512        0.033      337.129        8.892      856.255
11/20/2013  07:10:00     -178.956      -21.301       -0.845       62.129       49.442       37.637     3860.049     2444.552     1416.564        2.010        0.386      180.219       32.941        0.033      336.948        8.589      856.281
11/20/2013  07:11:00     -125.788      -39.050       -0.046       65.237       53.304       36.852     4255.834     2841.282     1358.052        1.290        0.423      131.710       30.357        0.053      336.961        8.612      856.275
11/20/2013  07:12:00     -118.823      -34.123      -14.202       63.989       42.583       28.752     4094.552     1813.275      826.681        1.111        0.337      123.625       20.994        0.029      337.074        8.801      856.265
11/20/2013  07:13:00      -91.993       31.363      -13.571       53.415       50.633       21.314     2853.135     2563.685      454.279        0.775        0.294       97.192       19.527        0.040      336.909        8.528      856.266
11/20/2013  07:14:00     -109.894      -68.770       -2.216       68.862       56.785       34.989     4742.006     3224.485     1224.201        1.300        0.460      129.638       29.189        0.051      336.732        8.232      856.279
11/20/2013  07:15:00     -151.005      -49.670       -4.427       49.031       45.762       27.223     2404.003     2094.175      741.103        1.526        0.262      158.964       22.763        0.021      336.687        8.158      856.300
11/20/2013  07:16:00     -185.297      -19.043       -9.896       61.453       43.957       34.487     3776.510     1932.258     1189.377        2.085        0.345      186.273       28.337        0.023      336.726        8.218      856.327
11/20/2013  07:17:00     -136.199      -53.369       -1.816       45.358       37.191       29.136     2057.323     1383.136      848.911        1.284        0.214      146.282       27.470        0.035      336.703        8.184      856.347
11/20/2013  07:18:00     -296.504     -132.644      -12.487      105.686       74.017       45.601    11169.536     5478.489     2079.434        6.219        0.936      324.822       46.226        0.020      336.947        8.587      856.344
11/20/2013  07:19:00     -213.680     -103.612       -1.441      101.433       65.175       42.233    10288.650     4247.751     1783.623        3.635        0.816      237.475       47.030        0.039      337.020        8.706      856.359
11/20/2013  07:20:00     -206.428     -103.021       -5.773       81.428       49.418       32.146     6630.572     2442.107     1033.364        3.168        0.505      230.708       29.209        0.016      336.985        8.651      856.370
11/20/2013  07:21:00     -157.293      -74.529       -3.439       71.293       59.207       33.321     5082.650     3505.478     1110.308        2.000        0.485      174.056       34.834        0.040      336.962        8.614      856.367
11/20/2013  07:22:00     -158.476      -51.779       -4.244       49.614       42.907       30.346     2461.591     1841.045      920.905        1.652        0.261      166.720       28.185        0.029      336.937        8.573      856.361
11/20/2013  07:23:00     -189.929      -24.268       -7.772       57.479       50.821       24.336     3303.865     2582.793      592.256        2.160        0.324      191.474       31.675        0.027      336.914        8.531      856.356
11/20/2013  07:24:00     -163.501        9.932       -8.400       67.962       38.183       25.805     4618.848     1457.918      665.916        1.682        0.337      163.803       30.519        0.035      336.885        8.485      856.366
11/20/2013  07:25:00     -103.445      -55.515        0.464       39.625       49.015       27.165     1570.179     2402.481      737.929        0.925        0.236      117.401       24.374        0.043      336.876        8.472      856.387
11/20/2013  07:26:00     -119.179      -28.987        1.585       61.242       37.069       24.963     3750.571     1374.074      623.174        1.040        0.287      122.654       27.233        0.049      336.869        8.460      856.389
11/20/2013  07:27:00      -71.864      -39.708        5.009       52.942       53.443       28.380     2802.856     2856.177      805.432        0.661        0.323       82.105       30.567        0.139      336.893        8.498      856.376
11/20/2013  07:28:00      -89.794      -61.171        8.843       49.643       31.188       29.940     2464.455      972.680      896.417        0.811        0.217      108.650       31.310        0.083      336.911        8.530      856.378
11/20/2013  07:29:00     -128.675      -83.811       -9.377       61.958       33.038       27.102     3838.843     1091.522      734.520        1.467        0.283      153.563       32.571        0.045      336.895        8.503      856.384
11/20/2013  07:30:00      -75.631      -49.034       12.596       60.350       40.228       26.274     3642.129     1618.261      690.318        0.712        0.298       90.135       26.935        0.089      336.859        8.443      856.379
11/20/2013  07:31:00      -77.797      -69.328        4.956       57.200       29.563       25.963     3271.889      873.963      674.091        0.785        0.241      104.206       27.903        0.072      336.898        8.509      856.379
11/20/2013  07:32:00      -74.222      -65.816       11.494       53.041       30.108       27.853     2813.330      906.500      775.783        0.723        0.225       99.201       31.311        0.100      336.933        8.567      856.358
11/20/2013  07:33:00     -125.507      -71.728       -1.835       61.881       37.223       26.495     3829.243     1385.524      702.002        1.341        0.296      144.558       25.158        0.030      336.885        8.485      856.360
11/20/2013  07:34:00      -89.422     -107.039        5.689       52.326       42.220       34.608     2738.011     1782.546     1197.740        1.260        0.286      139.476       35.251        0.064      336.954        8.602      856.354
11/20/2013  07:35:00      -56.242      -35.884        5.237       38.615       34.866       23.613     1491.115     1215.651      557.593        0.387        0.163       66.714       21.653        0.105      336.994        8.669      856.343
11/20/2013  07:36:00      -90.768       -2.508       -2.187       32.472       32.049       17.536     1054.425     1027.135      307.504        0.532        0.119       90.803       12.871        0.020      336.921        8.545      856.330
11/20/2013  07:37:00      -71.861       32.559       -6.558       21.534       21.170       13.141      463.694      448.150      172.698        0.368        0.054       78.893       11.351        0.021      336.710        8.195      856.339
11/20/2013  07:38:00      -76.325       11.821       -9.742       29.587       20.890       11.200      875.371      436.408      125.430        0.375        0.072       77.235        7.953        0.011      336.673        8.133      856.340
11/20/2013  07:39:00      -58.904        0.217       -8.880       22.291       10.942        9.654      496.898      119.730       93.197        0.213        0.035       58.904        7.169        0.015      336.638        8.076      856.334
11/20/2013  07:40:00      -87.036      -13.602      -11.304       28.596       25.657       13.675      817.727      658.262      187.011        0.478        0.083       88.092       10.008        0.013      336.719        8.211      856.336
11/20/2013  07:41:00     -119.840       -3.985      -11.765       32.427       32.666       22.571     1051.481     1067.078      509.447        0.857        0.131      119.906       13.907        0.013      336.671        8.130      856.355
11/20/2013  07:42:00     -110.270       12.488       -9.157       31.202       25.970       18.943      973.591      674.458      358.822        0.720        0.100      110.975       13.272        0.014      336.733        8.235      856.346
11/20/2013  07:43:00      -95.045       -6.238      -13.374       34.141       20.945       14.456     1165.592      438.676      208.965        0.553        0.091       95.250       16.913        0.032      336.761        8.282      856.338
11/20/2013  07:44:00     -135.947        0.849      -10.977       48.306       48.639       27.762     2333.423     2365.721      770.732        1.204        0.273      135.950       25.589        0.035      336.856        8.439      856.342
11/20/2013  07:45:00     -158.606      -26.139      -11.412       40.069       37.805       24.882     1605.546     1429.250      619.096        1.481        0.183      160.745       24.019        0.022      336.844        8.419      856.352
11/20/2013  07:46:00      -95.663      -51.211       -2.087       39.941       35.326       21.695     1595.300     1247.898      470.685        0.755        0.166      108.507       20.037        0.034      336.860        8.446      856.356
11/20/2013  07:47:00     -117.251       -1.611      -11.700       37.530       27.491       20.116     1408.538      755.780      404.670        0.823        0.128      117.262       17.335        0.022      336.877        8.472      856.346
11/20/2013  07:48:00      -70.149       32.365       -5.241       18.980       27.807       15.662      360.256      773.238      245.302        0.369        0.069       77.255       10.060        0.017      336.918        8.541      856.339
11/20/2013  07:49:00     -113.572        6.007      -13.359       55.808       39.971       17.230     3114.570     1597.711      296.869        0.906        0.250      113.730       13.473        0.014      336.998        8.674      856.353
11/20/2013  07:50:00     -125.739      -29.536      -15.152       57.173       40.155       25.679     3268.761     1612.453      659.418        1.123        0.277      129.161       28.510        0.049      337.050        8.761      856.369
11/20/2013  07:51:00      -23.481      -21.728       -2.692       29.142       29.696       21.878      849.239      881.831      478.643        0.162        0.110       31.992       12.051        0.142      337.114        8.869      856.376
11/20/2013  07:52:00       10.248       10.692       37.245       17.199       24.552       10.190      295.810      602.820      103.837        0.130        0.050       14.810        8.665        0.342      337.372        9.301      856.379
11/20/2013  07:53:00      -13.493      -50.076        3.304       24.084       25.248       19.472      580.063      637.466      379.160        0.215        0.080       51.862       14.986        0.084      337.255        9.106      856.415
11/20/2013  07:54:00      -18.833      -44.740        9.598       37.844       58.194       29.876     1432.163     3386.492      892.603        0.408        0.286       48.542       28.154        0.336      337.346        9.259      856.453
11/20/2013  07:55:00       46.197      -54.103       31.251       58.766       97.507       59.276     3453.440     9507.663     3513.670        1.125        0.824       71.143       68.535        0.928      337.098        8.843      856.469
11/20/2013  07:56:00      132.227     -154.640      -35.543       56.812       49.311       42.244     3227.657     2431.583     1784.585        2.505        0.372      203.464       32.970        0.026      336.536        7.901      856.481
11/20/2013  07:57:00       38.639      -42.075       26.137       66.449       62.634       56.495     4415.486     3922.998     3191.705        0.774        0.577       57.125       48.717        0.727      336.641        8.080      856.494
11/20/2013  07:58:00       95.982      -51.972       19.848       80.083       92.389       75.751     6413.334     8535.681     5738.208        1.649        1.034      109.149       81.673        0.560      336.466        7.785      856.492
11/20/2013  07:59:00      142.405     -112.533      -23.818       95.363       86.906       69.161     9094.084     7552.695     4783.303        2.747        1.072      181.501       59.487        0.107      336.373        7.627      856.457
11/20/2013  08:00:00       61.633        9.320       69.077       83.839      108.093       70.973     7028.985    11684.059     5037.207        1.620        1.188       62.334       74.742        1.438      336.569        7.959      856.440
11/20/2013  08:01:00       34.539      -31.434       47.650       53.426       68.609       51.150     2854.341     4707.166     2616.288        0.731        0.509       46.701       35.537        0.579      336.544        7.918      856.459
11/20/2013  08:02:00       20.815      -81.028       -9.248       36.160       32.097       23.412     1307.574     1030.231      548.100        0.498        0.144       83.659       16.546        0.039      336.628        8.058      856.490
11/20/2013  08:03:00       27.971      -59.822      -15.353       36.482       30.172       25.525     1330.913      910.346      651.533        0.374        0.145       66.038       19.103        0.084      336.704        8.185      856.496
11/20/2013  08:04:00      -27.132      -51.369        8.128       42.208       51.722       38.227     1781.497     2675.119     1461.316        0.468        0.296       58.094       32.822        0.319      336.810        8.363      856.472
11/20/2013  08:05:00      -13.513       -5.156       10.692       21.847       30.014       20.332      477.293      900.839      413.383        0.106        0.090       14.463       14.106        0.951      336.908        8.526      856.482
11/20/2013  08:06:00      -10.497      -14.106        4.402       32.688       37.339       19.500     1068.501     1394.195      380.240        0.159        0.142       17.583       16.377        0.868      336.764        8.286      856.499
11/20/2013  08:07:00        8.022      -49.480        6.516       46.723       56.379       41.789     2183.082     3178.621     1746.336        0.483        0.355       50.126       39.028        0.606      336.935        8.572      856.504
11/20/2013  08:08:00      -32.296       10.356       -0.758       35.245       41.840       26.609     1242.241     1750.623      708.049        0.243        0.185       33.916       15.277        0.203      336.807        8.358      856.487
11/20/2013  08:09:00      -36.841      -24.118       13.259       25.064       34.032       29.390      628.181     1158.165      863.780        0.238        0.133       44.033       23.742        0.291      336.913        8.534      856.471
11/20/2013  08:10:00      -24.646      -37.955        7.667       37.205       30.220       26.552     1384.231      913.232      704.996        0.255        0.150       45.255       14.600        0.104      336.751        8.263      856.456
11/20/2013  08:11:00      -55.948      -23.471       -4.096       23.930       18.033       14.837      572.624      325.191      220.135        0.241        0.056       60.672        6.794        0.013      336.618        8.041      856.445
11/20/2013  08:12:00      -19.627      -78.675       -7.569       16.703       27.760       14.954      278.982      770.619      223.623        0.395        0.064       81.087        9.195        0.013      336.824        8.383      856.441
11/20/2013  08:13:00      -84.914      -94.414        1.430       51.396       35.850       23.683     2641.526     1285.226      560.908        1.031        0.224      126.982       17.177        0.018      336.967        8.622      856.465
11/20/2013  08:14:00      -69.393      -81.062        7.123       60.057       63.098       33.451     3606.903     3981.337     1118.982        1.007        0.435      106.708       32.381        0.092      336.866        8.455      856.477
11/20/2013  08:15:00      -43.374      -60.494        1.710       59.060       42.643       24.480     3488.103     1818.414      599.260        0.572        0.295       74.436       25.930        0.121      336.938        8.575      856.481
11/20/2013  08:16:00      -27.521      -18.388        9.877       47.078       34.583       21.639     2216.377     1195.972      468.241        0.254        0.194       33.099       18.481        0.312      337.038        8.744      856.463
11/20/2013  08:17:00      -24.127       -7.990       10.894       28.248       25.481       21.408      797.976      649.273      458.312        0.133        0.095       25.416       16.833        0.439      337.123        8.885      856.455
11/20/2013  08:18:00     -104.124      -56.576        5.739       50.488       57.015       24.826     2549.062     3250.709      616.335        1.024        0.321      118.502       21.235        0.032      336.905        8.519      856.438
11/20/2013  08:19:00      -56.191      -58.933       -6.379       24.488       22.841       16.106      599.660      521.733      259.397        0.403        0.069       81.428       10.074        0.015      336.881        8.480      856.422
11/20/2013  08:20:00      -35.881      -43.288       -0.343       25.587       27.409       14.662      654.687      751.272      214.977        0.239        0.081       56.225        7.544        0.018      336.934        8.567      856.409
11/20/2013  08:21:00      -37.610      -50.449        1.492       33.392       19.179       20.462     1115.036      367.841      418.678        0.293        0.095       62.926       18.663        0.088      337.053        8.766      856.417
11/20/2013  08:22:00      -57.491      -70.784        1.866       51.784       35.334       26.729     2681.628     1248.520      714.449        0.648        0.232       91.190       26.311        0.083      337.116        8.872      856.443
11/20/2013  08:23:00       -9.580      -48.620       12.638       47.722       47.316       28.733     2277.407     2238.808      825.596        0.398        0.267       49.555       25.245        0.260      337.287        9.158      856.442
11/20/2013  08:24:00      -94.260      -71.978        6.323       51.026       39.659       27.286     2603.629     1572.840      744.502        0.951        0.246      118.599       33.413        0.079      337.178        8.976      856.448
11/20/2013  08:25:00      -74.778      -65.353        8.670       63.581       44.423       36.312     4042.486     1973.379     1318.532        0.863        0.367       99.311       36.755        0.137      337.270        9.130      856.487
11/20/2013  08:26:00      -73.870      -63.108        0.259       74.922       44.946       35.983     5613.321     2020.188     1294.782        0.918        0.446       97.157       40.157        0.171      337.195        9.005      856.501
11/20/2013  08:27:00      -22.797       23.042        5.759       16.448       20.286       25.568      270.531      411.531      653.741        0.121        0.067       32.414       14.732        0.207      337.501        9.518      856.498
11/20/2013  08:28:00       -7.380       13.344       -2.635       17.013       33.140       18.507      289.447     1098.279      342.491        0.098        0.087       15.249       10.881        0.509      337.650        9.767      856.512
11/20/2013  08:29:00      -15.011      -53.402        0.050       32.738       19.927       20.804     1071.750      397.089      432.826        0.249        0.095       55.471       10.853        0.038      337.313        9.202      856.522
11/20/2013  08:30:00      -21.947      -35.340       13.651       51.113       49.287       30.815     2612.501     2429.165      949.539        0.395        0.300       41.600       34.096        0.672      337.442        9.419      856.515
11/20/2013  08:31:00      -42.955      -53.368        4.935       36.631       46.572       22.974     1341.864     2168.975      527.801        0.438        0.202       68.507       17.904        0.068      337.422        9.386      856.491
11/20/2013  08:32:00       13.325       15.142       39.754       36.886       19.136       20.677     1360.613      366.185      427.526        0.207        0.108       20.170       20.284        1.011      338.113       10.544      856.480
11/20/2013  08:33:00       50.328       32.485       36.516       41.429       19.979       29.616     1716.402      399.148      877.127        0.396        0.150       59.901       23.876        0.159      337.499        9.515      856.492
11/20/2013  08:34:00       14.317       48.928       87.457       58.772       65.952       47.576     3454.170     4349.628     2263.521        1.016        0.503       50.980       51.730        1.030      337.857       10.114      856.505
11/20/2013  08:35:00      139.244       91.927       68.562       63.284       72.242       44.150     4004.902     5218.855     1949.266        2.185        0.559      166.851       35.219        0.045      337.235        9.072      856.504
11/20/2013  08:36:00       90.330       42.551       88.725       93.423       88.565       69.899     8727.931     7843.713     4885.938        1.965        1.073       99.850       76.702        0.590      337.397        9.343      856.502
11/20/2013  08:37:00      104.074      108.530      107.530       66.546       81.432       55.405     4428.313     6631.189     3069.708        2.415        0.706      150.367       42.562        0.080      337.190        8.995      856.512
11/20/2013  08:38:00      107.904       80.920       58.282       51.155       45.238       51.548     2616.870     2046.479     2657.212        1.445        0.366      134.875       35.906        0.071      337.135        8.904      856.533
11/20/2013  08:39:00       42.351       14.582       57.198       57.179       48.006       39.533     3269.487     2304.583     1562.868        0.621        0.357       44.791       34.878        0.606      337.651        9.769      856.552
11/20/2013  08:40:00       79.203      -36.501       36.223       62.193      122.229       55.585     3867.955    14939.839     3089.684        1.540        1.095       87.210       72.388        0.689      337.355        9.272      856.546
11/20/2013  08:41:00      142.766       84.042       67.545       63.796       50.483       47.877     4069.979     2548.559     2292.192        2.046        0.446      165.666       40.069        0.058      337.213        9.033      856.554
11/20/2013  08:42:00      128.449       89.024       74.669       76.580       62.185       48.320     5864.469     3866.996     2334.806        2.103        0.603      156.283       36.928        0.056      337.150        8.927      856.545
11/20/2013  08:43:00       51.446       -3.221       50.993       55.748       80.378       45.867     3107.821     6460.696     2103.743        0.846        0.584       51.547       49.192        0.911      337.547        9.596      856.553
11/20/2013  08:44:00       68.664      -55.391       41.564       72.228       89.813       64.833     5216.815     8066.407     4203.260        1.349        0.874       88.221       66.509        0.568      337.529        9.565      856.564
11/20/2013  08:45:00       30.982       55.117       95.717       59.488       87.211       75.090     3538.858     7605.837     5638.496        1.497        0.839       63.227       74.645        1.394      337.517        9.544      856.566
11/20/2013  08:46:00       74.821       81.185      105.889       53.424       89.169       60.212     2854.177     7951.200     3625.451        1.891        0.722      110.405       64.859        0.345      337.281        9.146      856.564
11/20/2013  08:47:00       63.291      -76.788       24.686       83.126      130.488       52.402     6909.897    17027.128     2746.013        1.859        1.334       99.509       74.902        0.567      337.611        9.700      856.562
11/20/2013  08:48:00      135.219     -129.553      -19.170       83.006      134.339       62.665     6889.980    18046.884     3926.948        3.214        1.443      187.265       73.249        0.153      337.394        9.336      856.567
11/20/2013  08:49:00       76.466      -78.411       14.782       74.634      111.904       71.802     5570.246    12522.531     5155.527        1.773        1.162      109.523       85.681        0.612      337.299        9.178      856.601
11/20/2013  08:50:00       43.057     -123.175       -2.009       51.401       68.900       49.086     2642.110     4747.251     2409.427        1.341        0.490      130.484       43.475        0.111      337.315        9.206      856.610
11/20/2013  08:51:00       49.823      -71.717       33.347       51.863       92.091       52.203     2689.724     8480.733     2725.179        1.131        0.695       87.325       59.194        0.459      337.409        9.362      856.607
11/20/2013  08:52:00       28.373       76.467      105.220       69.507       60.596       49.230     4831.218     3671.915     2423.619        1.432        0.546       81.561       46.024        0.318      337.385        9.323      856.609
11/20/2013  08:53:00       34.228      -39.327       44.930       44.691       99.773       47.324     1997.291     9954.750     2239.531        0.946        0.710       52.136       57.708        1.225      337.501        9.518      856.611
11/20/2013  08:54:00       28.146       71.790       99.104       48.932       60.651       34.003     2394.295     3678.571     1156.196        1.150        0.361       77.111       32.653        0.179      337.600        9.683      856.600
11/20/2013  08:55:00       45.340       51.985       59.996       44.968       55.754       30.916     2022.135     3108.551      955.790        0.722        0.304       68.979       28.321        0.169      337.718        9.882      856.585
11/20/2013  08:56:00       51.350      -36.426       14.044       46.520       69.290       50.225     2164.076     4801.045     2522.601        0.682        0.474       62.957       55.216        0.769      337.672        9.806      856.573
11/20/2013  08:57:00       71.331      -63.939       -6.607       26.791       35.710       22.553      717.771     1275.189      508.639        0.586        0.125       95.793       12.098        0.016      337.290        9.164      856.567
11/20/2013  08:58:00       44.311      -54.387       -1.263       37.658       27.422       20.780     1418.135      751.956      431.825        0.376        0.130       70.153       21.802        0.097      337.406        9.359      856.563
11/20/2013  08:59:00       37.046      -53.002       -8.704       16.779       23.885       13.367      281.544      570.491      178.686        0.264        0.052       64.666        9.367        0.021      337.222        9.049      856.558
11/20/2013  09:00:00       26.203       21.577       37.317       25.082       14.152       16.196      629.131      200.280      262.310        0.182        0.055       33.943       11.928        0.123      337.725        9.895      856.564
11/20/2013  09:01:00       21.391       37.222       30.351       13.880       15.249       11.670      192.666      232.527      136.187        0.166        0.028       42.931        6.356        0.022      337.567        9.628      856.549
11/20/2013  09:02:00        7.435       68.690      -10.058       16.972       24.130       21.706      288.048      582.246      471.155        0.311        0.067       69.091       13.913        0.041      337.483        9.486      856.536
11/20/2013  09:03:00       30.791       62.761        5.010       43.890       34.586       26.444     1926.361     1196.178      699.304        0.437        0.191       69.907       22.276        0.102      337.760        9.951      856.509
11/20/2013  09:04:00       54.390       58.270        4.932       25.953       30.185       24.926      673.546      911.145      621.327        0.429        0.110       79.710       19.456        0.060      337.559        9.614      856.507
11/20/2013  09:05:00       44.393       31.826       14.303       23.616       26.824       22.192      557.739      719.518      492.480        0.248        0.088       54.623        7.433        0.019      337.678        9.814      856.505
11/20/2013  09:06:00       16.437       23.844       26.225       24.058       26.147       26.574      578.795      683.656      706.178        0.175        0.098       28.960        9.589        0.110      338.083       10.495      856.507
11/20/2013  09:07:00        7.536       22.769       44.112       19.551       20.036       11.153      382.246      401.442      124.391        0.171        0.045       23.984        9.669        0.163      338.285       10.833      856.505
11/20/2013  09:08:00      -10.014       23.992       34.984       22.680       29.964       20.494      514.361      897.832      419.995        0.187        0.092       25.999       13.931        0.287      338.213       10.711      856.499
11/20/2013  09:09:00       21.043      -80.272       -5.071       66.602       95.716       48.225     4435.889     9161.477     2325.661        1.141        0.796       82.984       64.400        0.602      337.971       10.305      856.487
11/20/2013  09:10:00      109.185      -61.393        4.246       55.262       88.485       59.897     3053.845     7829.617     3587.611        1.509        0.724      125.261       66.519        0.282      337.986       10.331      856.481
11/20/2013  09:11:00      -14.046       21.425       45.344       15.031       31.708       35.344      225.934     1005.414     1249.209        0.260        0.124       25.619       28.356        1.225      338.486       11.170      856.485
11/20/2013  09:12:00      -27.115      -19.904       19.828       31.237       43.828       28.256      975.759     1920.910      798.377        0.261        0.185       33.636       23.390        0.484      338.270       10.808      856.492
11/20/2013  09:13:00       26.775      -40.538       36.309       43.195       67.328       50.382     1865.808     4533.045     2538.348        0.631        0.447       48.582       49.508        1.038      338.232       10.743      856.488
11/20/2013  09:14:00      -38.024       -2.719       22.355       25.393       31.031       21.653      644.828      962.933      468.871        0.201        0.104       38.121       10.583        0.077      338.022       10.392      856.503
11/20/2013  09:15:00      -42.246      -19.096        1.037       33.730       34.526       16.124     1137.694     1192.067      259.980        0.237        0.129       46.362       13.292        0.082      338.034       10.411      856.512
11/20/2013  09:16:00      -48.768      -16.446       -5.852       19.589       38.665       17.937      383.730     1494.995      321.723        0.244        0.110       51.467       12.572        0.060      337.686        9.827      856.503
11/20/2013  09:17:00      -28.650        6.894        8.497       16.460       13.227       13.065      270.925      174.957      170.707        0.078        0.031       29.468        6.638        0.051      337.991       10.340      856.501
11/20/2013  09:18:00      -10.574       -5.817       37.432       40.634       61.723       36.764     1651.126     3809.748     1351.601        0.418        0.341       12.069       27.513        5.197      338.104       10.529      856.501
11/20/2013  09:19:00       53.677       13.081       36.103       46.412       38.629       36.381     2154.080     1492.238     1323.599        0.466        0.248       55.248       28.799        0.272      338.047       10.432      856.491
11/20/2013  09:20:00       21.586      -44.487       23.536       35.119       62.720       37.779     1233.358     3933.843     1427.277        0.480        0.330       49.448       39.739        0.646      338.401       11.028      856.497
11/20/2013  09:21:00       19.405      -68.117        1.713       47.752       71.941       40.453     2280.212     5175.531     1636.465        0.705        0.455       70.827       34.375        0.236      338.147       10.601      856.507
11/20/2013  09:22:00       26.991      -48.652        4.860       35.259       48.668       37.224     1243.164     2368.552     1385.647        0.406        0.250       55.638       33.686        0.367      338.438       11.090      856.519
11/20/2013  09:23:00       77.671     -125.203      -14.763       62.513       71.311       44.344     3907.866     5085.220     1966.387        1.644        0.548      147.339       44.047        0.089      338.044       10.427      856.536
11/20/2013  09:24:00      103.947     -123.143      -15.158       78.624       90.044       45.339     6181.739     8107.922     2055.589        2.127        0.817      161.149       52.610        0.107      338.105       10.527      856.537
11/20/2013  09:25:00       88.934     -136.819       -7.902       57.008       62.966       37.706     3249.928     3964.729     1421.745        1.766        0.432      163.183       38.742        0.056      338.016       10.382      856.544
11/20/2013  09:26:00       54.085     -117.220        8.324       76.605      105.504       52.286     5868.330    11131.115     2733.857        1.823        0.987      129.096       62.118        0.232      338.210       10.705      856.519
11/20/2013  09:27:00       39.266      -75.993        9.919       83.751       74.818       54.595     7014.263     5597.722     2980.574        1.150        0.780       85.538       54.028        0.399      338.218       10.720      856.525
11/20/2013  09:28:00       96.818      -88.249       -9.515       82.705      104.939       61.476     6840.059    11012.109     3779.348        1.944        1.082      131.002       74.676        0.325      338.139       10.586      856.521
11/20/2013  09:29:00       58.090      -57.179        7.794       56.058       68.445       55.486     3142.540     4684.669     3078.669        0.880        0.545       81.510       47.023        0.333      338.083       10.494      856.508
11/20/2013  09:30:00       48.300      -34.977       17.117       58.302       58.915       41.910     3399.073     3470.985     1756.442        0.624        0.431       59.635       38.849        0.424      338.255       10.783      856.508
11/20/2013  09:31:00       60.634       37.508       46.558       42.957       49.692       45.772     1845.323     2469.258     2095.052        0.683        0.320       71.298       43.196        0.367      338.276       10.818      856.496
11/20/2013  09:32:00      123.319       81.862       65.354       79.160       52.214       56.278     6266.233     2726.332     3167.239        1.917        0.608      148.017       45.542        0.095      337.942       10.257      856.468
11/20/2013  09:33:00       77.540      108.165      108.248       78.639       89.015       73.814     6184.052     7923.713     5448.497        2.449        0.978      133.087       69.288        0.271      338.065       10.461      856.453
11/20/2013  09:34:00      106.153      101.104       71.792       85.497       65.231       67.644     7309.799     4255.144     4575.733        2.139        0.807      146.596       53.523        0.133      337.969       10.300      856.437
11/20/2013  09:35:00       29.135       86.608      105.013       49.785       60.343       53.599     2478.577     3641.310     2872.856        1.418        0.450       91.377       47.067        0.265      338.209       10.705      856.431
11/20/2013  09:36:00       32.518      128.096      138.993       70.633       61.656       45.776     4988.953     3801.497     2095.458        2.383        0.544      132.159       44.286        0.112      337.928       10.232      856.430
11/20/2013  09:37:00       40.235      121.120      117.724       60.274       50.336       33.586     3633.014     2533.752     1128.044        1.872        0.365      127.628       33.359        0.068      338.004       10.361      856.440
11/20/2013  09:38:00      -20.037        0.605       32.812       44.234       42.312       40.274     1956.623     1790.298     1622.035        0.342        0.268       20.046       27.956        1.945      338.582       11.331      856.444
11/20/2013  09:39:00       22.020       60.870       90.432       58.364       60.340       49.299     3406.397     3640.973     2430.406        1.092        0.474       64.731       42.114        0.423      338.478       11.156      856.435
11/20/2013  09:40:00       43.665      -29.356       61.222       66.512      101.497       66.272     4423.795    10301.558     4391.983        1.281        0.956       52.615       75.833        2.077      338.504       11.199      856.431
11/20/2013  09:41:00       -0.235       62.455       96.473       35.503       48.434       29.113     1260.464     2345.813      847.572        0.883        0.223       62.455       25.217        0.163      338.718       11.559      856.433
11/20/2013  09:42:00       44.083       20.220       75.502       49.602       91.086       45.591     2460.336     8296.641     2078.583        1.044        0.642       48.499       50.329        1.077      338.589       11.344      856.451
11/20/2013  09:43:00       85.343      -95.362        0.632       53.983       65.735       40.313     2914.198     4321.029     1625.146        1.262        0.443      127.974       42.732        0.111      338.270       10.808      856.469
11/20/2013  09:44:00       16.952      -14.597       38.734       55.463       75.147       58.154     3076.119     5647.090     3381.905        0.705        0.605       22.371       61.010        7.438      338.542       11.266      856.491
11/20/2013  09:45:00       45.151       26.367       91.761       75.570      101.510       69.168     5710.854    10304.328     4784.263        1.597        1.040       52.286       74.812        2.047      338.333       10.912      856.511
11/20/2013  09:46:00       36.985      101.713      116.151       57.610       81.115       60.277     3318.918     6579.570     3633.300        1.937        0.677      108.228       61.469        0.323      338.380       10.991      856.545
11/20/2013  09:47:00       18.160       34.039       69.077       41.529       78.104       78.712     1724.644     6100.267     6195.554        1.014        0.701       38.580       75.406        3.820      338.375       10.983      856.568
11/20/2013  09:48:00       34.997      143.092      129.537       67.616       68.276       67.612     4571.942     4661.644     4571.391        2.614        0.690      147.309       64.363        0.191      338.067       10.465      856.590
11/20/2013  09:49:00       25.549       38.556       82.154       45.766       62.712       39.333     2094.545     3932.749     1547.110        0.823        0.379       46.253       41.244        0.795      338.268       10.805      856.627
11/20/2013  09:50:00       69.519      -38.412       28.601       44.866       69.670       37.473     2012.963     4853.928     1404.208        0.770        0.414       79.426       40.761        0.263      338.135       10.582      856.656
11/20/2013  09:51:00      109.285     -107.932        5.392       69.454       68.780       42.446     4823.868     4730.678     1801.630        1.749        0.568      153.598       19.875        0.017      338.085       10.495      856.692
11/20/2013  09:52:00      146.655      -72.848       21.052       51.629       62.637       42.117     2665.560     3923.413     1773.827        1.781        0.418      163.751       45.597        0.078      338.050       10.437      856.711
11/20/2013  09:53:00       11.280       10.586       40.123       54.901       40.591       33.663     3014.156     1647.601     1133.166        0.382        0.290       15.470       36.074        5.438      338.439       11.091      856.719
11/20/2013  09:54:00        9.816      -47.037       16.378       23.113       61.699       31.854      534.198     3806.723     1014.669        0.397        0.268       48.051       40.230        0.701      338.388       11.005      856.752
11/20/2013  09:55:00      -33.437      -37.448       -4.144       33.572       44.806       22.253     1127.102     2007.560      495.200        0.308        0.181       50.204       22.400        0.199      338.112       10.542      856.761
11/20/2013  09:56:00      -42.759      -78.671       13.948       66.408       51.884       32.003     4410.083     2691.975     1024.169        0.817        0.406       89.540       26.799        0.090      338.332       10.911      856.774
11/20/2013  09:57:00     -149.557     -104.034       -9.155       58.200       53.325       45.347     3387.193     2843.511     2056.313        2.078        0.414      182.182       42.102        0.053      337.955       10.277      856.776
11/20/2013  09:58:00     -107.830      -43.237        8.883       56.318       42.368       24.855     3171.704     1795.042      617.784        0.958        0.279      116.175       28.669        0.061      338.015       10.379      856.766
11/20/2013  09:59:00      -14.835       -6.690        2.212       35.249       32.531       20.210     1242.502     1058.266      408.439        0.149        0.135       16.274       19.698        1.465      338.381       10.995      856.755
11/20/2013  10:00:00        9.957       15.749       26.303       41.865       34.681       34.979     1752.715     1202.797     1223.520        0.261        0.209       18.633       31.261        2.815      338.509       11.209      856.747
11/20/2013  10:01:00       22.771       48.608       52.570       29.241       29.722       28.209      855.051      883.375      795.730        0.409        0.127       53.677       21.723        0.164      338.380       10.993      856.739
11/20/2013  10:02:00       -4.854       19.877       46.024       22.666       31.597       28.546      513.760      998.391      814.896        0.243        0.116       20.461       19.510        0.909      338.784       11.670      856.749
11/20/2013  10:03:00      -25.795      -53.397       -2.392       21.859       34.703       17.603      477.800     1204.320      309.874        0.276        0.100       59.302       12.873        0.047      338.470       11.142      856.770
11/20/2013  10:04:00      -41.947      -42.175      -10.067       33.522       33.691       16.082     1123.718     1135.084      258.628        0.308        0.126       59.483       10.053        0.029      338.382       10.996      856.785
11/20/2013  10:05:00      -26.220      -33.793        4.549       23.835       41.390       21.798      568.091     1713.126      475.144        0.230        0.138       42.772       20.195        0.223      338.519       11.225      856.783
11/20/2013  10:06:00       -6.747       19.325       50.710       16.958       35.133       25.949      287.569     1234.304      673.351        0.259        0.110       20.469       26.460        1.671      338.752       11.617      856.770
11/20/2013  10:07:00      -23.695      -66.218       -3.380       31.990       44.262       28.215     1023.379     1959.129      796.087        0.437        0.189       70.329       24.746        0.124      338.521       11.228      856.767
11/20/2013  10:08:00       13.761       -3.527       43.102       62.012       68.776       54.054     3845.456     4730.120     2921.805        0.678        0.575       14.206       63.415       19.927      338.650       11.447      856.757
11/20/2013  10:09:00       20.953       69.138       93.446       44.839       55.317       35.618     2010.505     3060.014     1268.637        1.014        0.317       72.243       35.539        0.242      338.503       11.200      856.722
11/20/2013  10:10:00       -1.311        0.903       29.547       27.230       42.540       27.368      741.482     1809.623      749.034        0.209        0.165        1.592       19.763      154.130      338.908       11.880      856.704
11/20/2013  10:11:00       36.707      102.165       85.259       48.937       67.815       38.721     2394.823     4598.893     1499.323        1.377        0.425      108.559       27.979        0.066      338.748       11.609      856.639
11/20/2013  10:12:00       19.228       22.410       50.960       44.760       70.727       38.320     2003.475     5002.320     1468.444        0.597        0.424       29.528       28.956        0.962      338.873       11.820      856.577
11/20/2013  10:13:00      -49.554       -2.496        6.175       61.520       53.689       33.002     3784.724     2882.525     1089.131        0.513        0.388       49.617       22.263        0.201      338.932       11.918      856.543
11/20/2013  10:14:00      -11.091      -60.282        6.374       53.683       40.530       27.429     2881.858     1642.658      752.337        0.454        0.264       61.294       13.101        0.046      338.804       11.706      856.569
11/20/2013  10:15:00      -75.848      -22.950        5.798       38.393       35.704       21.357     1474.059     1274.773      456.115        0.476        0.160       79.244       21.290        0.072      338.448       11.107      856.542
11/20/2013  10:16:00       -9.551       -9.553       19.917       34.005       35.977       27.066     1156.374     1294.378      732.595        0.188        0.159       13.509       20.892        2.392      338.846       11.776      856.521
11/20/2013  10:17:00       21.761      -24.081       30.932       46.090      114.111       62.021     2124.260    13021.348     3846.599        1.050        0.950       32.456       64.925        4.001      339.074       12.159      856.489
11/20/2013  10:18:00       -7.821       43.150       74.485       45.392       53.784       43.629     2060.453     2892.731     1903.475        0.716        0.343       43.853       49.049        1.251      338.592       11.349      856.500
11/20/2013  10:19:00     -167.924       -2.846      -29.777       74.470       94.869       29.147     5545.779     9000.157      849.527        2.224        0.770      167.948       24.425        0.021      338.411       11.043      856.514
11/20/2013  10:20:00       -9.469      -17.361       14.086       47.297       37.961       30.901     2236.960     1441.032      954.865        0.261        0.232       19.775       19.183        0.941      338.574       11.319      856.495
11/20/2013  10:21:00      -30.902        6.458      -17.142       49.525       55.813       18.691     2452.681     3115.073      349.372        0.360        0.296       31.570       20.144        0.407      338.487       11.171      856.455
11/20/2013  10:22:00      -48.753      -52.339      -11.191       44.897       31.782       22.391     2015.712     1010.068      501.343        0.438        0.176       71.528        6.424        0.008      338.533       11.248      856.447
11/20/2013  10:23:00        4.262     -111.556      -23.152       68.891       50.424       38.312     4746.028     2542.617     1467.779        1.088        0.438      111.638       35.882        0.103      338.595       11.353      856.459
11/20/2013  10:24:00       11.183       -1.636       43.260       26.180       51.486       34.813      685.370     2650.856     1211.940        0.327        0.227       11.302       32.621        8.331      338.992       12.021      856.439
11/20/2013  10:25:00      -74.300       23.987       21.330       47.500       49.045       50.235     2256.250     2405.447     2523.572        0.687        0.359       78.076       35.098        0.202      338.888       11.845      856.416
11/20/2013  10:26:00      -55.159       12.701        0.344       36.422       32.851       21.072     1326.595     1079.201      444.018        0.303        0.142       56.602       22.301        0.155      338.807       11.710      856.413
11/20/2013  10:27:00       -5.179       -3.359       28.278       19.477       26.784       18.492      379.335      717.377      341.952        0.114        0.072        6.173       17.328        7.880      339.397       12.702      856.391
11/20/2013  10:28:00      -15.636       29.381       50.249       27.704       41.030       42.036      767.513     1683.470     1767.054        0.392        0.211       33.282       30.512        0.840      339.472       12.829      856.361
11/20/2013  10:29:00       13.500       22.633       73.700       44.198       48.506       32.954     1953.501     2352.875     1085.986        0.576        0.270       26.353       35.265        1.791      339.255       12.464      856.351
11/20/2013  10:30:00      -38.513      -63.348        8.511       46.220       75.734       27.592     2136.252     5735.682      761.300        0.710        0.432       74.136       32.823        0.196      338.902       11.870      856.317
11/20/2013  10:31:00        1.399      -38.411       21.183       65.465       58.408       48.761     4285.645     3411.508     2377.623        0.600        0.504       38.436       41.629        1.173      339.048       12.115      856.297
11/20/2013  10:32:00      -68.242      -80.882       -3.456       62.467       38.056       22.556     3902.080     1448.292      508.762        0.853        0.293      105.824       20.192        0.036      338.709       11.545      856.276
11/20/2013  10:33:00      -70.414      -48.637        9.182       60.839       42.368       31.764     3701.434     1795.038     1008.945        0.696        0.325       85.579       32.489        0.144      338.904       11.872      856.260
11/20/2013  10:34:00     -120.450     -244.296      -10.407       50.299       66.306       41.299     2529.942     4396.528     1705.598        4.146        0.432      272.376       31.665        0.014      338.493       11.178      856.270
11/20/2013  10:35:00     -144.432     -168.419        3.448      130.246       96.670       43.750    16964.064     9345.139     1914.024        3.872        1.411      221.868       41.689        0.035      338.547       11.269      856.258
11/20/2013  10:36:00     -130.787      -51.061       -0.843      104.353       74.976       37.889    10889.483     5621.436     1435.593        1.883        0.897      140.401       46.133        0.108      338.438       11.087      856.219
11/20/2013  10:37:00      -94.289       44.668      -14.025       77.346       72.900       30.180     5982.362     5314.349      910.846        1.164        0.610      104.334       40.661        0.152      338.587       11.339      856.180
11/20/2013  10:38:00      -64.052       -3.557        8.129       49.328       47.342       33.139     2433.269     2241.244     1098.211        0.498        0.289       64.151       21.109        0.108      338.827       11.744      856.160
11/20/2013  10:39:00      -28.949      -26.086        5.604       59.444       47.710       28.876     3533.585     2276.279      833.820        0.410        0.332       38.968       22.921        0.346      339.032       12.087      856.124
11/20/2013  10:40:00      -78.439      -38.839       -7.939       54.844       57.080       33.469     3007.839     3258.149     1120.189        0.755        0.369       87.528       23.714        0.073      338.715       11.556      856.117
11/20/2013  10:41:00      -36.053       -4.843      -16.128       45.217       12.053       15.240     2044.534      145.269      232.263        0.200        0.121       36.377       17.646        0.235      338.876       11.826      856.101
11/20/2013  10:42:00     -103.689      -71.697      -10.694       56.052       37.970       25.842     3141.784     1441.685      667.818        1.063        0.263      126.063       23.421        0.035      338.829       11.746      856.098
11/20/2013  10:43:00     -120.270     -159.798        1.309      108.086       83.431       49.402    11682.614     6960.716     2440.516        3.054        1.054      200.001       53.262        0.071      338.834       11.754      856.109
11/20/2013  10:44:00     -286.204     -185.913      -11.079      143.031      128.680       76.188    20457.931    16558.573     5804.663        7.970        2.141      341.286       69.302        0.041      338.730       11.577      856.087
11/20/2013  10:45:00     -264.991     -195.805       -8.642      161.067      124.964       77.290    25942.666    15616.082     5973.729        7.807        2.377      329.484       85.530        0.067      338.631       11.410      856.085
11/20/2013  10:46:00     -305.891     -224.382        6.436      152.440      102.458       77.898    23237.905    10497.723     6068.163        9.187        1.990      379.363       88.332        0.054      338.672       11.480      856.063
11/20/2013  10:47:00     -189.644     -112.334        1.019      108.990       85.488       53.125    11878.761     7308.180     2822.222        3.529        1.100      220.417       53.750        0.059      338.807       11.707      856.053
11/20/2013  10:48:00      -50.063      -33.143       15.261       84.793       81.152       45.693     7189.808     6585.722     2087.840        0.985        0.793       60.040       50.660        0.712      339.170       12.319      856.054
11/20/2013  10:49:00     -411.800      -52.139      -21.498      180.717      120.919       73.435    32658.524    14621.515     5392.676       11.271        2.634      415.088       91.550        0.049      338.831       11.746      856.024
11/20/2013  10:50:00     -383.635     -113.765      -15.722      148.201       90.628       58.470    21963.446     8213.392     3418.755        9.697        1.680      400.148       58.315        0.021      338.846       11.773      856.048
11/20/2013  10:51:00     -327.637      -89.744       -4.801      149.192      131.643       68.687    22258.117    17329.758     4717.924        7.986        2.215      339.706       67.736        0.040      338.842       11.766      856.051
11/20/2013  10:52:00     -350.809      -76.098       -6.769      124.729       89.464       54.559    15557.389     8003.825     2976.728        7.772        1.327      358.968       56.483        0.025      338.835       11.751      856.056
11/20/2013  10:53:00     -194.471     -131.431       -4.867      127.193      103.746       61.717    16178.035    10763.194     3808.966        4.293        1.538      234.719       70.391        0.090      339.021       12.066      856.054
11/20/2013  10:54:00     -391.570     -133.737      -15.450      169.926      112.270       64.805    28874.882    12604.477     4199.701       10.856        2.284      413.779       65.602        0.025      338.817       11.725      856.034
11/20/2013  10:55:00     -446.585     -114.426      -14.988      121.355      123.618       66.580    14726.987    15281.451     4432.851       12.359        1.722      461.011       56.407        0.015      338.779       11.659      856.000
11/20/2013  10:56:00     -367.805     -116.639        1.249      164.430      129.526       75.741    27037.096    16777.101     5736.671        9.921        2.478      385.857       84.759        0.048      338.926       11.906      855.971
11/20/2013  10:57:00     -304.770      -81.538      -14.519      115.394       98.090       53.768    13315.798     9621.595     2891.001        6.278        1.291      315.489       56.270        0.032      338.868       11.808      855.958
11/20/2013  10:58:00     -285.678     -127.537      -14.481      152.063      149.876       67.904    23123.282    22462.772     4610.922        7.413        2.510      312.853       69.562        0.049      338.913       11.883      855.934
11/20/2013  10:59:00     -188.126      -98.220       -2.979      129.380       78.577       64.983    16739.302     6174.404     4222.760        3.609        1.357      212.223       76.551        0.130      339.053       12.119      855.927
11/20/2013  11:00:00     -135.704      -82.899        4.949      102.526       75.347       57.173    10511.634     5677.225     3268.760        2.238        0.973      159.022       55.306        0.121      339.156       12.295      855.913
11/20/2013  11:01:00     -171.812     -148.681       -5.453      123.103       95.217       49.086    15154.459     9066.309     2409.464        3.914        1.332      227.212       43.591        0.037      339.090       12.182      855.903
11/20/2013  11:02:00     -179.575     -143.386       -4.811       73.394       75.702       36.624     5386.609     5730.738     1341.314        3.264        0.623      229.797       28.530        0.015      339.126       12.244      855.878
11/20/2013  11:03:00     -103.047     -104.609       17.825      116.741      102.916       69.338    13628.377    10591.727     4807.753        2.545        1.451      146.839       64.430        0.193      339.309       12.553      855.862
11/20/2013  11:04:00     -205.767       -7.214       -2.494      167.428       76.878       56.088    28032.133     5910.157     3145.897        3.974        1.854      205.893       60.860        0.087      339.352       12.624      855.810
11/20/2013  11:05:00     -362.053      -88.508      -15.373      157.211      137.736       73.280    24715.349    18971.267     5370.015        9.409        2.453      372.714       77.748        0.044      339.162       12.304      855.765
11/20/2013  11:06:00     -348.231       29.187      -24.290      164.678      122.440       63.864    27118.898    14991.655     4078.617        8.444        2.309      349.452       78.457        0.050      339.035       12.090      855.763
11/20/2013  11:07:00     -412.527     -170.168       11.115      173.631      112.385       70.633    30147.876    12630.377     4988.968       12.350        2.388      446.246       75.324        0.028      338.951       11.949      855.733
11/20/2013  11:08:00     -341.201      -47.705      -10.642      179.581      134.221       61.517    32249.403    18015.149     3784.322        8.642        2.702      344.519       81.849        0.056      338.990       12.014      855.742
11/20/2013  11:09:00     -371.852     -106.396      -22.443      124.437      114.264       62.695    15484.548    13056.158     3930.603        9.128        1.624      386.774       63.326        0.027      338.999       12.030      855.732
11/20/2013  11:10:00      -78.568      -95.494       17.649      127.143      114.376       73.638    16165.226    13081.960     5422.554        2.513        1.733      123.661       84.106        0.463      339.349       12.620      855.725
11/20/2013  11:11:00     -116.706      -61.433       -4.676      153.204       89.042       61.559    23471.499     7928.492     3789.473        2.630        1.759      131.887       70.034        0.282      339.268       12.483      855.714
11/20/2013  11:12:00     -271.981     -134.545      -18.195      128.125      101.884       63.714    16416.014    10380.451     4059.482        6.163        1.543      303.441       56.906        0.035      339.123       12.238      855.729
11/20/2013  11:13:00     -369.958     -257.378      -15.917      188.208      127.536       79.228    35422.289    16265.521     6277.096       13.065        2.898      450.679       97.371        0.047      338.913       11.886      855.706
11/20/2013  11:14:00     -346.258     -124.568      -20.713      185.495      140.440       81.555    34408.231    19723.492     6651.295        9.830        3.039      367.984       94.264        0.066      339.028       12.080      855.681
11/20/2013  11:15:00     -441.372     -202.162       -6.316      138.480      124.781       81.209    19176.704    15570.271     6594.941       13.852        2.067      485.467       63.084        0.017      338.949       11.945      855.653
11/20/2013  11:16:00     -456.926     -175.055      -21.212      146.903      159.041       68.622    21580.578    25293.915     4708.930       14.572        2.579      489.312       62.162        0.016      338.934       11.919      855.615
11/20/2013  11:17:00     -286.368     -138.820        0.207      217.918      153.877       67.926    47488.423    23677.999     4613.900        8.851        3.789      318.241       97.288        0.093      339.253       12.459      855.614
11/20/2013  11:18:00     -224.474      -67.567       -5.384      118.627      115.951       58.991    14072.445    13444.523     3479.953        4.298        1.550      234.423       58.728        0.063      339.327       12.582      855.591
11/20/2013  11:19:00     -274.625     -182.728        1.862      188.684      137.803       80.190    35601.557    18989.632     6430.405        8.490        3.051      329.861       95.791        0.084      339.166       12.310      855.559
11/20/2013  11:20:00     -288.447     -148.798      -13.771      137.859      110.804       61.529    19005.092    12277.437     3785.865        7.029        1.753      324.565       60.492        0.035      339.098       12.196      855.506
11/20/2013  11:21:00     -290.517     -177.913       -3.610      171.050      116.289       75.575    29258.185    13523.231     5711.562        8.227        2.425      340.666       83.319        0.060      339.142       12.270      855.481
11/20/2013  11:22:00     -425.404     -140.951      -24.546      146.412      131.355       81.840    21436.525    17254.113     6697.764       12.340        2.269      448.147       80.653        0.032      338.989       12.012      855.437
11/20/2013  11:23:00     -168.158     -133.413       -0.922      125.506       93.666       62.471    15751.846     8773.288     3902.576        3.725        1.421      214.654       58.048        0.073      339.086       12.177      855.433
11/20/2013  11:24:00     -289.399     -211.704       -0.601      143.265      115.314       67.829    20524.897    13297.220     4600.732        8.349        1.921      358.567       77.593        0.047      338.836       11.756      855.406
11/20/2013  11:25:00     -335.586     -245.125       -0.496      168.746       92.663       80.689    28475.237     8586.443     6510.731       10.813        2.179      415.577       86.105        0.043      338.877       11.823      855.375
11/20/2013  11:26:00     -308.289     -201.084       -0.958      143.321      109.243       69.754    20540.788    11934.067     4865.623        8.640        1.867      368.072       63.806        0.030      338.947       11.942      855.354
11/20/2013  11:27:00     -260.713     -229.133       -2.304      141.101      115.537       81.895    19909.472    13348.804     6706.791        8.021        1.998      347.093       81.008        0.054      338.917       11.892      855.344
11/20/2013  11:28:00     -321.813     -136.944       -1.583      175.499      106.814       69.091    30799.918    11409.147     4773.602        8.464        2.349      349.739       77.340        0.049      338.981       11.999      855.322
11/20/2013  11:29:00     -258.006     -188.876       -5.965      145.693       90.587       70.490    21226.351     8205.921     4968.894        6.833        1.720      319.752       78.389        0.060      338.991       12.017      855.315
11/20/2013  11:30:00     -225.576     -120.762        0.934      158.324       80.184       54.057    25066.611     6429.448     2922.198        4.994        1.721      255.867       69.178        0.073      339.100       12.200      855.315
11/20/2013  11:31:00     -257.970     -204.352       -6.246       88.376       76.633       50.372     7810.290     5872.660     2537.375        6.228        0.811      329.102       54.613        0.028      338.934       11.921      855.303
11/20/2013  11:32:00     -241.930     -128.374       -8.870      115.081      112.108       65.959    13243.603    12568.229     4350.561        5.262        1.508      273.879       68.104        0.062      339.090       12.182      855.277
11/20/2013  11:33:00     -326.719      -98.481      -23.461      121.986       93.901       54.477    14880.670     8817.328     2967.769        7.182        1.333      341.238       57.296        0.028      339.024       12.071      855.256
11/20/2013  11:34:00     -231.602      -58.130       -5.531      150.580       99.611       58.227    22674.220     9922.424     3390.386        4.651        1.799      238.786       71.546        0.090      339.183       12.340      855.231
11/20/2013  11:35:00     -266.019     -201.224       -8.557      140.708      100.973       65.162    19798.714    10195.591     4246.105        7.278        1.712      333.553       71.725        0.046      338.930       11.913      855.229
11/20/2013  11:36:00     -240.651     -209.608       -5.671      103.348       84.329       53.397    10680.753     7111.453     2851.190        6.126        1.032      319.137       49.767        0.024      338.964       11.971      855.225
11/20/2013  11:37:00     -135.637      -95.190        5.345       94.105       72.703       45.349     8855.689     5285.710     2056.568        2.184        0.810      165.706       47.707        0.083      339.144       12.275      855.216
11/20/2013  11:38:00     -157.196     -136.069        9.485      138.916      107.208       52.134    19297.517    11493.512     2717.984        3.841        1.675      207.907       57.824        0.077      339.236       12.429      855.216
11/20/2013  11:39:00     -189.450     -143.276      -22.791       93.619       77.715       44.540     8764.564     6039.576     1983.813        3.686        0.839      237.527       53.054        0.050      339.079       12.165      855.195
11/20/2013  11:40:00     -198.314     -257.469      -14.702      114.074      114.131       54.799    13012.793    13025.939     3002.926        6.743        1.452      324.990       51.593        0.025      339.079       12.163      855.183
11/20/2013  11:41:00     -219.560     -252.642      -13.327      134.717      105.137       52.115    18148.572    11053.825     2715.999        7.206        1.596      334.716       50.095        0.022      338.970       11.980      855.176
11/20/2013  11:42:00     -162.885     -200.681       -8.704      117.045      102.278       64.732    13699.433    10460.878     4190.170        4.761        1.418      258.466       57.035        0.049      338.991       12.016      855.164
11/20/2013  11:43:00     -124.803     -103.093       -1.541       93.925       67.763       46.737     8821.877     4591.780     2184.371        2.090        0.780      161.877       45.943        0.081      339.205       12.378      855.165
11/20/2013  11:44:00      -97.427     -155.054        5.878      112.354       64.091       56.386    12623.314     4107.648     3179.388        2.674        0.996      183.122       46.496        0.064      339.271       12.487      855.160
11/20/2013  11:45:00     -257.532     -206.005        6.316      143.363      123.180       78.178    20553.074    15173.202     6111.870        7.531        2.092      329.789       78.435        0.057      339.109       12.214      855.144
11/20/2013  11:46:00     -199.680     -145.889        3.438      121.265      105.183       58.903    14705.218    11063.559     3469.569        4.520        1.462      247.297       63.366        0.066      339.097       12.195      855.135
11/20/2013  11:47:00     -178.048     -174.751       21.046      154.021       87.066       65.157    23722.418     7580.504     4245.403        4.911        1.777      249.477       67.184        0.073      339.207       12.379      855.125
11/20/2013  11:48:00     -267.447     -102.984      -12.511       95.169       71.000       51.405     9057.153     5040.980     2642.492        4.951        0.837      286.590       40.082        0.020      339.128       12.245      855.122
11/20/2013  11:49:00     -189.751      -84.116        9.927      109.253       80.609       53.234    11936.290     6497.837     2833.864        3.222        1.063      207.559       57.342        0.076      339.246       12.443      855.132
11/20/2013  11:50:00     -182.522      -84.654       -9.311       82.548       61.277       36.558     6814.221     3754.869     1336.484        2.623        0.595      201.198       34.769        0.030      339.189       12.348      855.138
11/20/2013  11:51:00     -254.959      -37.611       -2.766       96.850       97.030       54.780     9379.945     9414.751     3000.795        4.411        1.090      257.718       48.678        0.036      339.134       12.256      855.132
11/20/2013  11:52:00     -210.369     -142.178      -18.600       99.041       83.172       48.108     9809.177     6917.527     2314.382        4.192        0.952      253.909       27.243        0.012      339.214       12.391      855.136
11/20/2013  11:53:00     -151.510     -135.251       12.643      120.116       93.453       55.850    14427.901     8733.510     3119.250        3.384        1.314      203.096       61.129        0.091      339.236       12.428      855.142
11/20/2013  11:54:00     -125.902     -136.058        8.106      126.645       80.681       63.051    16039.044     6509.498     3975.415        3.047        1.326      185.373       65.317        0.124      339.206       12.378      855.143
11/20/2013  11:55:00     -178.446     -165.140       12.623      162.434      135.350       78.397    26384.668    18319.631     6146.036        5.505        2.543      243.134       93.879        0.149      339.082       12.169      855.130
11/20/2013  11:56:00     -244.846      -79.969      -18.892      136.933      132.708       50.095    18750.692    17611.379     2509.460        5.278        1.944      257.574       48.933        0.036      339.053       12.120      855.129
11/20/2013  11:57:00     -270.629     -140.438        6.602      180.082      136.548       81.768    32429.562    18645.329     6686.053        7.537        2.888      304.898       95.695        0.099      339.091       12.184      855.108
11/20/2013  11:58:00     -159.836      -54.799       -9.271      133.172      114.105       65.696    17734.680    13019.854     4315.925        3.185        1.754      168.969       73.670        0.190      339.039       12.098      855.109
11/20/2013  11:59:00     -192.302      -52.271        4.576       90.907       64.320       45.053     8264.112     4137.001     2029.764        2.708        0.722      199.280       45.396        0.052      339.076       12.160      855.079
11/20/2013  12:00:00     -353.876     -124.470      -21.755      133.192      101.158       49.413    17740.022    10232.957     2441.692        8.580        1.521      375.128       58.211        0.024      338.962       11.967      855.080
11/20/2013  12:01:00     -216.945      -92.134        0.119      123.103      114.069       64.102    15154.235    13011.631     4109.095        4.391        1.614      235.698       71.821        0.093      339.002       12.034      855.063
11/20/2013  12:02:00     -309.850      -62.344      -16.658      110.914       86.322       43.752    12301.938     7451.427     1914.256        6.092        1.083      316.060       52.594        0.028      339.077       12.158      855.061
11/20/2013  12:03:00     -160.484     -102.935       -4.625      126.039      111.311       49.779    15885.718    12390.131     2477.939        3.356        1.538      190.659       60.564        0.101      339.090       12.183      855.067
11/20/2013  12:04:00     -159.068      -40.892        7.384      102.570       74.360       43.558    10520.700     5529.404     1897.296        2.248        0.897      164.240       45.006        0.075      339.304       12.542      855.057
11/20/2013  12:05:00     -313.289      -26.803      -17.939      127.500       78.130       47.465    16256.246     6104.370     2252.902        6.190        1.231      314.433       56.152        0.032      339.049       12.114      855.064
11/20/2013  12:06:00     -310.488      -64.411      -10.267      115.038       69.865       45.066    13233.661     4881.127     2030.956        6.040        1.007      317.099       48.756        0.024      339.032       12.085      855.045
11/20/2013  12:07:00     -317.722      -66.516      -13.134      121.488       85.426       55.763    14759.327     7297.581     3109.559        6.535        1.258      324.610       60.114        0.034      339.123       12.238      855.041
11/20/2013  12:08:00     -248.227     -196.384       -4.443      115.671       90.103       64.845    13379.737     8118.554     4204.900        6.295        1.285      316.518       55.890        0.031      339.149       12.283      855.044
11/20/2013  12:09:00     -194.102      -86.746       16.615      190.163      125.519       73.838    36161.963    15755.002     5451.992        5.141        2.868      212.604       82.832        0.152      339.034       12.088      855.041
11/20/2013  12:10:00     -231.948     -103.558       -1.396      149.315      107.830       60.535    22294.977    11627.270     3664.479        5.105        1.879      254.016       69.635        0.075      338.992       12.017      855.041
11/20/2013  12:11:00     -205.936     -153.336        1.060      163.162      117.167       66.842    26621.892    13728.072     4467.819        5.536        2.241      256.752       71.210        0.077      339.070       12.148      855.032
11/20/2013  12:12:00     -248.721     -188.172       -3.976      187.187      106.736       80.907    35038.919    11392.484     6545.970        7.512        2.649      311.883       90.786        0.085      339.007       12.043      855.045
11/20/2013  12:13:00     -178.553     -143.547       12.088      119.920       68.069       62.651    14380.866     4633.394     3925.096        3.778        1.147      229.100       63.219        0.076      338.948       11.944      855.027
11/20/2013  12:14:00     -179.335     -150.401       -4.053       98.506       70.762       48.509     9703.519     5007.290     2353.079        3.593        0.853      234.055       47.900        0.042      339.020       12.066      855.012
11/20/2013  12:15:00     -186.885     -138.056        4.596       83.686       77.067       49.630     7003.296     5939.297     2463.136        3.470        0.770      232.348       43.843        0.036      338.926       11.906      855.008
11/20/2013  12:16:00     -153.099     -119.364       -2.006      125.797       62.640       40.874    15824.817     3923.825     1670.662        2.955        1.071      194.132       41.996        0.047      338.954       11.954      855.004
11/20/2013  12:17:00     -169.284     -161.339        5.024      102.127       76.548       57.795    10429.834     5859.624     3340.222        3.717        0.981      233.853       56.855        0.059      339.026       12.075      855.006
11/20/2013  12:18:00     -149.226     -104.796       -3.907       99.997       67.876       54.225     9999.430     4607.093     2940.361        2.540        0.877      182.347       57.275        0.099      339.045       12.109      855.012
11/20/2013  12:19:00     -212.668      -34.032       -3.643       84.158       84.068       45.194     7082.493     7067.482     2042.498        3.129        0.810      215.374       33.886        0.025      339.111       12.217      855.016
11/20/2013  12:20:00     -239.793     -185.183       10.148      177.015      162.018       86.708    31334.292    26249.683     7518.245        7.849        3.255      302.974      100.974        0.111      339.040       12.099      855.037
11/20/2013  12:21:00     -159.795      -51.779        3.019      125.341      100.413       65.143    15710.361    10082.791     4243.639        2.912        1.502      167.975       56.657        0.114      339.005       12.041      855.022
11/20/2013  12:22:00     -233.907     -149.456       -2.953      169.436      120.669       75.261    28708.465    14561.100     5664.181        6.299        2.447      277.578       92.079        0.110      338.955       11.956      855.028
11/20/2013  12:23:00     -233.213     -110.246        6.158      121.228      106.132       67.352    14696.313    11263.902     4536.227        4.853        1.525      257.958       67.752        0.069      338.931       11.915      855.029
11/20/2013  12:24:00     -298.480     -149.772       -3.142      186.476      132.561       76.861    34773.326    17572.396     5907.547        8.488        2.913      333.949       79.516        0.057      338.926       11.907      855.000
11/20/2013  12:25:00     -321.402     -208.612       -8.442      197.422      126.538       66.456    38975.423    16011.769     4416.450       10.313        2.970      383.168       91.105        0.057      338.922       11.900      855.012
11/20/2013  12:26:00     -299.108     -109.974        4.123      229.457      170.334       89.325    52650.429    29013.628     7978.906        9.559        4.482      318.684      103.786        0.106      338.854       11.785      854.996
11/20/2013  12:27:00     -366.032     -169.935      -14.409      163.753      110.562       68.017    26814.989    12224.060     4626.249       10.336        2.183      403.556       68.383        0.029      338.773       11.650      855.009
11/20/2013  12:28:00     -255.662     -185.650       -3.732      216.017      142.881       83.910    46663.245    20414.949     7040.822        8.697        3.706      315.958      102.970        0.106      338.769       11.643      854.992
11/20/2013  12:29:00     -188.974      -64.441       11.352      142.480      136.370       64.887    20300.474    18596.784     4210.378        4.154        2.155      199.659       65.789        0.109      338.809       11.712      855.047
11/20/2013  12:30:00     -342.423     -157.500       -3.640      188.848      130.964       70.367    35663.613    17151.518     4951.561        9.991        2.888      376.908       83.996        0.050      338.665       11.467      855.054
11/20/2013  12:31:00     -311.222     -208.011       -6.718      141.104      145.413       80.682    19910.358    21144.998     6509.608        9.386        2.378      374.336       69.312        0.034      338.601       11.360      855.061
11/20/2013  12:32:00     -281.663     -282.131        1.406      184.606      182.694       90.826    34079.297    33377.003     8249.353       11.730        3.785      398.663      102.748        0.066      338.586       11.336      855.064
11/20/2013  12:33:00     -248.377     -205.252        1.500      148.269      127.348       75.826    21983.768    16217.585     5749.542        7.388        2.198      322.210       68.602        0.045      338.662       11.464      855.087
11/20/2013  12:34:00     -441.371     -264.723       -7.729      230.472      228.684      106.613    53117.404    52296.190    11366.433       19.084        5.839      514.672      123.889        0.058      338.435       11.081      855.093
11/20/2013  12:35:00     -439.065     -303.069       -9.487      240.467      199.327      120.787    57824.354    39731.202    14589.434       19.841        5.607      533.507      106.994        0.040      338.309       10.869      855.058
11/20/2013  12:36:00     -388.654     -216.841      -25.287      191.449      148.045       82.965    36652.666    21917.358     6883.149       13.207        3.273      445.053       89.040        0.040      338.226       10.731      855.100
11/20/2013  12:37:00     -251.471     -194.827      -13.725      192.444      121.707       93.739    37034.795    14812.664     8786.992        8.100        3.032      318.112      100.518        0.100      338.296       10.849      855.111
11/20/2013  12:38:00     -223.145      -46.531       -5.883      119.644      156.831       71.110    14314.758    24595.861     5056.697        4.797        2.198      227.945       68.792        0.091      338.245       10.762      855.112
11/20/2013  12:39:00     -151.364     -111.478        7.246      135.305      132.838       75.290    18307.345    17646.057     5668.575        3.850        2.081      187.985       75.569        0.162      338.315       10.879      855.112
11/20/2013  12:40:00     -232.079     -162.930      -12.480      123.574      103.568       74.722    15270.450    10726.357     5583.378        5.607        1.579      283.561       70.249        0.061      338.233       10.743      855.078
11/20/2013  12:41:00     -210.236     -116.665       -6.971      115.307       79.715       50.634    13295.699     6354.438     2563.844        4.003        1.111      240.436       43.538        0.033      338.211       10.703      855.069
11/20/2013  12:42:00     -139.182        6.436        7.108      104.062       83.811       45.929    10828.872     7024.310     2109.456        1.971        0.998      139.331       46.881        0.113      338.289       10.838      855.048
11/20/2013  12:43:00     -213.968       -1.031      -11.198      103.577       91.132       51.011    10728.286     8305.021     2602.140        3.377        1.082      213.970       51.709        0.058      338.254       10.778      855.054
11/20/2013  12:44:00     -361.757      -13.590      -18.514      132.932      149.387       55.655    17670.905    22316.477     3097.423        8.723        2.154      362.012       59.597        0.027      338.009       10.366      855.040
11/20/2013  12:45:00     -369.555      -72.191      -16.162      116.958      101.373       64.972    13679.270    10276.401     4221.357        8.510        1.409      376.540       61.535        0.027      337.972       10.303      855.027
11/20/2013  12:46:00     -270.398      -50.172      -12.540      111.839      101.271       51.860    12507.974    10255.832     2689.458        5.062        1.273      275.014       56.017        0.041      338.017       10.379      855.028
11/20/2013  12:47:00     -117.434      -30.145        4.765      121.458       96.533       61.140    14751.976     9318.685     3738.109        2.126        1.390      121.242       61.137        0.254      338.155       10.613      854.994
11/20/2013  12:48:00     -267.227     -100.374      -15.733      102.058       60.999       47.086    10415.833     3720.864     2217.138        4.904        0.818      285.456       45.726        0.026      338.113       10.539      854.979
11/20/2013  12:49:00     -232.549      -78.136       -5.229       98.573       88.267       45.639     9716.718     7791.009     2082.948        3.990        0.980      245.325       39.981        0.027      338.165       10.626      854.956
11/20/2013  12:50:00     -180.006      -65.426        4.323      117.521       90.743       50.673    13811.097     8234.350     2567.768        3.065        1.231      191.527       61.005        0.101      338.152       10.608      854.938
11/20/2013  12:51:00     -269.994      -63.516      -16.805       87.755       73.303       47.281     7700.878     5373.307     2235.507        4.626        0.765      277.364       49.157        0.031      338.152       10.606      854.920
11/20/2013  12:52:00     -239.490      -75.698       -2.119       83.697       66.683       41.536     7005.234     4446.674     1725.217        3.813        0.659      251.168       44.856        0.032      338.191       10.670      854.901
11/20/2013  12:53:00     -229.071       75.570      -14.133       84.490       63.387       43.246     7138.599     4017.914     1870.199        3.570        0.651      241.214       36.246        0.023      338.169       10.635      854.889
11/20/2013  12:54:00     -151.017       37.080      -17.602       67.561       70.068       37.847     4564.523     4909.592     1432.404        1.770        0.545      155.502       33.210        0.046      338.202       10.692      854.862
11/20/2013  12:55:00     -149.937      -75.655       -6.602       71.713       42.952       25.074     5142.768     1844.848      628.708        1.793        0.381      167.943        5.550        0.001      338.121       10.556      854.812
11/20/2013  12:56:00      -76.531      -21.392        4.212       40.458       26.023       20.017     1636.830      677.216      400.677        0.452        0.136       79.464       21.781        0.075      338.229       10.741      854.770
11/20/2013  12:57:00      -35.459       66.238       12.163       46.478       49.615       35.828     2160.196     2461.688     1283.678        0.585        0.295       75.132       30.316        0.163      338.381       10.993      854.737
11/20/2013  12:58:00      -34.103      137.491       -4.298       37.322       48.533       27.762     1392.934     2355.470      770.713        1.230        0.226      141.657       23.111        0.027      338.351       10.943      854.708
11/20/2013  12:59:00      -72.562      112.846      -22.826       91.559       49.377       35.687     8383.040     2438.097     1273.597        1.531        0.605      134.162       31.855        0.056      338.333       10.911      854.671
11/20/2013  13:00:00     -128.407       26.703      -16.521       83.058       58.797       35.465     6898.652     3457.146     1257.780        1.454        0.581      131.154       25.614        0.038      338.221       10.724      854.640
11/20/2013  13:01:00      -63.486       77.341        1.798       39.592       45.643       31.945     1567.533     2083.253     1020.483        0.734        0.234      100.061       24.397        0.059      338.390       11.009      854.629
11/20/2013  13:02:00      -57.094      101.861      -11.632       67.317      106.244       31.154     4531.636    11287.766      970.580        1.528        0.839      116.770       26.785        0.053      338.294       10.846      854.610
11/20/2013  13:03:00      -22.182      157.175       -6.304       36.522       49.815       32.464     1333.871     2481.532     1053.896        1.505        0.243      158.732       26.305        0.027      338.325       10.900      854.592
11/20/2013  13:04:00      -26.807       57.795       -2.988       39.777       45.141       29.193     1582.190     2037.738      852.250        0.427        0.224       63.709       29.877        0.220      338.435       11.084      854.581
11/20/2013  13:05:00      -27.021       82.544      -15.903       47.116       40.889       25.028     2219.908     1671.872      626.401        0.616        0.226       86.854       21.832        0.063      338.472       11.147      854.576
11/20/2013  13:06:00     -106.820      136.489      -19.330       73.289       92.913       40.008     5371.304     8632.865     1600.620        2.301        0.780      173.320       35.603        0.042      338.522       11.228      854.561
11/20/2013  13:07:00     -378.987     -126.063       -6.359      232.309      153.751       73.273    53967.572    23639.493     5368.898       12.125        4.149      399.403       78.834        0.039      338.442       11.094      854.533
11/20/2013  13:08:00     -425.525     -125.943      -26.713      142.690      132.598       74.186    20360.556    17582.104     5503.539       12.054        2.172      443.771       72.895        0.027      338.400       11.022      854.539
11/20/2013  13:09:00     -114.719      -48.655        4.913      122.760       85.306       63.495    15070.119     7277.148     4031.567        2.096        1.319      124.610       65.216        0.274      338.554       11.284      854.531
11/20/2013  13:10:00     -365.966      -22.444      -17.918      114.927       88.915       53.712    13208.231     7905.870     2884.978        7.937        1.200      366.653       54.296        0.022      338.492       11.177      854.521
11/20/2013  13:11:00     -255.541      -42.956       -9.952       91.620       98.378       47.912     8394.188     9678.258     2295.555        4.380        1.018      259.127       47.666        0.034      338.437       11.084      854.516
11/20/2013  13:12:00     -247.063     -101.154      -13.143      132.095      109.976       59.119    17448.959    12094.767     3495.003        5.224        1.652      266.969       57.507        0.046      338.542       11.263      854.524
11/20/2013  13:13:00     -171.216      -39.663       20.452      189.883      104.861       70.972    36055.503    10995.736     5036.989        4.169        2.604      175.750       94.884        0.291      338.618       11.389      854.510
11/20/2013  13:14:00     -320.972     -107.336        1.711      170.831      151.309       67.743    29183.369    22894.407     4589.130        8.560        2.833      338.443       76.295        0.051      338.429       11.071      854.526
11/20/2013  13:15:00     -376.991      -60.080      -31.542      168.923      160.313       68.095    28534.912    25700.250     4636.943       10.279        2.944      381.748       78.321        0.042      338.430       11.072      854.533
11/20/2013  13:16:00     -325.280      -98.807      -12.403      146.448      105.893       61.509    21447.098    11213.354     3783.296        7.608        1.822      339.956       61.995        0.033      338.501       11.192      854.537
11/20/2013  13:17:00     -360.049      -50.173      -14.392      149.023      167.563       70.643    22207.873    28077.506     4990.498        9.381        2.764      363.528       66.076        0.033      338.386       10.999      854.523
11/20/2013  13:18:00     -439.778      -34.338      -25.217      175.689      129.540       75.789    30866.505    16780.657     5744.025       12.429        2.670      441.116       79.634        0.033      338.286       10.830      854.520
11/20/2013  13:19:00     -348.694      -52.203       -0.696      174.828      130.040       69.572    30564.896    16910.406     4840.316        8.830        2.616      352.580       77.725        0.049      338.276       10.815      854.512
11/20/2013  13:20:00     -244.486      -61.644        0.664      137.763       98.596       60.406    18978.676     9721.227     3648.828        4.795        1.617      252.138       65.905        0.068      338.330       10.907      854.506
11/20/2013  13:21:00     -276.913      -35.535        5.072      124.553      115.955       68.364    15513.399    13445.513     4673.643        5.579        1.682      279.184       74.827        0.072      338.351       10.941      854.522
11/20/2013  13:22:00     -353.935      -49.128      -39.403      131.536       98.073       53.836    17301.840     9618.344     2898.363        7.952        1.491      357.329       60.341        0.029      338.318       10.886      854.546
11/20/2013  13:23:00     -329.803      -73.601      -12.953      114.082      108.063       58.517    13014.711    11677.635     3424.257        7.123        1.406      337.916       46.016        0.019      338.357       10.950      854.558
11/20/2013  13:24:00     -279.122     -170.036       -5.374      152.413      158.535       77.957    23229.840    25133.312     6077.339        8.063        2.722      326.835       80.566        0.061      338.286       10.833      854.562
11/20/2013  13:25:00     -194.458      -94.511        0.057      176.692      160.873       74.382    31220.224    25880.210     5532.700        5.468        3.132      216.209       83.306        0.148      338.331       10.907      854.574
11/20/2013  13:26:00     -201.228     -147.425      -12.033      120.575      109.904       66.724    14538.312    12078.979     4452.057        4.671        1.553      249.453       70.607        0.080      338.342       10.926      854.582
11/20/2013  13:27:00     -236.054     -104.758       15.640      133.872      118.395       67.935    17921.790    14017.345     4615.216        5.174        1.828      258.255       64.511        0.062      338.326       10.899      854.602
11/20/2013  13:28:00     -210.448      -40.687       -3.448       94.256      106.864       47.096     8884.149    11419.962     2218.021        3.423        1.126      214.345       37.983        0.031      338.367       10.968      854.628
11/20/2013  13:29:00     -299.210      -82.019      -20.335      170.693      130.316       68.642    29136.059    16982.356     4711.768        7.374        2.542      310.248       76.343        0.061      338.392       11.008      854.631
11/20/2013  13:30:00     -311.534     -136.132      -19.470      123.482      119.809       63.475    15247.756    14354.114     4029.093        7.479        1.682      339.978       51.444        0.023      338.289       10.837      854.626
11/20/2013  13:31:00     -381.498     -110.029      -10.264      137.308       95.205       54.961    18853.429     9063.931     3020.675        9.434        1.547      397.048       62.710        0.025      338.232       10.740      854.642
11/20/2013  13:32:00     -336.161      -51.084      -12.727      108.319      125.783       56.291    11732.899    15821.326     3168.670        7.324        1.536      340.020       50.030        0.022      338.266       10.798      854.655
11/20/2013  13:33:00     -233.782      -84.161       12.477      114.803      136.633       48.906    13179.762    18668.507     2391.820        4.806        1.712      248.470       50.250        0.041      338.350       10.939      854.680
11/20/2013  13:34:00     -248.236      -43.606        7.616      130.664       95.505       51.970    17073.083     9121.268     2700.882        4.623        1.445      252.037       63.130        0.063      338.311       10.873      854.686
11/20/2013  13:35:00     -115.425      -60.622       15.492       91.013       89.207       46.646     8283.347     7957.825     2175.818        1.782        0.921      130.376       45.236        0.120      338.361       10.958      854.686
11/20/2013  13:36:00     -204.466       28.573       -1.384      169.886      120.585       73.059    28861.282    14540.763     5337.574        4.567        2.437      206.453       79.862        0.150      338.300       10.856      854.675
11/20/2013  13:37:00     -428.292      -89.149      -10.639      138.337      118.299       62.286    19137.027    13994.727     3879.503       11.425        1.851      437.472       63.635        0.021      338.148       10.599      854.682
11/20/2013  13:38:00     -392.948      -98.842       -6.683      153.938      120.517       62.412    23696.803    14524.450     3895.212       10.316        2.106      405.189       66.935        0.027      338.121       10.555      854.666
11/20/2013  13:39:00     -311.482      -67.364       -7.998      147.191       93.919       53.259    21665.225     8820.833     2836.552        6.747        1.666      318.683       42.791        0.018      338.123       10.557      854.660
11/20/2013  13:40:00     -319.597      -77.517      -17.466      109.027      112.026       59.238    11886.980    12549.826     3509.148        6.820        1.397      328.863       47.960        0.021      338.160       10.618      854.639
11/20/2013  13:41:00     -209.925      -51.766        5.616      108.772      111.142       52.251    11831.344    12352.582     2730.126        3.684        1.346      216.213       51.434        0.057      338.245       10.763      854.652
11/20/2013  13:42:00     -226.486     -111.987        9.751      161.428      101.226       71.186    26059.086    10246.777     5067.511        5.264        2.069      252.660       84.461        0.112      338.235       10.745      854.647
11/20/2013  13:43:00     -277.982     -100.348       -8.716      140.748       98.386       65.619    19809.986     9679.866     4305.878        6.060        1.690      295.540       70.857        0.057      338.245       10.763      854.644
11/20/2013  13:44:00     -148.966      -85.349       12.813       82.609       97.664       50.697     6824.289     9538.243     2570.167        2.428        0.947      171.684       32.313        0.035      338.179       10.652      854.611
11/20/2013  13:45:00     -178.241      -27.902       -7.059       99.985       62.881       38.271     9997.035     3954.010     1464.696        2.400        0.771      180.412       35.679        0.039      338.256       10.781      854.598
11/20/2013  13:46:00     -245.352      -40.321       -9.575      134.288       87.594       46.061    18033.396     7672.764     2121.628        4.487        1.391      248.643       55.336        0.050      338.288       10.836      854.577
11/20/2013  13:47:00     -232.936      -55.674       -0.259      139.752      133.604       65.504    19530.603    17850.017     4290.752        4.951        2.084      239.497       61.806        0.067      338.227       10.733      854.569
11/20/2013  13:48:00     -304.196     -117.462      -12.713      135.175      123.765       54.671    18272.259    15317.813     2988.939        7.153        1.829      326.087       57.806        0.031      338.250       10.770      854.544
11/20/2013  13:49:00     -259.385      -61.614        0.555      157.437      122.937       68.439    24786.338    15113.513     4683.940        5.782        2.229      266.602       65.473        0.060      338.271       10.806      854.537
11/20/2013  13:50:00     -250.371       32.361       -0.216      121.197       90.020       58.864    14688.740     8103.652     3464.956        4.499        1.313      252.454       65.357        0.067      338.364       10.963      854.538
11/20/2013  13:51:00     -336.847      -49.907      -31.309      147.128       94.471       59.299    21646.709     8924.811     3516.414        7.551        1.704      340.524       54.154        0.025      338.315       10.880      854.524
11/20/2013  13:52:00     -318.523      -96.259       -0.231      131.912      122.310       62.403    17400.709    14959.784     3894.123        7.348        1.813      332.750       68.263        0.042      338.259       10.787      854.515
11/20/2013  13:53:00     -255.428      -67.057       -7.249      125.172      108.158       63.306    15667.987    11698.221     4007.677        5.058        1.569      264.084       69.553        0.069      338.312       10.874      854.506
11/20/2013  13:54:00     -388.731      -21.847      -29.140      145.391       89.935       57.540    21138.591     8088.389     3310.884        9.248        1.627      389.345       61.802        0.025      338.250       10.770      854.496
11/20/2013  13:55:00     -319.786     -121.525       -8.340      167.861      119.967       63.493    28177.231    14391.994     4031.324        8.184        2.330      342.098       54.388        0.025      338.352       10.941      854.496
11/20/2013  13:56:00     -261.573      -68.201       -4.366      168.120      101.399       71.029    28264.491    10281.802     5045.084        5.833        2.180      270.318       74.226        0.075      338.389       11.005      854.478
11/20/2013  13:57:00     -352.701      -67.121       -1.819      156.526      148.035       66.113    24500.269    21914.477     4370.868        8.984        2.539      359.031       72.919        0.041      338.310       10.870      854.476
11/20/2013  13:58:00     -172.297       -7.852       26.176      209.386      141.073       90.090    43842.645    19901.624     8116.151        5.113        3.593      172.476      122.442        0.504      338.426       11.067      854.489
11/20/2013  13:59:00     -336.312     -121.404      -10.947      149.437      112.714       54.829    22331.378    12704.348     3006.170        8.300        1.902      357.554       48.686        0.019      338.280       10.821      854.498
11/20/2013  14:00:00     -412.353     -134.207      -11.291      165.942      148.504       82.343    27536.832    22053.417     6780.410       12.226        2.819      433.643       68.482        0.025      338.223       10.724      854.483
11/20/2013  14:01:00     -360.679     -111.865      -14.196      198.360      129.390       73.721    39346.624    16741.861     5434.722       10.215        3.076      377.628      101.366        0.072      338.233       10.743      854.469
11/20/2013  14:02:00     -290.714     -153.851      -19.078      149.974      109.814       67.815    22492.171    12059.042     4598.839        7.384        1.958      328.915       73.579        0.050      338.271       10.805      854.462
11/20/2013  14:03:00     -201.154     -103.968       18.742      158.420      150.144       83.576    25096.965    22543.243     6984.970        5.311        2.731      226.434       83.581        0.136      338.339       10.921      854.449
11/20/2013  14:04:00     -447.706     -242.028       -8.053      176.563      134.187       77.706    31174.627    18006.217     6038.171       15.714        2.761      508.938       86.971        0.029      338.254       10.778      854.407
11/20/2013  14:05:00     -183.621      -46.931       17.542      136.633       93.339       53.233    18668.470     8712.190     2833.756        3.321        1.511      189.523       59.919        0.100      338.379       10.989      854.399
11/20/2013  14:06:00     -297.109     -163.212       -4.133      124.645      125.123       57.380    15536.285    15655.652     3292.486        7.470        1.724      338.986       54.512        0.026      338.374       10.978      854.364
11/20/2013  14:07:00     -210.297      -53.760       -2.357       99.879       86.339       52.073     9975.872     7454.379     2711.548        3.363        1.007      217.060       49.553        0.052      338.462       11.126      854.337
11/20/2013  14:08:00     -305.799      -55.082      -11.953      125.410      132.918       73.122    15727.564    17667.293     5346.784        6.771        1.937      310.720       68.308        0.048      338.470       11.139      854.313
11/20/2013  14:09:00     -276.846     -191.440        4.174      173.699      173.870       79.447    30171.380    30230.723     6311.868        9.000        3.336      336.590       73.782        0.048      338.471       11.141      854.300
11/20/2013  14:10:00     -198.419      -37.773       31.859      162.414      159.797       87.791    26378.422    25534.988     7707.218        5.070        2.981      201.983       88.807        0.193      338.550       11.274      854.303
11/20/2013  14:11:00     -384.776     -127.200      -16.973      174.565      190.951       74.913    30472.778    36462.408     5611.913       11.852        3.627      405.256       73.208        0.033      338.411       11.041      854.287
11/20/2013  14:12:00     -323.929      -53.573      -26.063      178.766      179.229       71.985    31957.201    32123.077     5181.777        8.886        3.463      328.329       81.501        0.062      338.475       11.149      854.283
11/20/2013  14:13:00     -379.646      -90.287       -8.482      179.932      159.708       94.554    32375.431    25506.670     8940.434       10.958        3.341      390.234      111.422        0.082      338.428       11.070      854.251
11/20/2013  14:14:00     -333.085       -9.508       -1.365      148.222      126.670       73.451    21969.735    16045.370     5395.117        7.722        2.171      333.221       80.993        0.059      338.447       11.101      854.246
11/20/2013  14:15:00     -271.966      -55.804       -7.788      100.804       99.774       59.429    10161.443     9954.891     3531.781        5.039        1.182      277.632       57.409        0.043      338.510       11.206      854.249
11/20/2013  14:16:00     -197.709     -126.593        8.793      120.074       91.094       56.143    14417.685     8298.179     3152.084        4.052        1.293      234.765       55.568        0.056      338.560       11.292      854.270
11/20/2013  14:17:00     -248.922     -163.059       -2.662      114.283       96.238       54.933    13060.612     9261.812     3017.673        5.694        1.267      297.574       55.368        0.035      338.546       11.267      854.283
11/20/2013  14:18:00     -261.549     -171.498       -6.186      136.693      126.018       60.625    18684.883    15880.425     3675.444        6.804        1.912      312.761       50.270        0.026      338.524       11.231      854.284
11/20/2013  14:19:00     -323.662     -152.524      -13.775      157.902      119.170       79.204    24933.111    14201.397     6273.197        8.680        2.270      357.800       79.432        0.049      338.512       11.210      854.279
11/20/2013  14:20:00     -275.143     -245.295        4.187      184.413      154.247       94.601    34008.120    23792.234     8949.286       10.131        3.337      368.610       99.582        0.073      338.411       11.041      854.259
11/20/2013  14:21:00     -295.472     -119.722       14.847      185.887      110.553       72.197    34554.154    12221.985     5212.466        7.691        2.599      318.806       85.462        0.072      338.410       11.039      854.241
11/20/2013  14:22:00     -245.613     -173.671       -4.808      144.204      125.336       67.444    20794.780    15709.182     4548.690        6.577        2.053      300.811       72.081        0.057      338.458       11.120      854.241
11/20/2013  14:23:00     -272.358     -188.442       -3.261      143.994      172.199       80.575    20734.291    29652.660     6492.368        8.328        2.844      331.194       65.800        0.039      338.394       11.012      854.230
11/20/2013  14:24:00     -350.511     -245.461       -2.158      189.922      139.784       91.377    36070.485    19539.502     8349.831       12.352        3.198      427.913       90.790        0.045      338.374       10.979      854.225
11/20/2013  14:25:00     -300.367     -239.753       -7.716      183.540      143.820       88.065    33687.080    20684.253     7755.488       10.493        3.106      384.320       91.687        0.057      338.393       11.010      854.227
11/20/2013  14:26:00     -365.813     -293.977      -18.539      167.728      118.275       71.100    28132.822    13989.018     5055.178       13.387        2.359      469.299       79.094        0.028      338.396       11.015      854.212
11/20/2013  14:27:00      -84.766     -105.101       28.541      122.893      105.365       60.903    15102.759    11101.763     3709.158        2.447        1.496      135.024       63.017        0.218      338.521       11.227      854.216
11/20/2013  14:28:00     -142.885      -88.155       11.331      128.672       86.215       60.656    16556.476     7433.094     3679.112        2.799        1.383      167.892       70.549        0.177      338.507       11.204      854.175
11/20/2013  14:29:00      -79.715      -93.201       10.245      150.889      120.179       83.632    22767.497    14443.066     6994.245        2.967        2.210      122.641       97.729        0.635      338.581       11.330      854.157
11/20/2013  14:30:00     -152.284     -115.146       13.311      153.713      113.043       66.448    23627.834    12778.805     4415.303        3.872        2.041      190.917       73.640        0.149      338.515       11.216      854.157
11/20/2013  14:31:00     -248.299     -153.871       -6.216      137.166      104.928       70.339    18814.427    11009.822     4947.628        6.006        1.739      292.111       70.092        0.058      338.500       11.191      854.159
11/20/2013  14:32:00     -322.682     -193.434       -6.642      142.088      134.317       73.068    20189.114    18041.074     5338.874        9.257        2.178      376.218       77.943        0.043      338.395       11.013      854.169
11/20/2013  14:33:00     -202.628     -166.206        1.109      129.755      125.172       66.898    16836.360    15667.949     4475.379        5.282        1.849      262.073       69.063        0.069      338.417       11.050      854.180
11/20/2013  14:34:00     -271.121     -215.208       -0.239      187.591      135.990       86.256    35190.322    18493.325     7440.040        9.046        3.056      346.152       93.914        0.074      338.386       10.999      854.197
11/20/2013  14:35:00     -235.735       -2.377       -1.353      237.862      137.370       61.128    56578.404    18870.566     3736.618        6.737        3.959      235.747       76.063        0.104      338.453       11.111      854.218
11/20/2013  14:36:00     -249.892      -91.100      -24.012      161.989      110.975       60.974    26240.505    12315.513     3717.787        5.679        2.114      265.979       62.866        0.056      338.409       11.038      854.222
11/20/2013  14:37:00     -118.093      -96.209       23.077      111.515       85.374       62.621    12435.550     7288.801     3921.450        2.369        1.182      152.322       58.698        0.148      338.483       11.163      854.206
11/20/2013  14:38:00     -161.774     -140.406        1.825      145.167      112.866       68.023    21073.352    12738.833     4627.090        4.216        1.922      214.207       74.837        0.122      338.474       11.148      854.217
11/20/2013  14:39:00     -183.530      -79.852       -8.384       99.053       92.319       52.006     9811.493     8522.815     2704.604        3.058        1.052      200.148       32.235        0.026      338.465       11.134      854.216
11/20/2013  14:40:00     -216.214      -33.017      -10.298      130.311       87.949       65.085    16980.912     7735.109     4236.004        3.844        1.448      218.720       67.612        0.096      338.480       11.157      854.216
11/20/2013  14:41:00     -193.240      -94.748       -1.921       90.214       90.350       44.174     8138.654     8163.194     1951.323        3.228        0.913      215.218       53.068        0.061      338.481       11.160      854.222
11/20/2013  14:42:00     -190.409      -69.087       -3.418      114.836       96.451       60.080    13187.360     9302.853     3609.567        3.356        1.305      202.556       59.875        0.087      338.503       11.196      854.217
11/20/2013  14:43:00     -234.058     -174.129      -10.149      144.443      130.804       75.952    20863.914    17109.643     5768.769        6.447        2.187      291.727       87.526        0.090      338.436       11.083      854.215
11/20/2013  14:44:00     -208.371     -128.344        9.534      144.977      110.904       73.062    21018.215    12299.801     5338.095        4.931        1.933      244.726       78.525        0.103      338.453       11.111      854.206
11/20/2013  14:45:00     -370.524     -158.953       -8.969      143.481       94.657       57.129    20586.859     8959.897     3263.743        9.772        1.641      403.180       62.637        0.024      338.442       11.091      854.205
11/20/2013  14:46:00     -311.872     -157.611       -8.043      131.488      101.176       62.900    17289.138    10236.497     3956.367        7.682        1.574      349.436       66.794        0.037      338.427       11.065      854.212
11/20/2013  14:47:00     -353.598      -63.012      -18.651      118.163       80.524       60.223    13962.563     6484.119     3626.830        7.671        1.204      359.168       55.125        0.024      338.382       10.991      854.200
11/20/2013  14:48:00     -132.421      -95.940        7.379      116.614      100.251       67.842    13598.765    10050.341     4602.536        2.752        1.413      163.523       71.660        0.192      338.471       11.141      854.208
11/20/2013  14:49:00     -155.640      -84.800       -1.050      126.561      128.047       62.769    16017.562    16395.925     3939.909        3.388        1.818      177.243       74.745        0.178      338.480       11.158      854.193
11/20/2013  14:50:00     -384.820     -155.538      -24.278      129.706      118.678       65.632    16823.586    14084.368     4307.595       10.403        1.761      415.064       61.787        0.022      338.365       10.963      854.194
11/20/2013  14:51:00     -233.864      -42.777      -22.773      117.761       90.733       52.186    13867.569     8232.552     2723.388        4.093        1.241      237.744       54.212        0.052      338.381       10.990      854.178
11/20/2013  14:52:00     -248.908      -99.521      -13.713       92.166      103.278       51.104     8494.522    10666.393     2611.636        4.691        1.089      268.066       46.508        0.030      338.409       11.037      854.157
11/20/2013  14:53:00     -273.747      -79.738        8.035      142.164      114.723       56.407    20210.500    13161.303     3181.805        5.895        1.828      285.123       61.341        0.046      338.412       11.043      854.162
11/20/2013  14:54:00     -224.406      -49.054       -4.624      117.713       79.237       46.486    13856.378     6278.506     2160.934        3.754        1.115      229.704       30.817        0.018      338.431       11.075      854.169
11/20/2013  14:55:00     -123.439      -34.265        3.784       84.526       70.846       34.700     7144.702     5019.208     1204.097        1.489        0.668      128.107       35.905        0.079      338.501       11.196      854.180
11/20/2013  14:56:00     -209.898      -74.862       -1.514       96.541       83.068       42.795     9320.174     6900.286     1831.423        3.385        0.903      222.849       41.153        0.034      338.408       11.036      854.199
11/20/2013  14:57:00     -180.227     -116.602       11.123      138.142      113.463       44.579    19083.309    12873.846     1987.309        4.007        1.697      214.657       59.683        0.077      338.410       11.040      854.218
11/20/2013  14:58:00     -134.674      -68.417       -8.802       93.041       56.554       45.200     8656.709     3198.313     2043.032        1.839        0.695      151.056       52.176        0.119      338.458       11.122      854.232
11/20/2013  14:59:00     -230.453     -148.210        7.416      146.686      114.152       66.440    21516.756    13030.746     4414.298        5.704        1.948      273.998       65.968        0.058      338.399       11.022      854.214
11/20/2013  15:00:00     -193.837     -144.668       -3.581      128.435      101.807       67.310    16495.431    10364.650     4530.671        4.495        1.570      241.871       62.377        0.067      338.396       11.015      854.230
11/20/2013  15:01:00     -224.533     -135.091       -8.351      102.257      120.722       64.814    10456.471    14573.707     4200.858        4.898        1.462      262.039       67.354        0.066      338.389       11.003      854.224
11/20/2013  15:02:00     -267.874      -40.421      -19.784      190.212      106.328       66.029    36180.440    11305.674     4359.787        6.280        2.592      270.907       78.715        0.084      338.388       11.004      854.197
11/20/2013  15:03:00     -148.116      -95.896       -1.136      111.998      113.418       68.471    12543.443    12863.548     4688.213        3.061        1.505      176.449       53.059        0.090      338.392       11.010      854.172
11/20/2013  15:04:00     -231.213       17.470        4.619      147.864       94.771       53.577    21863.683     8981.563     2870.548        4.374        1.686      231.872       59.843        0.067      338.418       11.054      854.143
11/20/2013  15:05:00     -262.154      -62.811       -4.640      164.496      111.762       63.052    27059.025    12490.772     3975.565        5.810        2.176      269.574       72.513        0.072      338.390       11.006      854.158
11/20/2013  15:06:00     -301.956      -60.703       -0.542      149.827      132.125       63.399    22448.095    17457.070     4019.450        6.938        2.196      307.997       65.342        0.045      338.365       10.963      854.165
11/20/2013  15:07:00     -296.010      -87.333       -5.160      165.051      105.093       65.869    27241.965    11044.594     4338.713        6.894        2.131      308.625       80.958        0.069      338.358       10.953      854.185
11/20/2013  15:08:00     -218.880      -39.325        5.300      137.590      106.837       50.375    18930.957    11414.161     2537.592        4.118        1.644      222.385       55.313        0.062      338.340       10.922      854.197
11/20/2013  15:09:00     -284.421       37.387      -17.177      112.302      111.083       45.393    12611.628    12339.527     2060.525        5.479        1.351      286.868       47.456        0.027      338.333       10.909      854.199
11/20/2013  15:10:00     -296.462      -52.870       -4.692       98.728       90.140       47.736     9747.237     8125.298     2278.727        5.542        1.008      301.139       50.904        0.029      338.349       10.938      854.190
11/20/2013  15:11:00     -189.733      -50.704        3.767       85.987       88.815       47.269     7393.708     7888.079     2234.354        2.805        0.876      196.391       45.354        0.053      338.378       10.987      854.204
11/20/2013  15:12:00     -206.989       -8.152       -0.803       87.573       68.568       45.502     7669.024     4701.531     2070.402        2.867        0.722      207.149       48.663        0.055      338.409       11.036      854.230
11/20/2013  15:13:00     -114.738      -97.626       -3.942       95.146       78.427       41.825     9052.706     6150.809     1749.325        1.983        0.848      150.651       42.268        0.079      338.407       11.036      854.248
11/20/2013  15:14:00      -72.699      -28.376       25.899       71.147       71.708       45.193     5061.836     5142.013     2042.425        0.950        0.612       78.041       43.651        0.313      338.468       11.139      854.259
11/20/2013  15:15:00     -106.502      -60.297        4.675       94.208       92.100       49.789     8875.133     8482.501     2478.944        1.741        0.992      122.386       41.388        0.114      338.424       11.065      854.273
11/20/2013  15:16:00     -240.693      -53.451      -12.092      143.419       86.212       56.769    20569.050     7432.562     3222.714        4.607        1.561      246.556       67.721        0.075      338.366       10.967      854.275
11/20/2013  15:17:00     -248.069      -98.286      -12.603      113.070      118.330       52.734    12784.867    14001.941     2780.888        5.046        1.478      266.831       50.258        0.035      338.316       10.882      854.283
11/20/2013  15:18:00     -106.919      -45.584       16.073      117.311      112.922       66.924    13761.964    12751.490     4478.779        2.237        1.550      116.230       55.661        0.229      338.386       11.002      854.292
11/20/2013  15:19:00     -215.718       -2.581       -2.167      195.046      109.638       61.499    38042.921    12020.500     3782.114        5.018        2.692      215.734       87.737        0.165      338.315       10.881      854.310
11/20/2013  15:20:00     -350.143        4.583      -16.837      136.985      120.556       61.886    18764.995    14533.657     3829.906        8.001        1.856      350.173       57.073        0.027      338.262       10.790      854.299
11/20/2013  15:21:00     -258.553      -23.866      -12.311       90.297       64.096       45.455     8153.493     4108.286     2066.163        4.095        0.716      259.652       40.317        0.024      338.282       10.825      854.304
11/20/2013  15:22:00     -164.104      -39.310      -10.170       76.799       65.247       34.281     5898.118     4257.113     1175.191        1.995        0.567      168.746       29.765        0.031      338.306       10.866      854.305
11/20/2013  15:23:00     -243.312      -87.519      -14.601      111.947       86.314       57.411    12532.240     7450.076     3296.065        4.517        1.164      258.574       60.596        0.055      338.276       10.816      854.320
11/20/2013  15:24:00     -247.580      -49.614      -19.160       86.820       86.098       39.924     7537.656     7412.887     1593.960        4.033        0.827      252.502       28.651        0.013      338.285       10.830      854.323
11/20/2013  15:25:00     -135.917      -38.812        6.221       79.810       73.947       58.606     6369.616     5468.126     3434.607        1.764        0.764      141.350       37.513        0.070      338.338       10.921      854.334
11/20/2013  15:26:00      -57.641       -1.261        1.263      114.931       95.358       54.235    13209.237     9093.053     2941.446        1.428        1.262       57.655       55.120        0.914      338.394       11.015      854.335
11/20/2013  15:27:00     -266.121      -16.578      -19.147       81.261      103.845       45.633     6603.372    10783.714     2082.356        4.546        0.973      266.637       42.676        0.026      338.236       10.747      854.349
11/20/2013  15:28:00     -232.273      -68.892      -16.027      101.974       74.957       47.057    10398.715     5618.568     2214.408        3.859        0.912      242.274       39.275        0.026      338.276       10.814      854.360
11/20/2013  15:29:00     -220.387     -167.265       -3.529      157.573      114.593       63.619    24829.364    13131.588     4047.391        5.928        2.100      276.673       66.727        0.058      338.235       10.746      854.360
11/20/2013  15:30:00     -150.667     -113.222        5.779      150.876      139.752       74.497    22763.567    19530.686     5549.847        4.169        2.392      188.467       91.715        0.237      338.285       10.832      854.331
11/20/2013  15:31:00     -220.010        4.874       -2.230       96.842       88.330       45.340     9378.286     7802.170     2055.695        3.383        0.962      220.063       44.628        0.041      338.267       10.800      854.370
11/20/2013  15:32:00     -218.688        4.784      -19.007      112.497      106.114       57.146    12655.669    11260.089     3265.641        3.769        1.359      218.741       49.281        0.051      338.243       10.760      854.387
11/20/2013  15:33:00     -237.418       22.472        1.571      187.050       72.495       55.152    34987.719     5255.495     3041.781        5.007        2.164      238.480       87.402        0.134      338.279       10.819      854.411
11/20/2013  15:34:00     -322.497      -39.172      -28.898      114.694       83.811       51.900    13154.730     7024.230     2693.581        6.462        1.144      324.868       52.352        0.026      338.239       10.752      854.421
11/20/2013  15:35:00     -355.952      -90.017      -15.409      121.198      138.888       66.014    14689.007    19289.947     4357.797        8.668        1.917      367.158       66.552        0.033      338.167       10.630      854.423
11/20/2013  15:36:00     -361.507      -68.189      -13.485       92.208      110.893       53.833     8502.383    12297.352     2897.992        7.960        1.185      367.882       44.892        0.015      338.193       10.674      854.414
11/20/2013  15:37:00     -221.734      -51.691       -8.593      116.327       88.927       55.291    13531.888     7907.937     3057.123        3.820        1.225      227.679       65.620        0.083      338.250       10.771      854.417
11/20/2013  15:38:00     -260.438        2.984       -4.490      134.406      117.862       73.743    18064.931    13891.352     5438.094        5.262        1.870      260.455       72.549        0.078      338.222       10.722      854.414
11/20/2013  15:39:00     -205.517     -161.214       -3.412      140.105      101.853       65.174    19629.543    10374.026     4247.658        5.124        1.713      261.204       62.904        0.058      338.219       10.718      854.425
11/20/2013  15:40:00     -228.744     -189.425      -17.981      130.465       94.705       73.434    17021.070     8968.972     5392.576        5.995        1.569      296.994       74.368        0.063      338.211       10.704      854.442
11/20/2013  15:41:00     -333.073     -217.842       -8.031      171.831      131.731       64.312    29525.848    17352.944     4136.084       10.473        2.551      397.986       73.050        0.034      338.173       10.641      854.461
11/20/2013  15:42:00     -191.348      -60.887       -0.626      132.524      106.523       60.232    17562.633    11347.134     3627.862        3.642        1.627      200.801       57.616        0.082      338.242       10.757      854.475
11/20/2013  15:43:00     -296.685     -210.401       -4.998      153.255      132.336       67.709    23486.971    17512.894     4584.547        8.894        2.279      363.717       79.381        0.048      338.190       10.669      854.484
11/20/2013  15:44:00     -163.172     -163.132        1.781      148.318      143.950       87.702    21998.179    20721.565     7691.687        5.182        2.521      230.732      101.341        0.193      338.211       10.705      854.479
11/20/2013  15:45:00     -165.211     -123.227        1.871      133.311       79.903       54.834    17771.823     6384.498     3006.732        3.482        1.358      206.106       63.176        0.094      338.234       10.745      854.472
11/20/2013  15:46:00     -292.981      -67.261      -10.889      116.704       84.405       57.832    13619.894     7124.139     3344.580        5.728        1.204      300.603       54.746        0.033      338.187       10.663      854.491
11/20/2013  15:47:00     -466.957     -103.074      -27.304      141.123      123.242       58.319    19915.578    15188.469     3401.134       13.395        1.925      478.198       56.824        0.014      338.125       10.559      854.472
11/20/2013  15:48:00     -237.397      -66.655       -0.523      196.455      140.692       60.026    38594.435    19794.264     3603.078        6.138        3.100      246.577       80.218        0.106      338.221       10.723      854.456
11/20/2013  15:49:00     -424.825      -33.130      -22.702      144.579      108.755       68.918    20902.956    11827.749     4749.632       10.978        1.874      426.115       79.008        0.034      338.136       10.579      854.459
11/20/2013  15:50:00     -319.596       -5.726      -21.888      121.990       73.616       49.695    14881.510     5419.295     2469.558        6.271        1.139      319.647       56.728        0.031      338.158       10.616      854.452
11/20/2013  15:51:00     -241.864       14.608      -10.042       83.699       69.398       50.575     7005.488     4816.080     2557.808        3.659        0.719      242.305       50.938        0.044      338.165       10.626      854.445
11/20/2013  15:52:00     -203.105      -30.587      -10.306      152.026       75.141       52.334    23111.829     5646.116     2738.847        3.689        1.575      205.395       67.013        0.106      338.198       10.685      854.433
11/20/2013  15:53:00     -308.979      -36.143      -23.560      125.853      107.034       65.273    15838.964    11456.174     4260.500        6.444        1.578      311.086       66.257        0.045      338.153       10.606      854.418
11/20/2013  15:54:00     -299.972      -11.054      -18.486      123.157       81.219       46.191    15167.641     6596.473     2133.629        5.717        1.195      300.175       46.876        0.024      338.159       10.618      854.419
11/20/2013  15:55:00     -161.312      -46.633        5.619      125.816      106.642       47.432    15829.691    11372.530     2249.795        2.883        1.473      167.917       57.484        0.117      338.248       10.768      854.419
11/20/2013  15:56:00     -271.728      -94.474      -11.872      104.699      132.164       55.181    10961.802    17467.253     3044.958        5.718        1.574      287.683       65.424        0.052      338.179       10.651      854.399
11/20/2013  15:57:00     -161.878      -58.670       -1.078       86.240       94.993       42.985     7437.352     9023.632     1847.700        2.397        0.915      172.182       53.100        0.095      338.236       10.746      854.404
11/20/2013  15:58:00     -169.523     -101.707       11.145      136.380      115.968       56.689    18599.421    13448.666     3213.686        3.723        1.763      197.693       64.480        0.106      338.192       10.674      854.394
11/20/2013  15:59:00     -171.358      -94.768       -1.145      125.019       89.334       57.210    15629.833     7980.625     3272.957        3.261        1.344      195.818       61.463        0.099      338.200       10.686      854.389
11/20/2013  16:00:00     -172.688      -51.340       -3.081      119.853      101.553       39.526    14364.663    10313.090     1562.333        2.935        1.312      180.158       47.089        0.068      338.143       10.593      854.388
11/20/2013  16:01:00     -287.118        7.408      -19.148      131.402       73.268       49.798    17266.535     5368.159     2479.807        5.398        1.256      287.213       50.109        0.030      338.132       10.571      854.394
11/20/2013  16:02:00     -237.807       -8.902       -7.188       98.792       80.626       47.356     9759.817     6500.496     2242.549        3.759        0.925      237.973       52.720        0.049      338.138       10.583      854.397
11/20/2013  16:03:00     -236.383      -64.142       -0.943      105.559       99.549       53.108    11142.731     9910.062     2820.441        4.193        1.194      244.931       57.441        0.055      338.162       10.624      854.399
11/20/2013  16:04:00     -177.862      -99.139       -3.070       93.970       65.751       35.996     8830.358     4323.139     1295.703        2.796        0.722      203.626       40.926        0.040      338.162       10.621      854.409
11/20/2013  16:05:00     -125.356      -19.868       -0.254       85.652       62.295       37.688     7336.329     3880.712     1420.422        1.437        0.632      126.920       48.540        0.146      338.186       10.664      854.401
11/20/2013  16:06:00     -158.009       19.788        6.385      126.458       68.922       49.494    15991.739     4750.175     2449.654        2.429        1.160      159.243       62.759        0.155      338.173       10.643      854.388
11/20/2013  16:07:00     -146.243      -55.381       10.495      124.074      101.286       51.270    15394.356    10258.892     2628.602        2.642        1.414      156.378       52.943        0.115      338.145       10.597      854.372
11/20/2013  16:08:00     -275.913      -73.238      -11.999      145.603      105.020       51.416    21200.201    11029.118     2643.642        5.825        1.744      285.468       59.689        0.044      338.116       10.545      854.369
11/20/2013  16:09:00     -136.801        3.494       -6.450       74.736       74.506       41.025     5585.484     5551.166     1683.053        1.579        0.641      136.845       36.022        0.069      338.123       10.558      854.376
11/20/2013  16:10:00     -160.512      -34.347       -4.877      109.152       76.827       45.002    11914.140     5902.352     2025.221        2.340        0.992      164.145       48.665        0.088      338.144       10.593      854.387
11/20/2013  16:11:00     -276.691     -120.851      -18.752       88.035       77.765       50.699     7750.131     6047.454     2570.395        5.394        0.818      301.932       42.834        0.020      338.098       10.515      854.402
11/20/2013  16:12:00     -244.612      -70.590       -7.417      113.912       58.906       38.603    12975.926     3469.926     1490.161        4.140        0.897      254.594       50.761        0.040      338.102       10.522      854.403
11/20/2013  16:13:00     -218.988      -12.548      -11.189      101.806       82.210       50.259    10364.364     6758.416     2525.931        3.394        0.982      219.347       50.397        0.053      338.101       10.521      854.402
11/20/2013  16:14:00     -208.475      -21.049       -1.975      124.234      116.670       61.202    15434.159    13611.951     3745.716        3.834        1.640      209.535       53.567        0.065      338.096       10.514      854.407
11/20/2013  16:15:00     -257.904      -43.296      -17.551       96.766       83.683       50.543     9363.736     7002.846     2554.627        4.381        0.946      261.513       45.395        0.030      338.090       10.502      854.414
11/20/2013  16:16:00     -207.166      -11.626      -15.258       98.542       88.377       47.304     9710.460     7810.531     2237.694        3.152        0.988      207.492       49.817        0.058      338.094       10.510      854.434
11/20/2013  16:17:00     -103.985        1.100        3.868       88.868       47.145       37.250     7897.486     2222.681     1387.536        1.117        0.575      103.991       43.605        0.176      338.104       10.527      854.437
11/20/2013  16:18:00     -128.738      -56.684        3.811       71.035       80.608       41.106     5045.951     6497.597     1689.695        1.651        0.662      140.664       35.873        0.065      338.106       10.532      854.436
11/20/2013  16:19:00     -253.523      -33.049      -14.971       71.807       77.789       41.275     5156.272     6051.204     1703.662        3.925        0.646      255.668       36.126        0.020      338.066       10.463      854.434
11/20/2013  16:20:00     -230.775      -28.735       -7.894       95.598       64.951       44.816     9138.901     4218.642     2008.436        3.475        0.768      232.557       46.723        0.040      338.058       10.449      854.439
11/20/2013  16:21:00     -245.060       15.584      -19.451       93.567       73.083       47.863     8754.844     5341.132     2290.845        3.853        0.819      245.555       47.405        0.037      338.043       10.423      854.455
11/20/2013  16:22:00     -236.655      -50.316      -13.141      127.221       90.806       53.650    16185.241     8245.788     2878.345        4.300        1.365      241.945       63.217        0.068      338.064       10.458      854.463
11/20/2013  16:23:00     -218.195      -38.351       -7.152       90.524       74.767       49.106     8194.587     5590.101     2411.401        3.266        0.810      221.540       52.923        0.057      338.046       10.430      854.486
11/20/2013  16:24:00     -256.406      -62.456       -8.423       69.502       50.382       35.828     4830.552     2538.357     1283.642        3.918        0.433      263.903       26.574        0.010      338.032       10.404      854.488
11/20/2013  16:25:00     -339.195      -18.436      -24.602       92.248       63.448       48.213     8509.717     4025.678     2324.502        6.543        0.743      339.695       48.396        0.020      338.024       10.391      854.493
11/20/2013  16:26:00     -201.090      -13.553       -2.529      120.227       76.147       51.617    14454.549     5798.427     2664.342        3.177        1.146      201.546       61.479        0.093      338.083       10.493      854.486
11/20/2013  16:27:00     -218.976      -88.090      -10.937       84.788       64.253       41.689     7188.961     4128.429     1737.945        3.444        0.653      236.031       37.340        0.025      338.036       10.413      854.472
11/20/2013  16:28:00     -186.924      -55.887       -9.201       89.872       55.247       34.024     8076.950     3052.201     1157.646        2.522        0.614      195.100       37.181        0.036      338.037       10.414      854.465
11/20/2013  16:29:00     -235.768      -79.487       -7.863       70.691       53.127       36.328     4997.168     2822.475     1319.692        3.555        0.457      248.807       32.727        0.017      338.022       10.388      854.469
11/20/2013  16:30:00     -183.184      -27.421      -18.805       82.952       48.314       39.138     6880.988     2334.253     1531.811        2.270        0.537      185.225       31.653        0.029      338.049       10.435      854.457
11/20/2013  16:31:00     -179.662      -42.271        2.566       63.612       54.678       35.531     4046.484     2989.648     1262.452        2.118        0.415      184.567       32.253        0.031      338.011       10.371      854.471
11/20/2013  16:32:00     -239.843      -39.526      -21.586       79.129       62.598       38.225     6261.433     3918.479     1461.116        3.559        0.582      243.078       37.586        0.024      338.007       10.363      854.469
11/20/2013  16:33:00     -208.720      -49.362       -3.770       96.889       63.641       32.934     9387.452     4050.149     1084.656        3.027        0.726      214.478       34.254        0.026      338.001       10.354      854.467
11/20/2013  16:34:00     -272.392      -69.437       -5.108       70.722       68.804       36.403     5001.589     4733.965     1325.176        4.505        0.553      281.103       32.798        0.014      338.000       10.351      854.465
11/20/2013  16:35:00     -195.865      -67.885       -7.000       89.087       89.185       40.566     7936.442     7953.969     1645.577        3.027        0.877      207.296       45.531        0.048      338.011       10.372      854.461
11/20/2013  16:36:00     -232.865      -94.085       -2.853       83.390       66.508       42.355     6953.939     4423.305     1793.977        3.813        0.659      251.153       40.135        0.026      338.002       10.356      854.465
11/20/2013  16:37:00     -232.134      -66.045      -14.648       64.561       70.561       37.632     4168.179     4978.839     1416.136        3.451        0.528      241.347       33.804        0.020      337.997       10.347      854.489
11/20/2013  16:38:00     -216.232      -46.896       -6.779       77.034       68.310       39.511     5934.258     4666.238     1561.132        3.058        0.608      221.259       39.588        0.032      337.997       10.347      854.518
11/20/2013  16:39:00     -281.984      -68.769      -14.514       70.690       48.247       37.350     4997.064     2327.757     1395.011        4.659        0.436      290.248       36.315        0.016      337.982       10.320      854.540
11/20/2013  16:40:00     -202.869      -87.540       -0.530       79.726       65.908       36.311     6356.166     4343.926     1318.493        3.042        0.601      220.951       33.883        0.024      337.994       10.341      854.553
11/20/2013  16:41:00     -272.066      -88.678      -15.412       76.892       77.437       47.496     5912.348     5996.524     2255.887        4.814        0.708      286.153       44.297        0.024      337.990       10.334      854.566
11/20/2013  16:42:00     -227.750        4.553       -7.486       63.155       94.316       40.355     3988.504     8895.546     1628.558        3.323        0.726      227.795       33.624        0.022      337.993       10.338      854.575
11/20/2013  16:43:00     -166.030       13.726       -9.107       93.392       56.521       36.684     8722.138     3194.664     1345.680        2.055        0.663      166.596       38.176        0.053      338.013       10.373      854.586
11/20/2013  16:44:00     -199.073      -95.463      -14.318       51.164       47.251       32.046     2617.804     2232.640     1026.968        2.741        0.294      220.779       18.400        0.007      338.026       10.394      854.588
11/20/2013  16:45:00     -250.169      -27.058      -23.289      100.243       58.789       45.493    10048.571     3456.179     2069.592        3.971        0.779      251.628       49.479        0.039      337.983       10.322      854.591
11/20/2013  16:46:00     -164.017      -64.877       -8.273       95.176       59.522       36.869     9058.472     3542.882     1359.290        2.257        0.698      176.382       40.715        0.053      338.001       10.354      854.589
11/20/2013  16:47:00     -146.166      -33.973      -18.699       44.619       75.103       23.390     1990.855     5640.534      547.082        1.552        0.409      150.062       24.158        0.026      338.027       10.399      854.590
11/20/2013  16:48:00     -144.748      -19.022      -10.624       66.437       59.307       28.466     4413.889     3517.292      810.303        1.508        0.437      145.992       19.529        0.018      338.012       10.374      854.594
11/20/2013  16:49:00     -147.460        1.763      -17.400       40.234       38.725       24.896     1618.763     1499.607      619.788        1.289        0.187      147.470       22.507        0.023      338.011       10.375      854.597
11/20/2013  16:50:00     -139.099      -30.573      -20.806       29.750       40.073       21.231      885.038     1605.860      450.747        1.183        0.147      142.420       14.397        0.010      338.038       10.420      854.607
11/20/2013  16:51:00       -7.014      -33.812       11.712       83.397       49.565       41.811     6955.076     2456.686     1748.177        0.624        0.558       34.532       45.390        1.728      338.069       10.470      854.613
11/20/2013  16:52:00     -133.242      -41.245      -22.695       27.762       26.951       16.776      770.735      726.344      281.418        1.087        0.089      139.480       10.046        0.005      338.021       10.389      854.628
11/20/2013  16:53:00     -132.251      -42.833       -5.766       39.275       59.558       26.584     1542.498     3547.142      706.725        1.258        0.290      139.014       19.680        0.020      338.009       10.370      854.640
11/20/2013  16:54:00     -136.130      -16.521      -14.617       63.650       36.937       29.380     4051.295     1364.367      863.169        1.265        0.314      137.129       24.521        0.032      338.016       10.380      854.648
11/20/2013  16:55:00     -239.456      -77.777      -15.389       60.833       63.288       42.336     3700.660     4005.413     1792.316        3.656        0.475      251.771       34.994        0.019      337.966       10.294      854.666
11/20/2013  16:56:00     -210.904      -56.051      -20.235       44.354       51.804       29.629     1967.259     2683.696      877.883        2.678        0.276      218.225       16.335        0.006      337.984       10.325      854.674
11/20/2013  16:57:00     -111.109       -9.426       -4.387       54.120       53.428       26.053     2929.015     2854.543      678.776        0.946        0.323      111.509       22.663        0.041      338.015       10.379      854.680
11/20/2013  16:58:00     -207.873      -59.228      -26.919       92.855       65.229       33.749     8622.001     4254.850     1138.969        3.073        0.701      216.146       28.871        0.018      337.994       10.343      854.687
11/20/2013  16:59:00     -274.130      -34.750      -27.290       56.021       46.406       32.616     3138.321     2153.538     1063.833        4.173        0.318      276.324       19.839        0.005      337.960       10.284      854.700
11/20/2013  17:00:00     -241.027      -41.817      -25.542       75.792       64.699       41.173     5744.394     4186.000     1695.257        3.606        0.581      244.627       39.224        0.026      337.981       10.319      854.700
11/20/2013  17:01:00     -250.206      -43.576      -18.977       54.299       43.899       34.012     2948.421     1927.117     1156.819        3.545        0.302      253.972       28.072        0.012      337.971       10.302      854.696
11/20/2013  17:02:00     -137.585      -10.611      -12.378       42.283       47.230       33.096     1787.861     2230.711     1095.352        1.215        0.256      137.994       22.356        0.026      338.035       10.412      854.687
11/20/2013  17:03:00     -245.052      -63.265       -3.053       94.770       77.161       44.479     8981.444     5953.887     1978.399        4.048        0.846      253.087       45.117        0.032      337.985       10.326      854.689
11/20/2013  17:04:00     -242.014      -47.039      -14.225       59.373       59.184       33.146     3525.095     3502.738     1098.658        3.455        0.406      246.543       26.920        0.012      337.979       10.316      854.684
11/20/2013  17:05:00     -223.331      -49.161       -2.733       87.674       81.752       42.190     7686.781     6683.441     1779.965        3.422        0.808      228.678       37.654        0.027      337.969       10.299      854.689
11/20/2013  17:06:00     -243.971      -73.433      -22.173       71.149       61.233       41.822     5062.126     3749.508     1749.059        3.798        0.528      254.783       43.367        0.029      337.960       10.282      854.691
11/20/2013  17:07:00     -213.373      -72.068      -12.907       63.242       59.641       31.450     3999.534     3557.086      989.073        2.972        0.427      225.215       24.049        0.011      337.980       10.317      854.695
11/20/2013  17:08:00     -146.167      -61.514       -9.034       80.925       60.684       42.274     6548.789     3682.502     1787.068        1.862        0.601      158.583       28.835        0.033      337.985       10.327      854.692
11/20/2013  17:09:00     -211.702      -44.793      -21.722      103.031       69.603       44.872    10615.487     4844.546     2013.531        3.238        0.874      216.389       40.904        0.036      337.967       10.297      854.697
11/20/2013  17:10:00     -114.415       -9.893       -6.968       66.970       64.886       31.125     4484.947     4210.166      968.748        1.145        0.483      114.842       33.752        0.086      337.992       10.339      854.695
11/20/2013  17:11:00     -139.166       31.108      -18.823       65.678       53.823       36.241     4313.542     2896.890     1313.434        1.460        0.426      142.600       32.988        0.054      337.978       10.318      854.681
11/20/2013  17:12:00      -42.302       -3.045        9.479       38.024       67.359       24.828     1445.838     4537.243      616.417        0.424        0.330       42.411       11.690        0.076      337.995       10.345      854.675
11/20/2013  17:13:00     -108.763       33.951      -13.680       71.709       54.260       30.903     5142.191     2944.115      954.997        1.110        0.452      113.939       39.413        0.120      338.010       10.369      854.674
11/20/2013  17:14:00     -157.778       84.579      -28.561       70.314       83.421       33.737     4944.006     6959.051     1138.190        2.295        0.652      179.018       35.293        0.039      337.955       10.277      854.671
11/20/2013  17:15:00      -72.343        7.090        5.508       47.928       48.953       35.248     2297.086     2396.409     1242.428        0.562        0.297       72.690       31.488        0.188      338.009       10.369      854.667
11/20/2013  17:16:00     -149.841       77.381      -21.071       71.888       62.973       28.685     5167.840     3965.581      822.832        1.942        0.498      168.642       29.952        0.032      337.997       10.349      854.667
11/20/2013  17:17:00     -157.178       46.606        0.425      104.704       51.689       45.459    10962.913     2671.782     2066.552        2.129        0.785      163.942       48.521        0.088      337.999       10.350      854.665
11/20/2013  17:18:00     -160.136       59.021      -11.807      104.152       74.118       46.570    10847.626     5493.529     2168.772        2.388        0.925      170.666       51.537        0.091      337.999       10.350      854.673
11/20/2013  17:19:00     -119.612       18.889       -0.621       87.030       59.468       46.460     7574.272     3536.478     2158.570        1.396        0.663      121.094       43.377        0.128      337.946       10.263      854.684
11/20/2013  17:20:00     -170.219       42.516      -16.159       95.635       52.084       38.727     9145.969     2712.771     1499.769        2.220        0.668      175.448       41.883        0.057      337.924       10.225      854.706
11/20/2013  17:21:00     -204.971       60.452      -29.837       89.478       56.416       40.919     8006.397     3182.808     1674.387        2.971        0.643      213.700       38.109        0.032      337.898       10.178      854.735
11/20/2013  17:22:00     -116.400       31.223       -4.042       71.392       53.188       32.557     5096.889     2828.925     1059.935        1.176        0.449      120.515       37.135        0.095      337.931       10.236      854.753
11/20/2013  17:23:00     -120.345       11.942      -20.503       56.078       90.049       39.462     3144.715     8108.896     1557.250        1.393        0.641      120.936       34.247        0.080      337.938       10.250      854.783
11/20/2013  17:24:00     -106.673       47.046      -16.671       65.897       72.316       41.506     4342.374     5229.603     1722.771        1.258        0.565      116.586       41.653        0.128      337.912       10.208      854.786
11/20/2013  17:25:00     -149.018       53.045      -15.724       48.416       80.353       41.973     2344.146     6456.634     1761.702        1.791        0.528      158.178       27.632        0.031      337.871       10.137      854.803
11/20/2013  17:26:00     -138.599       22.298      -12.034       84.258       74.068       42.915     7099.363     5486.121     1841.709        1.714        0.721      140.381       40.437        0.083      337.864       10.124      854.812
11/20/2013  17:27:00     -146.574       71.330      -15.109       84.115       44.431       33.490     7075.370     1974.100     1121.571        1.848        0.509      163.009       28.539        0.031      337.835       10.077      854.812
11/20/2013  17:28:00     -170.702       66.385      -21.461       76.451       50.309       38.675     5844.755     2530.964     1495.774        2.194        0.494      183.156       31.093        0.029      337.781        9.985      854.805
11/20/2013  17:29:00     -214.982       80.867      -26.851       72.804       51.651       30.559     5300.469     2667.810      933.855        3.119        0.445      229.688       22.070        0.009      337.760        9.949      854.798
11/20/2013  17:30:00      -86.459        9.776       -2.881       50.846       60.073       37.835     2585.289     3608.795     1431.465        0.760        0.381       87.010       32.018        0.135      337.776        9.978      854.774
11/20/2013  17:31:00     -127.648       96.160      -33.053       57.232       77.445       35.346     3275.457     5997.681     1249.367        1.858        0.526      159.815       35.196        0.049      337.766        9.961      854.758
11/20/2013  17:32:00     -169.945       84.978      -24.393       84.146       95.338       40.284     7080.577     9089.281     1622.812        2.724        0.890      190.007       22.999        0.015      337.735        9.908      854.729
11/20/2013  17:33:00      -62.009      105.628       -8.666       56.934       43.212       38.349     3241.449     1867.262     1470.628        1.083        0.329      122.484       30.923        0.064      337.797       10.013      854.715
11/20/2013  17:34:00      -86.569      116.789      -23.242       40.018       60.575       24.566     1601.424     3669.337      603.475        1.377        0.294      145.375       18.442        0.016      337.633        9.739      854.706
11/20/2013  17:35:00     -125.225       30.592       -9.950       50.132       68.312       33.066     2513.249     4666.515     1093.376        1.249        0.414      128.907       26.742        0.043      337.626        9.726      854.697
11/20/2013  17:36:00     -106.529       71.943      -13.693       42.042       58.196       34.812     1767.536     3386.808     1211.863        1.154        0.318      128.546       29.632        0.053      337.655        9.775      854.698
11/20/2013  17:37:00     -117.909       74.062       -9.299       81.157       85.374       42.218     6586.411     7288.673     1782.380        1.756        0.783      139.240       43.582        0.098      337.623        9.721      854.698
11/20/2013  17:38:00     -120.384      113.196      -15.551       69.863       66.605       33.439     4880.903     4436.273     1118.181        1.899        0.522      165.244       34.074        0.043      337.611        9.700      854.700
11/20/2013  17:39:00     -189.399      188.363      -42.543       77.143       85.180       40.913     5951.004     7255.610     1673.905        4.402        0.744      267.119       46.337        0.030      337.496        9.506      854.697
11/20/2013  17:40:00     -106.312      197.092      -24.444       58.207       73.899       45.156     3388.077     5461.097     2039.104        3.081        0.544      223.936       34.114        0.023      337.467        9.458      854.679
11/20/2013  17:41:00      -92.165      169.640      -24.829       57.411       72.988       37.704     3296.073     5327.262     1421.616        2.396        0.502      193.059       39.346        0.042      337.504        9.520      854.656
11/20/2013  17:42:00     -129.778      102.876      -15.343       70.620       66.432       43.776     4987.188     4413.179     1916.303        1.949        0.566      165.607       37.215        0.050      337.527        9.560      854.637
11/20/2013  17:43:00     -123.911      158.926      -17.800       80.568       82.110       43.095     6491.178     6742.085     1857.178        2.801        0.755      201.522       46.755        0.054      337.545        9.589      854.635
11/20/2013  17:44:00     -158.921      182.292      -45.009       66.279       72.259       44.184     4392.908     5221.299     1952.194        3.604        0.578      241.840       44.559        0.034      337.464        9.452      854.628
11/20/2013  17:45:00     -148.128      232.235      -33.378       77.663       87.101       53.101     6031.517     7586.600     2819.676        4.671        0.822      275.453       51.801        0.035      337.446        9.422      854.619
11/20/2013  17:46:00     -151.313      209.727      -34.113       74.123       78.479       42.706     5494.178     6159.026     1823.769        4.076        0.674      258.613       33.769        0.017      337.413        9.366      854.628
11/20/2013  17:47:00     -173.468      120.852      -32.693       83.888       69.779       47.325     7037.275     4869.091     2239.701        2.995        0.707      211.415       40.315        0.036      337.435        9.405      854.607
11/20/2013  17:48:00     -100.104      116.878      -26.850       65.641       82.383       37.477     4308.702     6787.027     1404.499        1.845        0.625      153.887       36.288        0.056      337.418        9.377      854.601
11/20/2013  17:49:00      -99.177      184.410      -24.310       66.394       64.381       39.370     4408.163     4144.888     1549.961        2.727        0.505      209.387       36.991        0.031      337.447        9.426      854.618
11/20/2013  17:50:00      -87.403      170.643      -12.696       62.992       98.942       37.141     3968.018     9789.552     1379.430        2.603        0.757      191.725       31.858        0.028      337.501        9.516      854.609
11/20/2013  17:51:00     -112.755      107.026      -33.316       36.601       80.951       31.864     1339.616     6553.001     1015.341        1.709        0.445      155.461       34.062        0.048      337.500        9.515      854.634
11/20/2013  17:52:00     -143.143      148.514      -21.556       76.655       74.536       43.567     5875.925     5555.592     1898.046        2.817        0.666      206.268       46.343        0.050      337.458        9.444      854.651
11/20/2013  17:53:00     -163.616      152.691      -35.878       64.391       90.552       42.360     4146.181     8199.627     1794.329        3.275        0.707      223.796       40.415        0.033      337.403        9.350      854.664
11/20/2013  17:54:00     -160.071      204.457      -37.963       94.090       90.032       47.651     8852.900     8105.837     2270.617        4.404        0.961      259.664       52.283        0.041      337.401        9.347      854.660
11/20/2013  17:55:00     -140.290      141.649      -18.723       98.766       65.492       50.769     9754.695     4289.171     2577.463        2.836        0.831      199.364       45.161        0.051      337.409        9.362      854.660
11/20/2013  17:56:00     -126.952      170.805      -30.721       69.536       95.567       38.757     4835.189     9133.050     1502.128        3.085        0.774      212.817       40.553        0.036      337.403        9.351      854.650
11/20/2013  17:57:00     -189.037      198.835      -48.667       84.313       93.192       46.744     7108.645     8684.684     2185.021        4.780        0.899      274.354       45.176        0.027      337.345        9.253      854.651
11/20/2013  17:58:00     -129.165      246.731      -32.648      105.669       77.250       52.430    11165.991     5967.491     2748.861        4.925        0.994      278.496       58.657        0.044      337.351        9.264      854.640
11/20/2013  17:59:00     -105.882      203.280      -35.720       71.716       71.726       39.544     5143.123     5144.668     1563.702        3.283        0.593      229.202       32.072        0.020      337.354        9.268      854.641
11/20/2013  18:00:00     -111.674      194.234      -24.225       69.966       78.558       45.400     4895.235     6171.402     2061.179        3.195        0.656      224.049       41.727        0.035      337.414        9.368      854.636
11/20/2013  18:01:00     -115.792      290.231      -38.456       92.288      100.620       52.303     8517.150    10124.304     2735.596        6.024        1.069      312.477       54.563        0.030      337.324        9.220      854.624
11/20/2013  18:02:00     -142.474      267.688      -47.849       79.890      113.522       45.535     6382.346    12887.229     2073.474        5.779        1.067      303.242       28.998        0.009      337.298        9.174      854.622
11/20/2013  18:03:00     -128.826      225.487      -29.026       87.790      112.667       48.899     7707.021    12693.910     2391.090        4.553        1.140      259.693       46.922        0.033      337.297        9.174      854.623
11/20/2013  18:04:00     -144.705      231.203      -35.164       53.852      111.980       45.988     2900.009    12539.515     2114.938        4.659        0.878      272.754       44.898        0.027      337.244        9.085      854.626
11/20/2013  18:05:00     -194.381      236.907      -55.381      112.166      139.373       57.201    12581.114    19424.945     3272.004        6.612        1.764      306.445       72.101        0.055      337.220        9.045      854.640
11/20/2013  18:06:00     -155.056      179.375      -37.968       82.438       86.196       45.818     6796.014     7429.768     2099.261        3.699        0.816      237.103       49.802        0.044      337.195        9.004      854.645
11/20/2013  18:07:00     -104.619      186.508      -22.395       62.099       78.783       45.931     3856.254     6206.833     2109.675        2.920        0.609      213.847       36.091        0.028      337.211        9.031      854.646
11/20/2013  18:08:00     -121.368      199.281      -24.120       75.125      100.883       55.076     5643.705    10177.327     3033.413        3.694        0.943      233.330       58.440        0.063      337.187        8.989      854.647
11/20/2013  18:09:00     -196.186      227.569      -51.889       77.957       77.358       48.452     6077.335     5984.328     2347.567        5.369        0.720      300.460       46.191        0.024      337.152        8.931      854.641
11/20/2013  18:10:00     -154.016      244.202      -32.228       92.312       99.921       51.953     8521.536     9984.125     2699.065        5.280        1.060      288.714       53.433        0.034      337.120        8.876      854.637
11/20/2013  18:11:00     -145.967      199.498      -24.950       75.925      107.279       53.862     5764.675    11508.708     2901.164        4.095        1.009      247.196       57.644        0.054      337.141        8.912      854.630
11/20/2013  18:12:00      -88.110      282.780      -28.640       72.901       77.870       56.640     5314.525     6063.736     3208.065        5.156        0.729      296.189       44.122        0.022      337.154        8.933      854.620
11/20/2013  18:13:00     -132.614      220.528      -38.948       83.261      110.447       49.602     6932.390    12198.601     2460.373        4.466        1.080      257.330       50.234        0.038      337.124        8.882      854.631
11/20/2013  18:14:00     -127.559      217.467      -35.688       98.649       73.084       48.322     9731.705     5341.258     2334.988        4.112        0.870      252.118       41.177        0.027      337.149        8.925      854.625
11/20/2013  18:15:00      -64.406      131.998      -10.340       53.845       71.192       45.671     2899.304     5068.323     2085.845        1.586        0.503      146.873       39.116        0.071      337.210        9.030      854.620
11/20/2013  18:16:00      -93.099      157.440      -22.457       55.172       83.915       36.180     3043.901     7041.644     1308.963        2.267        0.570      182.906       30.696        0.028      337.123        8.881      854.630
11/20/2013  18:17:00     -148.024      292.871      -39.905       86.213      103.856       55.934     7432.620    10786.115     3128.657        6.531        1.067      328.154       45.750        0.019      337.072        8.795      854.631
11/20/2013  18:18:00     -150.809      227.434      -33.845       90.654      112.541       52.823     8218.233    12665.475     2790.297        4.964        1.184      272.891       60.715        0.050      337.057        8.771      854.638
11/20/2013  18:19:00     -127.680      273.438      -25.745       77.164       83.875       60.550     5954.330     7035.052     3666.311        5.419        0.833      301.779       54.571        0.033      337.064        8.780      854.649
11/20/2013  18:20:00     -133.515      317.890      -37.406       67.483      112.646       54.775     4553.981    12689.058     3000.265        7.026        1.012      344.790       54.868        0.025      337.032        8.728      854.656
11/20/2013  18:21:00      -94.598      228.659      -20.825       73.334      110.698       54.014     5377.901    12254.091     2917.531        4.110        1.027      247.454       52.746        0.045      337.084        8.816      854.656
11/20/2013  18:22:00      -84.983      204.777      -32.265       67.218       89.201       40.321     4518.267     7956.772     1625.814        3.215        0.705      221.711       40.403        0.033      337.098        8.840      854.653
11/20/2013  18:23:00     -116.270      260.555      -20.955       78.662      116.952       60.992     6187.757    13677.664     3720.068        5.271        1.179      285.320       66.285        0.054      337.050        8.758      854.660
11/20/2013  18:24:00     -126.430      230.994      -41.600       80.725       90.272       44.332     6516.508     8149.113     1965.291        4.385        0.832      263.330       43.859        0.028      337.050        8.758      854.675
11/20/2013  18:25:00     -154.059      221.789      -44.417       82.143      111.745       48.544     6747.488    12487.001     2356.548        4.824        1.080      270.046       57.372        0.045      337.055        8.767      854.695
11/20/2013  18:26:00     -104.899      130.590      -14.555       77.974       80.716       44.242     6079.943     6515.089     1957.384        2.141        0.728      167.504       36.241        0.047      337.088        8.823      854.710
11/20/2013  18:27:00      -75.758      114.367      -15.281       57.576       61.524       42.499     3315.017     3785.242     1806.125        1.398        0.445      137.183       33.697        0.060      337.120        8.880      854.713
11/20/2013  18:28:00      -85.807      101.035       -4.001       65.418       91.541       42.416     4279.553     8379.783     1799.144        1.602        0.723      132.555       38.275        0.083      337.096        8.837      854.718
11/20/2013  18:29:00     -135.197      134.599      -26.471       70.349       66.807       47.118     4949.005     4463.185     2220.153        2.436        0.582      190.775       38.147        0.040      337.051        8.762      854.722
11/20/2013  18:30:00     -110.787      134.702      -16.848       66.613       59.407       39.229     4437.248     3529.170     1538.910        2.010        0.475      174.409       27.203        0.024      337.045        8.751      854.730
11/20/2013  18:31:00     -132.095      137.466      -37.247       81.131       81.377       43.889     6582.235     6622.193     1926.281        2.643        0.757      190.646       44.179        0.054      337.016        8.702      854.730
11/20/2013  18:32:00     -109.379      112.123      -34.574       66.435       81.536       41.302     4413.591     6648.179     1705.859        1.925        0.638      156.638       43.855        0.078      337.045        8.751      854.727
11/20/2013  18:33:00      -59.083      123.288       -8.180       66.881       67.240       45.560     4473.060     4521.221     2075.733        1.491        0.554      136.714       37.286        0.074      337.026        8.721      854.720
11/20/2013  18:34:00      -74.845       73.349      -10.395       48.752       80.287       26.568     2376.747     6446.023      705.839        1.031        0.476      104.795       17.679        0.028      337.105        8.855      854.717
11/20/2013  18:35:00      -49.304       88.057       -9.513       36.702       65.130       31.627     1347.010     4241.967     1000.249        0.843        0.329      100.920       24.769        0.060      337.048        8.755      854.707
11/20/2013  18:36:00      -90.134       74.281      -20.320       60.068       90.865       33.414     3608.197     8256.414     1116.514        1.352        0.649      116.798       23.857        0.042      337.068        8.792      854.700
11/20/2013  18:37:00      -99.004       63.563        6.075       78.738       73.376       46.753     6199.624     5384.020     2185.856        1.382        0.688      117.652       27.874        0.056      337.069        8.793      854.706
11/20/2013  18:38:00      -94.018      107.211      -12.736       51.403       49.798       30.462     2642.254     2479.888      927.903        1.327        0.303      142.596       26.351        0.034      337.041        8.747      854.708
11/20/2013  18:39:00     -107.408       31.629      -14.650       75.479       56.662       32.973     5697.073     3210.561     1087.196        1.137        0.500      111.968       28.361        0.064      337.037        8.739      854.720
11/20/2013  18:40:00     -103.511       94.487      -25.044       40.798       46.035       22.004     1664.486     2119.257      484.188        1.227        0.213      140.151       15.966        0.013      337.057        8.773      854.731
11/20/2013  18:41:00      -45.809       15.384       -8.590       48.805       40.123       33.908     2381.885     1609.830     1149.774        0.377        0.257       48.323       35.289        0.533      337.066        8.788      854.742
11/20/2013  18:42:00      -20.622       24.302        8.377       55.763       57.450       41.167     3109.538     3300.458     1694.693        0.459        0.405       31.873       32.291        1.026      337.115        8.870      854.751
11/20/2013  18:43:00      -18.293       43.923       -0.418       36.198       64.317       26.366     1310.329     4136.719      695.175        0.420        0.307       47.580       25.521        0.288      337.152        8.934      854.757
11/20/2013  18:44:00      -21.293        4.367       17.085       35.343       59.649       28.104     1249.125     3557.971      789.817        0.318        0.280       21.737       34.686        2.546      337.163        8.952      854.764
11/20/2013  18:45:00     -174.135      100.429      -43.634       68.290       64.498       34.331     4663.588     4160.014     1178.621        2.616        0.500      201.020       39.047        0.038      337.063        8.782      854.769
11/20/2013  18:46:00     -108.066      124.745      -29.072       71.410       53.470       39.546     5099.459     2859.010     1563.885        1.880        0.476      165.044       44.846        0.074      337.072        8.796      854.769
11/20/2013  18:47:00      -68.109      152.089      -17.038       51.426       55.383       39.439     2644.683     3067.273     1555.463        1.766        0.363      166.643       36.419        0.048      337.091        8.830      854.776
11/20/2013  18:48:00     -119.218       68.324      -14.272       59.227       72.051       35.892     3507.845     5191.323     1288.209        1.453        0.499      137.409       30.276        0.049      337.112        8.866      854.785
11/20/2013  18:49:00      -75.343       85.619       -7.187       49.368       82.803       35.334     2437.189     6856.405     1248.523        1.180        0.527      114.049       28.056        0.061      337.110        8.861      854.804
11/20/2013  18:50:00     -100.920       61.806       -3.654       86.451       55.639       33.341     7473.705     3095.709     1111.603        1.285        0.584      118.342       28.787        0.059      337.172        8.967      854.818
11/20/2013  18:51:00      -99.808       37.394      -15.636       59.536       57.276       29.144     3544.517     3280.527      849.360        0.964        0.384      106.584       18.756        0.031      337.120        8.879      854.829
11/20/2013  18:52:00      -99.763      -13.325       -9.510       39.088       51.748       27.323     1527.901     2677.832      746.565        0.759        0.248      100.649       23.475        0.054      337.122        8.882      854.841
11/20/2013  18:53:00      -50.883       74.692      -16.800       40.893       33.450       25.657     1672.242     1118.922      658.264        0.595        0.172       90.377       19.963        0.049      337.165        8.955      854.859
11/20/2013  18:54:00      -90.319      149.420      -20.817       41.613       96.835       27.406     1731.668     9377.010      751.114        2.139        0.593      174.596       31.310        0.032      337.100        8.844      854.872
11/20/2013  18:55:00      -18.864       77.334       -4.684       34.955       72.775       29.247     1221.835     5296.190      855.411        0.686        0.369       79.601       33.953        0.182      337.199        9.012      854.889
11/20/2013  18:56:00      -98.149      116.538      -21.756       75.524       89.917       37.561     5703.853     8085.058     1410.841        1.944        0.760      152.362       22.331        0.021      337.089        8.826      854.904
11/20/2013  18:57:00      -30.544      168.748      -20.774       46.840       75.123       34.986     2194.016     5643.475     1224.000        1.945        0.453      171.490       32.205        0.035      337.114        8.867      854.908
11/20/2013  18:58:00      -36.850        1.207        1.782       49.985       44.805       29.306     2498.459     2007.492      858.838        0.336        0.268       36.869       13.561        0.135      337.178        8.979      854.912
11/20/2013  18:59:00       10.437       31.559       17.298       26.679       36.898       27.344      711.775     1361.438      747.716        0.211        0.141       33.240       21.583        0.422      337.183        8.984      854.930
11/20/2013  19:00:00       18.753      169.831      -17.452       38.920      114.171       38.681     1514.747    13035.008     1496.218        2.277        0.802      170.863       47.851        0.078      337.027        8.722      854.954
11/20/2013  19:01:00      -53.589      165.019      -15.551       49.461       99.659       39.613     2446.420     9931.872     1569.169        2.214        0.697      173.502       28.355        0.027      336.967        8.623      854.970
11/20/2013  19:02:00     -166.352       90.154      -44.277       45.975       55.915       35.461     2113.739     3126.466     1257.501        2.213        0.325      189.211       27.808        0.022      336.922        8.545      854.996
11/20/2013  19:03:00      -49.790       74.667      -17.394       38.970       47.866       24.995     1518.627     2291.195      624.754        0.639        0.222       89.745       24.546        0.075      336.944        8.585      855.010
11/20/2013  19:04:00      -37.151       50.216       -1.989       25.941       35.499       23.280      672.936     1260.195      541.964        0.319        0.124       62.465       23.160        0.137      337.063        8.783      855.045
11/20/2013  19:05:00      -28.911       45.114        3.243       29.443       43.325       20.725      866.897     1877.073      429.514        0.303        0.159       53.583       15.560        0.084      337.111        8.863      855.072
11/20/2013  19:06:00      -58.198       -3.726        4.994       50.969       34.478       22.549     2597.836     1188.722      508.479        0.386        0.215       58.317       24.159        0.172      337.061        8.780      855.079
11/20/2013  19:07:00      -92.966      134.924      -31.894       77.479       98.726       46.373     6003.032     9746.815     2150.501        2.288        0.895      163.851       29.952        0.033      336.921        8.546      855.094
11/20/2013  19:08:00      -45.350       39.559        8.217       53.333       74.193       37.889     2844.370     5504.575     1435.542        0.673        0.489       60.179       25.328        0.177      336.949        8.591      855.079
11/20/2013  19:09:00      -69.474      142.121       -9.750       79.678       84.673       43.995     6348.543     7169.536     1935.518        2.028        0.773      158.193       43.199        0.075      336.978        8.640      855.087
11/20/2013  19:10:00      -49.987      158.353      -21.816       63.206       58.251       37.500     3995.012     3393.178     1406.258        1.842        0.440      166.056       31.302        0.036      336.975        8.634      855.097
11/20/2013  19:11:00      -66.133       96.317        6.736       82.992       69.973       52.177     6887.611     4896.290     2722.452        1.410        0.725      116.835       51.402        0.194      336.934        8.567      855.121
11/20/2013  19:12:00     -147.307      150.058      -24.808      121.915       94.604       63.400    14863.365     8949.891     4019.526        3.633        1.392      210.278       51.991        0.061      336.831        8.394      855.132
11/20/2013  19:13:00     -207.204      246.051      -32.619       99.432      131.051       63.913     9886.719    17174.488     4084.871        6.784        1.557      321.674       65.306        0.041      336.684        8.148      855.137
11/20/2013  19:14:00     -153.746      193.727      -23.304      104.090       97.416       56.100    10834.626     9489.855     3147.179        4.259        1.174      247.322       46.975        0.036      336.656        8.104      855.135
11/20/2013  19:15:00     -146.000      200.927      -21.387      123.796      110.775       80.300    15325.480    12271.111     6448.039        4.809        1.702      248.370       85.136        0.117      336.664        8.116      855.143
11/20/2013  19:16:00     -160.069      272.907      -33.382      118.862      120.279       59.900    14128.171    14467.060     3588.004        6.669        1.609      316.386       45.534        0.021      336.532        7.893      855.145
11/20/2013  19:17:00     -136.089      215.025      -19.396       91.197      109.265       61.647     8316.837    11938.752     3800.305        4.459        1.203      254.472       36.378        0.020      336.522        7.876      855.160
11/20/2013  19:18:00     -171.011      248.911      -37.655       80.250      100.846       55.859     6440.009    10169.913     3120.242        5.617        0.987      301.996       48.877        0.026      336.466        7.782      855.168
11/20/2013  19:19:00     -124.858      233.925      -13.301      102.000      114.309       68.875    10403.999    13066.524     4743.760        4.935        1.411      265.161       59.186        0.050      336.455        7.763      855.171
11/20/2013  19:20:00     -145.654      258.689      -30.798      119.916      152.656       80.936    14379.807    23303.767     6550.701        6.665        2.212      296.875       87.761        0.087      336.419        7.703      855.162
11/20/2013  19:21:00     -176.559      273.919      -49.006      122.903      122.999       60.528    15105.202    15128.712     3663.594        7.125        1.695      325.891       71.372        0.048      336.382        7.641      855.158
11/20/2013  19:22:00     -168.008      307.860      -32.311      126.744      145.922       71.442    16063.955    21293.376     5103.920        8.325        2.123      350.720       78.799        0.050      336.363        7.611      855.170
11/20/2013  19:23:00     -189.343      292.601      -44.681      112.230      135.673       67.740    12595.547    18407.155     4588.688        7.952        1.780      348.520       71.916        0.043      336.317        7.532      855.179
11/20/2013  19:24:00     -160.388      252.021      -32.374      103.617      152.306       59.187    10736.558    23197.020     3503.131        6.385        1.872      298.729       75.470        0.064      336.346        7.583      855.177
11/20/2013  19:25:00     -173.896      341.328      -50.944      100.195      128.987       67.891    10039.034    16637.658     4609.166        9.031        1.564      383.072       62.122        0.026      336.278        7.468      855.182
11/20/2013  19:26:00     -176.512      335.973      -55.268      119.557      142.270       68.381    14293.843    20240.858     4675.931        9.314        1.961      379.519       79.721        0.044      336.268        7.451      855.197
11/20/2013  19:27:00     -175.107      309.325      -39.309      113.218      149.068       68.935    12818.210    22221.285     4752.058        8.383        1.990      355.449       80.505        0.051      336.279        7.469      855.206
11/20/2013  19:28:00     -182.681      393.404      -44.940      118.801      131.999       75.976    14113.747    17423.818     5772.411       11.373        1.865      433.750       66.165        0.023      336.248        7.419      855.207
11/20/2013  19:29:00     -145.395      323.616      -24.232      113.021      145.323       72.192    12773.726    21118.773     5211.661        8.277        1.955      354.778       77.946        0.048      336.251        7.424      855.230
11/20/2013  19:30:00     -186.646      342.868      -50.576      103.039      153.633       63.086    10617.059    23603.082     3979.865        9.657        1.910      390.378       46.126        0.014      336.218        7.368      855.246
11/20/2013  19:31:00     -128.088      244.164      -32.918       97.256      115.322       61.113     9458.705    13299.134     3734.826        5.179        1.325      275.722       60.942        0.049      336.243        7.411      855.258
11/20/2013  19:32:00     -135.490      265.992      -31.633       67.978      109.555       51.161     4621.050    12002.250     2617.493        5.467        0.962      298.512       29.326        0.010      336.188        7.318      855.252
11/20/2013  19:33:00     -182.088      273.906      -46.486      108.486      112.373       67.269    11769.133    12627.660     4525.172        6.963        1.446      328.908       58.226        0.031      336.117        7.201      855.273
11/20/2013  19:34:00     -232.334      232.655      -46.834      149.850      127.532       79.459    22455.101    16264.473     6313.748        7.766        2.252      328.797       98.272        0.089      336.057        7.099      855.289
11/20/2013  19:35:00     -184.522      296.481      -48.382       93.134      118.414       63.091     8673.974    14021.842     3980.482        7.548        1.334      349.213       52.573        0.023      336.002        7.008      855.308
11/20/2013  19:36:00     -241.742      335.433      -53.365      138.412      156.097       81.444    19158.007    24366.319     6633.086       11.197        2.508      413.467       81.212        0.039      335.981        6.973      855.287
11/20/2013  19:37:00     -202.636      399.912      -51.141      120.600      139.270       80.648    14544.393    19396.179     6504.051       12.202        2.022      448.321       84.931        0.036      335.968        6.953      855.297
11/20/2013  19:38:00     -108.507      201.512      -22.464       88.687       88.906       62.720     7865.306     7904.227     3933.753        3.629        0.985      228.869       49.753        0.047      335.970        6.954      855.300
11/20/2013  19:39:00     -245.318      297.554      -63.973      131.793      178.899       72.835    17369.367    32004.767     5304.905       10.373        2.734      385.641       86.984        0.051      335.900        6.838      855.314
11/20/2013  19:40:00     -184.061      238.591      -31.078      122.715      151.162       74.292    15058.933    22849.920     5519.341        6.759        2.171      301.337       66.517        0.049      335.927        6.885      855.333
11/20/2013  19:41:00     -158.689      263.148      -32.909      145.801      136.478       83.889    21258.026    18626.264     7037.392        7.121        2.346      307.293       87.790        0.082      335.868        6.785      855.361
11/20/2013  19:42:00     -249.142      305.676      -55.196      127.270      180.908       86.157    16197.724    32727.877     7422.982       10.744        2.817      394.347      110.859        0.079      335.832        6.725      855.370
11/20/2013  19:43:00     -163.439      414.729      -41.818      109.484      133.987       73.618    11986.774    17952.580     5419.574       11.790        1.768      445.772       65.300        0.021      335.843        6.742      855.395
11/20/2013  19:44:00     -219.546      242.525      -41.260      119.185      146.046       67.536    14205.134    21329.499     4561.057        7.440        2.005      327.138       73.924        0.051      335.860        6.771      855.409
11/20/2013  19:45:00     -176.909      308.732      -54.668      152.543      114.590       60.091    23269.242    13130.791     3610.881        8.480        2.001      355.826       66.919        0.035      335.836        6.732      855.423
11/20/2013  19:46:00     -170.388      372.890      -45.321      125.529      119.481       74.473    15757.617    14275.820     5546.266       10.285        1.779      409.974       71.732        0.031      335.823        6.711      855.426
11/20/2013  19:47:00     -226.298      285.648      -53.743      129.787      131.874       65.522    16844.598    17390.853     4293.160        8.710        1.926      364.425       61.866        0.029      335.813        6.693      855.426
11/20/2013  19:48:00     -199.201      299.967      -50.165       90.897      116.613       66.478     8262.329    13598.631     4419.380        7.922        1.314      360.085       53.418        0.022      335.803        6.676      855.436
11/20/2013  19:49:00     -171.320      358.805      -45.089      109.943      135.037       63.255    12087.482    18234.984     4001.213        9.722        1.716      397.607       50.623        0.016      335.808        6.685      855.436
11/20/2013  19:50:00     -261.291      413.881      -67.311      146.086      114.768       77.117    21341.237    13171.746     5947.031       14.227        2.023      489.459       76.165        0.024      335.793        6.660      855.451
11/20/2013  19:51:00     -196.058      356.400      -46.978      153.480      170.003       90.951    23556.152    28900.916     8272.138       11.419        3.036      406.768       95.386        0.055      335.821        6.705      855.456
11/20/2013  19:52:00     -161.956      257.748      -34.342       90.414      138.541       73.516     8174.713    19193.663     5404.648        6.330        1.639      304.408       74.440        0.060      335.821        6.706      855.471
11/20/2013  19:53:00     -207.316      333.209      -59.099      115.400       88.207       67.989    13317.151     7780.415     4622.562        9.161        1.286      392.439       76.283        0.038      335.760        6.604      855.489
11/20/2013  19:54:00     -183.398      336.303      -54.955      123.914      148.204       70.932    15354.637    21964.571     5031.296        9.604        2.118      383.059       78.639        0.042      335.763        6.610      855.511
11/20/2013  19:55:00     -232.280      351.529      -61.854      107.248      124.334       63.349    11502.110    15458.957     4013.071       10.616        1.549      421.340       58.797        0.019      335.738        6.568      855.539
11/20/2013  19:56:00     -182.660      311.306      -48.613       92.248      115.450       58.754     8509.769    13328.670     3452.055        7.896        1.265      360.938       52.023        0.021      335.729        6.553      855.565
11/20/2013  19:57:00     -158.157      175.318      -38.102      107.887      113.878       52.737    11639.701    12968.313     2781.215        4.229        1.369      236.114       64.705        0.075      335.710        6.524      855.587
11/20/2013  19:58:00     -115.758      279.539      -26.209      101.366      137.903       64.288    10275.143    19017.165     4132.900        6.282        1.671      302.559       59.393        0.039      335.731        6.557      855.600
11/20/2013  19:59:00     -198.978      327.196      -24.480      149.119      158.515      100.614    22236.431    25126.898    10123.172       10.236        2.874      382.948       91.372        0.057      335.664        6.446      855.616
11/20/2013  20:00:00     -217.261      369.029      -58.862      135.812      144.234       69.413    18444.894    20803.342     4818.154       11.545        2.203      428.234       77.896        0.033      335.663        6.442      855.650
11/20/2013  20:01:00     -187.944      310.911      -51.769      149.305      130.331       74.178    22291.950    16986.094     5502.373        8.972        2.239      363.302       90.000        0.061      335.642        6.410      855.665
11/20/2013  20:02:00     -174.020      278.382      -55.193      114.086      124.168       42.736    13015.636    15417.630     1826.392        7.054        1.513      328.298       46.135        0.020      335.621        6.373      855.673
11/20/2013  20:03:00     -195.977      269.911      -47.079      162.476      120.435       68.163    26398.321    14504.657     4646.175        7.950        2.277      333.555       60.897        0.033      335.612        6.359      855.677
11/20/2013  20:04:00     -205.782      277.337      -36.337      103.098      126.660       71.804    10629.299    16042.853     5155.860        7.620        1.591      345.343       62.686        0.033      335.543        6.245      855.683
11/20/2013  20:05:00     -190.544      327.459      -54.398       96.388      123.665       68.141     9290.589    15293.074     4643.152        8.786        1.461      378.862       72.602        0.037      335.524        6.213      855.700
11/20/2013  20:06:00     -136.661      249.844      -38.734       93.837       97.887       61.817     8805.366     9581.836     3821.360        5.240        1.110      284.778       61.983        0.047      335.543        6.243      855.733
11/20/2013  20:07:00     -122.019      319.601      -26.652       93.468      143.937       69.998     8736.286    20717.935     4899.729        7.604        1.718      342.102       74.259        0.047      335.515        6.197      855.747
11/20/2013  20:08:00     -116.604      248.907      -27.574       92.567      104.006       55.512     8568.690    10817.256     3081.561        4.938        1.123      274.865       50.948        0.034      335.532        6.225      855.735
11/20/2013  20:09:00     -186.390      375.091      -56.125      151.709      195.320       77.395    23015.767    38150.005     5990.034       12.286        3.358      418.849       86.622        0.043      335.457        6.102      855.745
11/20/2013  20:10:00     -136.055      334.626      -32.060      102.391      125.032       70.575    10483.841    15632.905     4980.842        8.130        1.555      361.228       68.227        0.036      335.453        6.092      855.776
11/20/2013  20:11:00      -99.740      281.271      -26.128       93.563      177.877       66.341     8753.972    31640.079     4401.126        6.726        2.240      298.431       80.050        0.072      335.469        6.121      855.785
11/20/2013  20:12:00     -137.030      313.350      -44.275      102.971      106.443       64.592    10602.968    11330.213     4172.180        7.251        1.305      342.002       39.765        0.014      335.455        6.096      855.786
11/20/2013  20:13:00      -89.789      276.375      -32.213       71.090      107.714       49.351     5053.825    11602.340     2435.549        5.228        0.955      290.595       44.144        0.023      335.446        6.081      855.793
11/20/2013  20:14:00     -125.854      330.250      -40.994       81.648      128.265       61.145     6666.409    16451.942     3738.764        7.672        1.343      353.418       61.982        0.031      335.427        6.050      855.792
11/20/2013  20:15:00     -155.348      432.025      -52.632      128.590      129.318       76.838    16535.502    16723.165     5904.104       12.635        1.958      459.106       67.581        0.022      335.383        5.978      855.803
11/20/2013  20:16:00     -194.228      464.209      -55.667      111.882      115.484       66.472    12517.487    13336.569     4418.530       14.329        1.514      503.205       63.040        0.016      335.347        5.917      855.808
11/20/2013  20:17:00     -102.098      348.681      -52.534       79.787      148.171       51.918     6365.953    21954.642     2695.511        8.288        1.551      363.322       58.034        0.026      335.361        5.939      855.808
11/20/2013  20:18:00     -136.748      323.442      -37.201      113.217      133.960       68.517    12818.131    17945.399     4694.538        8.007        1.773      351.163       72.618        0.043      335.349        5.918      855.814
11/20/2013  20:19:00     -154.390      274.048      -38.300      106.469       91.220       57.660    11335.652     8321.097     3324.628        6.169        1.149      314.546       50.743        0.026      335.342        5.907      855.824
11/20/2013  20:20:00     -153.919      287.805      -35.650       98.100      111.847       67.161     9623.690    12509.699     4510.554        6.721        1.332      326.379       68.123        0.044      335.331        5.889      855.827
11/20/2013  20:21:00     -122.820      296.629      -28.967       77.361      114.527       60.625     5984.779    13116.342     3675.442        6.334        1.139      321.051       53.979        0.028      335.343        5.909      855.838
11/20/2013  20:22:00     -102.627      291.198      -28.216      101.525      135.626       56.360    10307.393    18394.412     3176.420        6.400        1.594      308.754       48.348        0.025      335.371        5.957      855.840
11/20/2013  20:23:00     -120.651      339.853      -37.721      106.462      145.163       71.659    11334.181    21072.441     5135.016        8.450        1.877      360.634       75.489        0.044      335.304        5.845      855.849
11/20/2013  20:24:00      -98.147      310.235      -32.014       79.843      114.705       55.854     6374.936    13157.199     3119.654        6.477        1.133      325.390       47.915        0.022      335.339        5.902      855.853
11/20/2013  20:25:00     -168.545      357.560      -39.877      104.741      111.584       73.088    10970.659    12451.057     5341.892        9.330        1.438      395.293       63.925        0.026      335.307        5.850      855.849
11/20/2013  20:26:00     -133.286      255.020      -35.107       89.228      112.307       62.875     7961.666    12612.798     3953.222        5.428        1.226      287.751       49.030        0.029      335.324        5.879      855.882
11/20/2013  20:27:00     -153.034      346.162      -40.400      104.336      135.054       78.241    10886.071    18239.493     6121.732        9.006        1.762      378.481       80.348        0.045      335.323        5.877      855.877
11/20/2013  20:28:00     -150.929      170.242      -34.693      105.254      120.712       70.740    11078.457    14571.501     5004.161        4.180        1.533      227.513       69.171        0.092      335.345        5.914      855.899
11/20/2013  20:29:00     -182.172      257.736      -44.524       95.572      121.871       55.564     9134.094    14852.595     3087.310        6.433        1.354      315.618       43.423        0.019      335.275        5.797      855.929
11/20/2013  20:30:00     -123.580      395.683      -34.043      103.332      125.104       62.515    10677.594    15650.951     3908.069       10.161        1.512      414.533       56.336        0.018      335.285        5.814      855.928
11/20/2013  20:31:00     -225.321      237.202      -57.801       94.771      142.860       72.700     8981.501    20408.900     5285.333        7.252        1.734      327.161       72.031        0.048      335.292        5.826      855.921
11/20/2013  20:32:00     -142.180      231.755      -34.480       70.102       94.287       49.729     4914.246     8890.056     2473.020        4.569        0.814      271.893       47.467        0.030      335.309        5.853      855.928
11/20/2013  20:33:00     -216.231      271.910      -44.154       98.246      147.212       63.035     9652.258    21671.405     3973.451        7.896        1.765      347.406       71.279        0.042      335.299        5.837      855.945
11/20/2013  20:34:00     -186.749      292.495      -51.772      112.246      123.846       74.898    12599.145    15337.808     5609.756        7.832        1.677      347.028       73.220        0.045      335.300        5.837      855.977
11/20/2013  20:35:00     -231.889      289.302      -58.396      135.544      137.669       71.146    18372.150    18952.760     5061.724        9.162        2.119      370.767       79.999        0.047      335.262        5.775      856.001
11/20/2013  20:36:00     -170.357      299.762      -61.417      129.059       92.638       67.606    16656.345     8581.745     4570.570        7.622        1.490      344.788       70.770        0.042      335.252        5.759      856.014
11/20/2013  20:37:00     -110.952      313.809      -30.793       94.364      141.368       54.998     8904.653    19984.960     3024.728        7.182        1.596      332.846       58.130        0.031      335.285        5.813      855.995
11/20/2013  20:38:00     -202.637      272.531      -43.438       83.721      121.084       53.155     7009.255    14661.260     2825.421        7.085        1.225      339.610       58.135        0.029      335.249        5.753      856.013
11/20/2013  20:39:00     -266.552      286.281      -64.004      124.251       92.485       68.337    15438.344     8553.557     4669.931        9.288        1.433      391.161       65.666        0.028      335.223        5.710      856.046
11/20/2013  20:40:00     -174.769      225.358      -44.771       67.447       72.212       40.739     4549.156     5214.518     1659.680        4.738        0.571      285.185       41.288        0.021      335.223        5.707      856.063
11/20/2013  20:41:00     -101.520      108.927       -5.735       94.845       68.877       57.293     8995.505     4744.093     3282.444        1.961        0.851      148.901       52.207        0.123      335.267        5.785      856.080
11/20/2013  20:42:00     -152.106      208.122      -32.826       92.946      100.651       61.148     8639.004    10130.724     3739.070        4.501        1.125      257.781       59.175        0.053      335.212        5.692      856.100
11/20/2013  20:43:00     -126.271      140.842      -19.009      118.731      103.929       56.807    14096.955    10801.335     3227.081        3.213        1.406      189.158       57.058        0.091      335.219        5.706      856.109
11/20/2013  20:44:00     -141.335      221.395      -44.676      103.426       92.961       60.786    10696.837     8641.786     3694.984        4.701        1.152      262.662       53.686        0.042      335.161        5.609      856.130
11/20/2013  20:45:00     -154.607      219.073      -32.552      120.168      109.377       62.737    14440.273    11963.312     3935.993        5.164        1.517      268.134       67.161        0.063      335.127        5.551      856.159
11/20/2013  20:46:00      -81.041      180.271      -11.035       63.938      103.948       51.111     4088.104    10805.155     2612.315        2.834        0.875      197.650       49.408        0.062      335.164        5.614      856.176
11/20/2013  20:47:00      -82.093      201.803      -23.133       74.971      157.183       52.580     5620.603    24706.521     2764.677        4.054        1.655      217.862       60.524        0.077      335.118        5.538      856.188
11/20/2013  20:48:00      -91.886      257.241      -37.239       54.752       98.990       44.947     2997.800     9798.943     2020.224        4.541        0.741      273.159       44.013        0.026      335.097        5.503      856.202
11/20/2013  20:49:00     -132.930      236.337      -29.280       87.133      131.019       57.172     7592.228    17166.075     3268.662        5.120        1.401      271.156       65.750        0.059      335.058        5.439      856.218
11/20/2013  20:50:00     -142.204      191.653      -27.311      132.823      149.411       70.650    17641.897    22323.671     4991.433        5.132        2.248      238.648       94.687        0.157      335.068        5.455      856.239
11/20/2013  20:51:00     -113.590      166.882      -26.425       74.036       66.743       43.757     5481.316     4454.622     1914.653        2.665        0.593      201.872       31.641        0.025      335.015        5.367      856.253
11/20/2013  20:52:00     -193.878      197.044      -41.011      116.286       98.170       56.323    13522.394     9637.346     3172.308        5.221        1.317      276.432       54.255        0.039      334.954        5.266      856.270
11/20/2013  20:53:00     -179.902      301.403      -55.938      141.316       98.794       63.098    19970.234     9760.229     3981.299        8.002        1.686      351.010       69.499        0.039      334.935        5.234      856.289
11/20/2013  20:54:00     -206.429      293.952      -47.058       92.521      129.654       60.356     8560.210    16810.256     3642.852        8.012        1.451      359.194       69.092        0.037      334.876        5.133      856.298
11/20/2013  20:55:00     -206.417      297.239      -49.826      121.598      115.863       67.242    14786.074    13424.350     4521.501        8.308        1.637      361.883       65.764        0.033      334.857        5.102      856.308
11/20/2013  20:56:00     -102.798      235.496      -28.620       81.145      142.415       57.703     6584.577    20282.102     3329.674        4.851        1.510      256.955       60.464        0.055      334.869        5.123      856.310
11/20/2013  20:57:00     -208.338      222.189      -47.594      104.209      115.504       65.126    10859.555    13341.168     4241.401        6.173        1.422      304.586       57.563        0.036      334.796        5.003      856.331
11/20/2013  20:58:00     -128.835      241.414      -22.018      106.251      150.780       72.219    11289.220    22734.493     5215.628        5.729        1.962      273.640       69.549        0.065      334.760        4.943      856.337
11/20/2013  20:59:00     -193.535      303.582      -40.367      137.266      167.652       74.072    18841.826    28107.227     5486.668        9.183        2.622      360.025       92.980        0.067      334.690        4.825      856.366
11/20/2013  21:00:00     -237.696      341.757      -61.676      126.368      114.610       79.924    15968.764    13135.513     6387.794       10.629        1.775      416.290       69.746        0.028      334.615        4.699      856.372
11/20/2013  21:01:00      -89.627      257.355      -23.355       90.551      108.500       62.882     8199.404    11772.336     3954.175        4.936        1.196      272.515       63.744        0.055      334.624        4.715      856.374
11/20/2013  21:02:00     -113.996      203.180      -26.475       81.513       92.320       53.465     6644.388     8523.026     2858.544        3.650        0.901      232.975       38.556        0.027      334.619        4.706      856.384
11/20/2013  21:03:00     -215.789      258.656      -40.199      123.927      177.880       80.725    15357.933    31641.296     6516.463        8.429        2.676      336.849       92.852        0.076      334.563        4.615      856.395
11/20/2013  21:04:00     -111.993      171.914      -23.102       90.876       70.910       52.018     8258.467     5028.187     2705.853        2.931        0.800      205.175       51.758        0.064      334.555        4.600      856.393
11/20/2013  21:05:00     -163.000      289.871      -33.544      110.603      117.670       68.447    12233.018    13846.324     4685.039        7.124        1.538      332.557       68.983        0.043      334.505        4.518      856.390
11/20/2013  21:06:00     -136.432      266.616      -39.086      120.738      115.202       60.740    14577.606    13271.423     3689.356        6.138        1.577      299.496       50.442        0.028      334.513        4.531      856.384
11/20/2013  21:07:00     -167.771      304.030      -28.092      112.759      138.285       76.210    12714.576    19122.634     5807.891        7.950        1.882      347.248       65.123        0.035      334.503        4.516      856.386
11/20/2013  21:08:00     -130.943      354.399      -39.284       99.552      142.172       73.700     9910.541    20212.999     5431.641        8.991        1.778      377.816       59.927        0.025      334.500        4.512      856.394
11/20/2013  21:09:00     -143.819      302.213      -22.933      130.351      140.155       73.621    16991.340    19643.390     5420.037        7.729        2.103      334.689       70.637        0.045      334.544        4.582      856.398
11/20/2013  21:10:00     -154.628      418.034      -34.909       97.167      140.199       66.346     9441.489    19655.620     4401.731       11.668        1.675      445.715       72.826        0.027      334.481        4.478      856.416
11/20/2013  21:11:00     -132.896      350.717      -44.008      101.136      145.733       67.697    10228.508    21238.203     4582.875        8.932        1.802      375.052       72.538        0.037      334.461        4.446      856.451
11/20/2013  21:12:00     -190.705      345.715      -35.496      160.501      195.076       83.584    25760.542    38054.783     6986.335       11.396        3.540      394.825      104.795        0.070      334.446        4.423      856.457
11/20/2013  21:13:00     -103.252      214.942      -16.086       76.543      112.825       55.032     5858.904    12729.459     3028.518        3.936        1.081      238.456       37.611        0.025      334.498        4.508      856.487
11/20/2013  21:14:00      -95.687      240.298      -18.242       97.009      142.430       56.422     9410.717    20286.182     3183.425        5.005        1.644      258.649       59.695        0.053      334.450        4.426      856.496
11/20/2013  21:15:00      -90.247      227.209      -25.280       86.658      107.746       52.031     7509.528    11609.305     2707.237        4.111        1.091      244.476       56.858        0.054      334.452        4.431      856.500
11/20/2013  21:16:00     -128.769      280.956      -27.236      108.504      118.142       58.758    11773.202    13957.523     3452.502        6.272        1.459      309.059       56.471        0.033      334.431        4.395      856.523
11/20/2013  21:17:00     -176.777      260.120      -31.192      131.951      140.251       69.851    17411.046    19670.386     4879.119        7.091        2.098      314.503       85.358        0.074      334.389        4.327      856.541
11/20/2013  21:18:00     -110.331      274.352      -38.340      104.324      109.755       60.410    10883.435    12046.077     3649.356        5.774        1.329      295.706       50.459        0.029      334.369        4.291      856.552
11/20/2013  21:19:00     -178.449      184.837      -29.622      117.011       82.105       56.480    13691.625     6741.255     3190.014        4.525        1.181      256.922       53.896        0.044      334.349        4.259      856.565
11/20/2013  21:20:00     -154.550      200.000      -40.901       75.221       71.385       40.055     5658.146     5095.825     1604.382        3.896        0.618      252.756       23.427        0.009      334.323        4.215      856.582
11/20/2013  21:21:00      -71.330       93.105       -4.072       59.306       58.272       43.347     3517.148     3395.635     1878.941        1.128        0.440      117.288       23.958        0.042      334.368        4.294      856.602
11/20/2013  21:22:00     -103.507      116.077      -16.653       91.357       74.599       39.747     8346.174     5564.960     1579.851        1.997        0.775      155.524       38.251        0.060      334.353        4.270      856.615
11/20/2013  21:23:00     -203.007      341.838      -58.785       98.179      119.167       61.413     9639.066    14200.748     3771.543        9.456        1.381      397.574       44.815        0.013      334.238        4.074      856.630
11/20/2013  21:24:00      -97.378      277.950      -36.342       90.761       88.867       44.712     8237.595     7897.330     1999.154        5.309        0.907      294.514       34.787        0.014      334.222        4.047      856.632
11/20/2013  21:25:00     -137.098      253.861      -31.034      110.166      114.007       60.262    12136.476    12997.562     3631.525        5.648        1.438      288.516       57.119        0.039      334.237        4.071      856.647
11/20/2013  21:26:00     -127.970      266.727      -33.886      102.512      120.347       67.476    10508.608    14483.304     4552.998        5.910        1.477      295.837       62.366        0.044      334.202        4.016      856.645
11/20/2013  21:27:00     -127.295      263.431      -31.894      100.314      100.738       62.169    10062.935    10148.193     3865.015        5.534        1.204      292.574       59.746        0.042      334.164        3.952      856.657
11/20/2013  21:28:00     -124.973      256.464      -28.338      112.817      115.918       59.349    12727.664    13436.938     3522.247        5.594        1.484      285.293       53.124        0.035      334.145        3.920      856.653
11/20/2013  21:29:00      -78.859      216.909      -22.174      115.263      122.022       63.054    13285.493    14889.373     3975.851        4.295        1.608      230.800       64.097        0.077      334.161        3.948      856.680
11/20/2013  21:30:00     -156.318      308.678      -47.579       94.820      133.985       60.709     8990.781    17951.890     3685.642        7.630        1.531      346.002       59.438        0.030      334.084        3.820      856.689
11/20/2013  21:31:00      -93.578      268.917      -27.573       63.421      164.920       60.107     4022.253    27198.444     3612.873        5.833        1.742      284.733       77.532        0.074      334.075        3.806      856.700
11/20/2013  21:32:00      -48.557      195.825      -23.429       65.395      113.157       48.077     4276.504    12804.583     2311.382        3.032        0.970      201.755       41.105        0.042      334.085        3.822      856.708
11/20/2013  21:33:00     -161.342      294.297      -45.217      130.708      111.314       69.319    17084.454    12390.798     4805.154        7.448        1.714      335.621       77.794        0.054      334.019        3.711      856.717
11/20/2013  21:34:00      -81.227      276.898      -25.715       73.986      113.506       58.686     5473.951    12883.543     3444.046        5.286        1.090      288.566       59.251        0.042      334.015        3.706      856.728
11/20/2013  21:35:00      -71.045      255.329      -26.175       73.556      120.092       49.840     5410.478    14422.015     2484.018        4.662        1.116      265.028       54.238        0.042      334.010        3.699      856.737
11/20/2013  21:36:00     -127.887      234.995      -26.660       96.004       95.372       52.265     9216.683     9095.738     2731.616        4.666        1.052      267.540       53.636        0.040      333.963        3.620      856.735
11/20/2013  21:37:00     -138.851      321.602      -39.521       99.143      114.205       62.032     9829.325    13042.799     3847.920        7.549        1.336      350.296       65.275        0.035      333.894        3.506      856.748
11/20/2013  21:38:00      -92.978      185.059      -18.191       88.085       80.461       55.194     7759.038     6474.047     3046.345        3.025        0.864      207.103       56.997        0.076      333.945        3.590      856.755
11/20/2013  21:39:00     -117.815      232.599      -24.780      103.321      133.465       65.660    10675.176    17812.956     4311.224        5.069        1.640      260.735       63.279        0.059      333.891        3.500      856.776
11/20/2013  21:40:00     -212.336      349.158      -58.039      117.939      106.144       70.547    13909.639    11266.566     4976.835       10.025        1.508      408.654       64.212        0.025      333.839        3.412      856.783
11/20/2013  21:41:00      -70.157      302.699      -22.722       69.090       99.555       53.263     4773.375     9911.189     2836.952        5.729        0.876      310.723       52.762        0.029      333.837        3.408      856.779
11/20/2013  21:42:00      -90.513      229.374      -26.476       78.462      105.908       48.947     6156.325    11216.458     2395.848        4.063        0.988      246.587       40.079        0.026      333.848        3.428      856.785
11/20/2013  21:43:00      -98.311      197.231      -19.480       95.448       84.580       51.492     9110.413     7153.818     2651.447        3.393        0.946      220.375       57.222        0.067      333.838        3.412      856.802
11/20/2013  21:44:00     -104.681      197.698      -19.245       74.426       89.704       46.463     5539.249     8046.884     2158.764        3.308        0.787      223.702       43.590        0.038      333.827        3.392      856.831
11/20/2013  21:45:00      -64.044      167.202        8.192       76.533       98.913       63.668     5857.324     9783.691     4053.564        2.591        0.985      179.048       50.670        0.080      333.823        3.389      856.840
11/20/2013  21:46:00      -87.041      308.904      -25.623       90.618      144.841       60.989     8211.645    20978.901     3719.709        6.828        1.646      320.933       62.787        0.038      333.713        3.204      856.869
11/20/2013  21:47:00     -172.870      211.051      -32.305      109.393      124.886       62.149    11966.784    15596.582     3862.460        5.344        1.571      272.812       77.404        0.081      333.695        3.176      856.874
11/20/2013  21:48:00      -78.275      220.637      -24.191       63.718      110.353       50.437     4059.982    12177.703     2543.876        3.708        0.939      234.110       52.110        0.050      333.727        3.229      856.892
11/20/2013  21:49:00      -98.619      288.563      -17.329       88.411      135.309       76.373     7816.523    18308.593     5832.856        6.262        1.598      304.950       78.490        0.066      333.668        3.132      856.891
11/20/2013  21:50:00     -110.665      336.942      -42.754       95.110      109.484       53.590     9045.848    11986.716     2871.904        7.575        1.195      354.650       53.022        0.022      333.616        3.042      856.908
11/20/2013  21:51:00     -138.632      312.066      -32.826       97.991      130.143       60.614     9602.213    16937.275     3674.059        7.394        1.511      341.473       51.997        0.023      333.631        3.070      856.903
11/20/2013  21:52:00     -101.298      197.609      -15.045      111.485      128.844       59.999    12429.006    16600.731     3599.830        4.108        1.631      222.060       65.537        0.087      333.650        3.103      856.926
11/20/2013  21:53:00     -161.160      227.781      -32.442      115.179      143.685       73.023    13266.312    20645.474     5332.412        5.907        1.962      279.029       73.037        0.069      333.605        3.027      856.940
11/20/2013  21:54:00     -126.672      368.492      -22.664      120.155      211.395       92.627    14437.203    44687.661     8579.708       11.001        3.385      389.656      112.875        0.084      333.552        2.939      856.961
11/20/2013  21:55:00      -90.061      294.179      -38.788      119.007      118.892       66.049    14162.766    14135.323     4362.518        6.440        1.633      307.656       64.315        0.044      333.545        2.926      856.964
11/20/2013  21:56:00     -134.039      250.647      -20.081      116.097      187.143       72.043    13478.552    35022.518     5190.133        6.743        2.685      284.237       95.286        0.112      333.531        2.904      856.979
11/20/2013  21:57:00     -128.143      193.607      -14.430       73.027      107.451       53.254     5332.952    11545.760     2835.938        3.691        0.986      232.173       42.897        0.034      333.533        2.906      856.981
11/20/2013  21:58:00     -132.222      365.202      -38.602       90.378      133.224       62.564     8168.166    17748.742     3914.244        9.108        1.492      388.401       70.129        0.033      333.473        2.807      856.984
11/20/2013  21:59:00     -212.297      377.824      -57.352      117.559       99.612       64.496    13820.169     9922.590     4159.740       10.950        1.395      433.383       62.169        0.021      333.482        2.822      856.976
11/20/2013  22:00:00     -159.325      258.657      -50.104       94.163      132.587       58.402     8866.654    17579.411     3410.774        6.232        1.493      303.789       57.822        0.036      333.513        2.872      856.982
11/20/2013  22:01:00     -125.941      263.790      -30.320      103.067      140.510       66.830    10622.759    19743.199     4466.281        6.059        1.742      292.312       73.387        0.063      333.541        2.921      856.973
11/20/2013  22:02:00     -168.945      269.334      -51.273      121.717      104.207       60.319    14814.989    10859.145     3638.375        6.651        1.466      317.936       57.056        0.032      333.528        2.899      856.975
11/20/2013  22:03:00     -159.211      185.875      -22.727       98.349       76.340       56.544     9672.624     5827.812     3197.206        3.955        0.935      244.740       49.614        0.041      333.562        2.955      856.991
11/20/2013  22:04:00     -122.337      220.809      -28.942       77.946      103.106       51.203     6075.579    10630.936     2621.762        4.194        0.966      252.434       50.579        0.040      333.564        2.958      857.000
11/20/2013  22:05:00     -106.716      289.302      -34.217      113.819      119.166       62.687    12954.868    14200.444     3929.698        6.366        1.554      308.357       59.528        0.037      333.546        2.927      857.012
11/20/2013  22:06:00      -91.784      225.235      -23.939       64.254      118.755       45.563     4128.522    14102.778     2076.000        4.001        1.015      243.218       49.890        0.042      333.553        2.940      857.027
11/20/2013  22:07:00     -121.216      390.520      -47.866      103.990      154.012       60.655    10813.868    23719.678     3679.087       10.384        1.911      408.900       54.811        0.018      333.520        2.884      857.037
11/20/2013  22:08:00      -99.607      233.187      -21.588       92.521      135.993       67.338     8560.103    18494.168     4534.454        4.817        1.579      253.571       72.468        0.082      333.540        2.917      857.054
11/20/2013  22:09:00      -95.050      233.001      -37.361      100.576      109.517       61.240    10115.575    11993.980     3750.333        4.528        1.293      251.643       65.246        0.067      333.549        2.933      857.066
11/20/2013  22:10:00     -112.435      246.269      -34.048       92.428      117.677       53.887     8542.848    13847.924     2903.774        4.987        1.265      270.722       54.166        0.040      333.513        2.873      857.064
11/20/2013  22:11:00      -93.279      347.838      -31.710       94.150      167.270       61.734     8864.205    27979.345     3811.089        8.567        2.033      360.128       73.839        0.042      333.482        2.821      857.077
11/20/2013  22:12:00     -162.514      268.428      -39.104      100.250      123.304       61.199    10050.030    15203.827     3745.370        6.449        1.450      313.790       57.229        0.033      333.511        2.870      857.070
11/20/2013  22:13:00     -104.939      260.791      -29.275       76.574       88.980       53.016     5863.622     7917.393     2810.704        4.823        0.830      281.112       39.384        0.020      333.508        2.865      857.099
11/20/2013  22:14:00     -133.426      222.879      -28.153      113.610      134.935       61.750    12907.251    18207.475     3813.005        5.159        1.746      259.764       84.642        0.106      333.553        2.941      857.128
11/20/2013  22:15:00     -142.344      343.685      -31.039       99.837      144.106       65.102     9967.446    20766.639     4238.223        8.715        1.749      371.996       64.065        0.030      333.513        2.873      857.138
11/20/2013  22:16:00     -101.791      316.965      -36.465       82.943      140.757       56.397     6879.473    19812.412     3180.592        7.101        1.494      332.909       68.377        0.042      333.510        2.867      857.150
11/20/2013  22:17:00     -139.803      215.629      -31.746       82.872      107.516       59.154     6867.718    11559.702     3499.180        4.448        1.096      256.984       63.611        0.061      333.534        2.908      857.160
11/20/2013  22:18:00     -104.782      269.062      -22.390       73.508      133.285       57.811     5403.473    17764.790     3342.064        5.519        1.326      288.745       52.770        0.033      333.540        2.918      857.173
11/20/2013  22:19:00      -48.783      257.565      -15.287       63.000      109.717       47.455     3968.941    12037.849     2251.997        4.360        0.913      262.144       51.107        0.038      333.497        2.846      857.181
11/20/2013  22:20:00     -109.017      198.112      -15.208       63.724      119.131       47.528     4060.702    14192.292     2258.927        3.593        1.026      226.126       57.576        0.065      333.506        2.864      857.185
11/20/2013  22:21:00     -161.278      214.206      -28.774       78.146       83.575       60.546     6106.802     6984.704     3665.794        4.474        0.838      268.132       48.835        0.033      333.433        2.740      857.209
11/20/2013  22:22:00     -118.295      184.622      -34.855       74.968       71.942       48.409     5620.231     5175.666     2343.412        3.121        0.657      219.270       46.678        0.045      333.448        2.766      857.211
11/20/2013  22:23:00     -118.930      101.014      -14.060       59.853       57.446       37.227     3582.396     3300.059     1385.869        1.641        0.413      156.039       23.444        0.023      333.425        2.729      857.218
11/20/2013  22:24:00     -133.905      173.749      -30.338       76.587       69.794       51.177     5865.635     4871.238     2619.070        3.120        0.668      219.361       51.508        0.055      333.435        2.745      857.222
11/20/2013  22:25:00     -147.551      139.928      -37.522       93.888      132.116       53.159     8815.040    17454.657     2825.891        3.592        1.455      203.350       63.530        0.098      333.379        2.655      857.231
11/20/2013  22:26:00     -169.013      216.612      -38.931       92.728       93.087       53.078     8598.415     8665.190     2817.223        4.854        1.004      274.747       47.022        0.029      333.401        2.688      857.212
11/20/2013  22:27:00     -126.106      210.121      -36.905       75.502       97.414       43.781     5700.570     9489.479     1916.759        3.926        0.855      245.058       39.939        0.027      333.408        2.701      857.214
11/20/2013  22:28:00     -138.284      158.686      -30.174      106.531       66.739       50.208    11348.818     4454.038     2520.805        3.177        0.916      210.484       38.877        0.034      333.398        2.685      857.207
11/20/2013  22:29:00     -138.151      209.916      -17.836       69.652       89.792       52.764     4851.458     8062.667     2784.069        3.958        0.785      251.297       56.264        0.050      333.405        2.696      857.231
11/20/2013  22:30:00     -117.419      138.963      -15.739       64.681       57.555       41.632     4183.587     3312.526     1733.257        2.129        0.461      181.929       39.195        0.046      333.457        2.780      857.255
11/20/2013  22:31:00     -108.121      117.205       -9.058       66.929       69.468       39.797     4479.540     4825.847     1583.794        1.820        0.544      159.459       34.862        0.048      333.485        2.827      857.288
11/20/2013  22:32:00     -111.847      169.163      -29.766       70.469       74.436       44.186     4965.866     5540.649     1952.374        2.723        0.623      202.795       23.672        0.014      333.476        2.814      857.307
11/20/2013  22:33:00     -123.920      187.547      -33.488       62.737       65.300       38.735     3935.891     4264.035     1500.404        3.067        0.485      224.788       38.763        0.030      333.439        2.749      857.321
11/20/2013  22:34:00     -143.269      187.907      -40.496       61.982       89.110       44.608     3841.707     7940.681     1989.883        3.562        0.689      236.295       45.036        0.036      333.420        2.719      857.333
11/20/2013  22:35:00     -117.578      190.875      -33.372       72.633       62.466       40.150     5275.490     3902.017     1612.046        3.108        0.539      224.183       38.656        0.030      333.433        2.741      857.334
11/20/2013  22:36:00     -126.781      187.193      -27.538       79.791      112.470       57.655     6366.583    12649.511     3324.082        3.710        1.117      226.086       45.311        0.040      333.514        2.876      857.341
11/20/2013  22:37:00      -84.159      200.450      -22.282       76.035       92.039       42.096     5781.290     8471.268     1772.032        3.189        0.801      217.400       43.977        0.041      333.511        2.872      857.335
11/20/2013  22:38:00      -90.227      153.696      -15.170       83.822       91.923       45.106     7026.151     8449.836     2034.594        2.475        0.876      178.222       55.635        0.097      333.577        2.980      857.342
11/20/2013  22:39:00      -68.892      123.717      -12.123       62.585       63.848       39.783     3916.899     4076.583     1582.683        1.489        0.479      141.605       36.638        0.067      333.588        3.000      857.345
11/20/2013  22:40:00     -119.834      240.948      -33.549      108.811       63.637       42.660    11839.833     4049.669     1819.900        4.562        0.885      269.102       45.097        0.028      333.596        3.011      857.361
11/20/2013  22:41:00      -98.072      237.616      -36.872       68.961      100.007       38.826     4755.565    10001.359     1507.488        4.185        0.813      257.059       32.992        0.016      333.574        2.976      857.353
11/20/2013  22:42:00      -60.060      207.510       -8.626       64.954      106.605       54.586     4219.036    11364.633     2979.616        3.265        0.928      216.027       57.164        0.070      333.614        3.041      857.357
11/20/2013  22:43:00      -66.147      152.355       -9.379       68.867       75.107       44.892     4742.693     5640.997     2015.312        2.003        0.620      166.095       33.286        0.040      333.680        3.152      857.361
11/20/2013  22:44:00      -94.494      128.644      -28.750       69.369       70.794       46.345     4812.059     5011.808     2147.814        1.914        0.599      159.620       39.960        0.063      333.632        3.073      857.356
11/20/2013  22:45:00      -73.630      223.086      -23.997       63.106       81.834       37.452     3982.405     6696.780     1402.663        3.392        0.604      234.923       33.422        0.020      333.664        3.123      857.356
11/20/2013  22:46:00      -61.377      161.790      -11.628       57.446       82.035       41.987     3300.083     6729.750     1762.900        2.093        0.590      173.041       34.974        0.041      333.691        3.171      857.357
11/20/2013  22:47:00      -32.817       85.209        9.248       42.503       88.053       41.542     1806.485     7753.338     1725.743        0.985        0.564       91.310       49.031        0.288      333.747        3.265      857.355
11/20/2013  22:48:00      -39.478      182.312      -21.026       39.670       73.096       32.334     1573.729     5342.965     1045.510        2.160        0.398      186.537       23.511        0.016      333.731        3.235      857.367
11/20/2013  22:49:00      -79.096      166.460       -1.167       49.219       83.694       44.870     2422.546     7004.730     2013.341        2.270        0.572      184.297       41.674        0.051      333.799        3.349      857.372
11/20/2013  22:50:00      -89.022       51.824        5.115       71.631       58.635       44.510     5131.070     3438.022     1981.179        1.059        0.528      103.008       33.373        0.105      333.764        3.291      857.372
11/20/2013  22:51:00      -41.869       32.659        2.849       42.038       37.473       24.723     1767.170     1404.219      611.242        0.330        0.189       53.100       13.088        0.061      333.778        3.316      857.370
11/20/2013  22:52:00     -100.369      170.652      -27.749       76.967       57.740       36.364     5923.960     3333.924     1322.357        2.527        0.529      197.980       38.525        0.038      333.756        3.276      857.372
11/20/2013  22:53:00      -46.978       75.007       -9.919       38.246       49.787       23.866     1462.753     2478.721      569.582        0.622        0.226       88.504       18.099        0.042      333.782        3.322      857.388
11/20/2013  22:54:00      -14.047      154.939      -18.026       39.972       68.534       31.839     1597.731     4696.961     1013.703        1.592        0.365      155.575       26.134        0.028      333.769        3.299      857.395
11/20/2013  22:55:00     -108.655      185.241      -22.099       54.417       72.277       39.596     2961.247     5224.006     1567.868        2.818        0.488      214.756       33.276        0.024      333.821        3.383      857.398
11/20/2013  22:56:00     -102.226      167.201      -24.526       95.731       93.177       56.370     9164.346     8681.887     3177.610        3.001        1.051      195.975       50.039        0.065      333.808        3.362      857.402
11/20/2013  22:57:00      -80.480      148.070      -28.604       73.364       49.067       33.307     5382.293     2407.617     1109.334        1.906        0.445      168.528       32.582        0.037      333.822        3.386      857.402
11/20/2013  22:58:00     -124.537      253.488      -43.826      100.895       93.262       50.593    10179.720     8697.739     2559.642        5.156        1.072      282.428       53.333        0.036      333.796        3.341      857.414
11/20/2013  22:59:00      -87.391      128.237      -15.230       68.219       56.807       42.451     4653.863     3227.048     1802.127        1.700        0.484      155.183       34.042        0.048      333.775        3.310      857.416
11/20/2013  23:00:00     -122.787      219.961      -42.637       78.992       73.388       38.549     6239.672     5385.746     1485.996        3.919        0.656      251.912       31.299        0.015      333.757        3.278      857.434
11/20/2013  23:01:00      -82.422      277.541      -19.986       68.541      100.061       54.597     4697.914    10012.295     2980.820        5.095        0.885      289.521       57.553        0.040      333.733        3.235      857.440
11/20/2013  23:02:00     -106.643      195.802      -27.111       51.396       80.908       36.987     2641.558     6546.070     1368.038        3.050        0.528      222.960       36.032        0.026      333.746        3.259      857.463
11/20/2013  23:03:00     -177.418      238.871      -30.281       87.423       91.955       57.022     7642.743     8455.752     3251.526        5.440        0.968      297.551       48.563        0.027      333.736        3.239      857.477
11/20/2013  23:04:00     -114.372      199.479      -22.579       94.880       81.800       51.809     9002.236     6691.320     2684.208        3.588        0.919      229.940       48.912        0.045      333.744        3.255      857.486
11/20/2013  23:05:00      -71.235       74.967       -4.000      105.427       94.620       53.054    11114.862     8952.931     2814.676        1.679        1.144      103.414       57.163        0.306      333.759        3.283      857.493
11/20/2013  23:06:00     -120.949      163.943      -11.669       78.639      115.039       49.226     6184.063    13233.950     2423.168        3.174        1.092      203.730       37.024        0.033      333.737        3.245      857.499
11/20/2013  23:07:00     -103.240      212.943      -22.844       63.972       71.081       45.051     4092.428     5052.575     2029.559        3.385        0.559      236.650       36.633        0.024      333.709        3.197      857.512
11/20/2013  23:08:00     -185.961      185.344      -50.297       84.337       79.288       45.338     7112.790     6286.617     2055.562        4.346        0.773      262.553       49.555        0.036      333.683        3.155      857.517
11/20/2013  23:09:00     -107.045      139.643      -18.072       73.516       75.513       50.161     5404.640     5702.165     2516.082        2.245        0.681      175.951       45.303        0.066      333.713        3.207      857.520
11/20/2013  23:10:00     -112.901      172.536      -23.172       76.614       91.745       42.831     5869.764     8417.201     1834.498        2.958        0.806      206.193       44.200        0.046      333.678        3.147      857.519
11/20/2013  23:11:00     -143.467      206.477      -38.249      109.001       83.460       56.299    11881.210     6965.500     3169.622        4.334        1.101      251.427       53.472        0.045      333.676        3.144      857.517
11/20/2013  23:12:00      -94.881      187.414      -19.670       98.395      115.490       47.039     9681.561    13338.030     2212.622        3.487        1.262      210.063       50.788        0.058      333.696        3.177      857.509
11/20/2013  23:13:00      -76.357      343.244      -32.344       74.418      115.702       51.032     5538.084    13386.965     2604.310        7.311        1.076      351.635       47.423        0.018      333.663        3.122      857.515
11/20/2013  23:14:00      -83.136      192.876      -20.990       70.661       96.861       44.289     4992.986     9382.032     1961.537        3.044        0.817      210.030       35.780        0.029      333.703        3.187      857.527
11/20/2013  23:15:00      -80.460      171.339      -29.544       59.887       66.522       36.129     3586.479     4425.181     1305.336        2.301        0.466      189.290       25.667        0.018      333.731        3.236      857.541
11/20/2013  23:16:00     -136.414      150.856      -31.780       74.493       59.177       46.443     5549.192     3501.965     2156.912        2.679        0.560      203.387       37.782        0.035      333.707        3.197      857.547
11/20/2013  23:17:00      -71.609      170.055      -23.619       58.255       73.354       34.578     3393.652     5380.756     1195.628        2.229        0.499      184.517       28.589        0.024      333.727        3.230      857.560
11/20/2013  23:18:00      -86.364      188.890      -16.922       84.220      142.517       49.805     7093.083    20311.136     2480.522        3.665        1.494      207.698       64.413        0.096      333.768        3.296      857.566
11/20/2013  23:19:00     -159.446      144.718      -18.719       98.100       98.759       55.556     9623.604     9753.378     3086.457        3.459        1.123      215.328       63.992        0.088      333.729        3.232      857.584
11/20/2013  23:20:00     -164.234      255.277      -46.926      101.542      129.967       55.002    10310.876    16891.405     3025.193        6.228        1.511      303.545       63.931        0.044      333.702        3.186      857.604
11/20/2013  23:21:00     -191.557      244.904      -54.270       70.400      109.254       45.728     4956.227    11936.464     2091.060        5.930        0.949      310.922       29.157        0.009      333.685        3.158      857.606
11/20/2013  23:22:00     -112.256      176.467      -22.365       90.803       88.752       54.587     8245.147     7876.998     2979.766        3.167        0.955      209.146       63.718        0.093      333.701        3.186      857.611
11/20/2013  23:23:00     -144.436      176.416      -21.799       79.310      136.648       63.417     6290.011    18672.575     4021.766        4.072        1.449      228.001       68.900        0.091      333.692        3.172      857.611
11/20/2013  23:24:00      -92.720      148.597      -16.336       61.518       60.656       36.801     3784.448     3679.164     1354.329        1.988        0.441      175.152       37.198        0.045      333.731        3.235      857.613
11/20/2013  23:25:00     -159.327      176.832      -40.546       99.285       77.042       50.029     9857.423     5935.418     2502.926        3.829        0.915      238.023       53.498        0.051      333.714        3.205      857.622
11/20/2013  23:26:00     -117.507      196.415      -15.185       66.944       74.512       56.887     4481.503     5551.998     3236.124        3.294        0.663      228.881       46.695        0.042      333.722        3.218      857.616
11/20/2013  23:27:00     -104.865      104.648      -20.626       63.941       57.194       29.921     4088.444     3271.140      895.266        1.531        0.413      148.148       24.217        0.027      333.764        3.291      857.629
11/20/2013  23:28:00     -137.062      128.289      -24.386       62.461       78.714       37.705     3901.414     6195.956     1421.661        2.368        0.576      187.734       38.608        0.042      333.778        3.314      857.636
11/20/2013  23:29:00     -138.018      128.788      -23.633       89.137       66.550       46.117     7945.487     4428.931     2126.778        2.534        0.725      188.773       36.198        0.037      333.782        3.320      857.641
11/20/2013  23:30:00     -140.755      145.729      -25.350       71.032       85.431       39.354     5045.603     7298.479     1548.747        2.779        0.695      202.605       31.540        0.024      333.765        3.292      857.638
11/20/2013  23:31:00     -120.265      146.254      -17.741       73.270       67.530       40.035     5368.519     4560.344     1602.771        2.385        0.577      189.351       45.988        0.059      333.770        3.298      857.651
11/20/2013  23:32:00     -131.904      119.309      -32.479       74.882       51.873       41.233     5607.247     2690.768     1700.156        2.134        0.500      177.858       36.456        0.042      333.745        3.257      857.661
11/20/2013  23:33:00     -116.588      147.022      -21.778       81.830       67.813       44.867     6696.128     4598.588     2013.052        2.449        0.665      187.638       33.335        0.032      333.765        3.292      857.666
11/20/2013  23:34:00     -160.124      341.903      -47.513       82.257      125.762       60.925     6766.260    15815.959     3711.885        8.554        1.315      377.541       49.452        0.017      333.767        3.292      857.658
11/20/2013  23:35:00     -179.405      173.146      -32.015      102.371       87.557       58.077    10479.893     7666.215     3372.952        4.235        1.076      249.330       59.418        0.057      333.750        3.266      857.662
11/20/2013  23:36:00     -109.867      174.808      -19.677       65.958       82.765       51.210     4350.416     6850.007     2622.482        2.842        0.691      206.467       44.442        0.046      333.756        3.275      857.668
11/20/2013  23:37:00     -115.344      140.987      -22.868       51.181       80.185       34.585     2619.487     6429.574     1196.104        2.197        0.512      182.158       36.870        0.041      333.788        3.331      857.681
11/20/2013  23:38:00     -173.053      203.165      -49.327       67.029       76.597       40.479     4492.900     5867.092     1638.583        4.283        0.600      266.877       35.000        0.017      333.739        3.246      857.702
11/20/2013  23:39:00     -104.075      113.140      -13.661       74.963       69.679       41.460     5619.409     4855.204     1718.930        1.800        0.610      153.727       38.994        0.064      333.761        3.285      857.716
11/20/2013  23:40:00     -153.964      171.679      -29.832       80.722       88.355       51.056     6516.101     7806.575     2606.674        3.550        0.846      230.605       46.486        0.041      333.752        3.268      857.741
11/20/2013  23:41:00     -105.285      146.455      -17.457       61.122       72.551       42.333     3735.915     5263.647     1792.104        2.181        0.540      180.372       40.236        0.050      333.820        3.384      857.745
11/20/2013  23:42:00     -151.934       92.530      -18.458       75.165      125.682       49.846     5649.824    15795.841     2484.673        2.795        1.197      177.893       40.356        0.051      333.775        3.309      857.755
11/20/2013  23:43:00     -207.304      164.714      -33.695       80.248       76.884       47.989     6439.777     5911.087     2302.977        4.294        0.733      264.774       39.704        0.022      333.774        3.304      857.750
11/20/2013  23:44:00     -160.449       86.901      -13.669       78.524       76.613       47.821     6165.956     5869.581     2286.880        2.390        0.716      182.471       43.010        0.056      333.759        3.281      857.758
11/20/2013  23:45:00      -64.977      145.111      -25.214       44.824       60.600       35.620     2009.195     3672.321     1268.805        1.643        0.348      158.994       32.239        0.041      333.776        3.311      857.764
11/20/2013  23:46:00      -53.227      157.697       -6.065       63.134       91.679       40.344     3985.947     8405.030     1627.622        2.088        0.701      166.437       42.537        0.065      333.818        3.379      857.762
11/20/2013  23:47:00     -103.549      139.368      -16.633       91.830       95.313       42.159     8432.667     9084.602     1777.395        2.485        0.965      173.626       45.405        0.068      333.828        3.396      857.747
11/20/2013  23:48:00     -114.263       97.987      -17.436       88.969       93.980       43.412     7915.440     8832.278     1884.572        2.079        0.932      150.524       45.422        0.091      333.759        3.283      857.737
11/20/2013  23:49:00     -170.218      171.926      -40.990       52.153       63.806       36.597     2719.933     4071.172     1339.308        3.417        0.407      241.935       23.038        0.009      333.724        3.220      857.717
11/20/2013  23:50:00     -143.862      261.497      -40.021       78.674       69.908       44.877     6189.659     4887.075     2013.988        5.188        0.655      298.458       37.143        0.015      333.716        3.207      857.714
11/20/2013  23:51:00     -114.943      159.208      -25.382       55.781      101.041       41.367     3111.545    10209.192     1711.247        2.711        0.752      196.364       47.131        0.058      333.721        3.219      857.704
11/20/2013  23:52:00     -140.593      203.254      -23.397       62.883      105.680       52.654     3954.288    11168.212     2772.492        3.976        0.895      247.141       42.701        0.030      333.766        3.293      857.701
11/20/2013  23:53:00      -89.843       53.589        6.609       93.779       86.424       56.439     8794.415     7469.113     3185.342        1.521        0.972      104.612       54.111        0.268      333.833        3.405      857.709
11/20/2013  23:54:00     -136.231      111.469      -10.173       95.863      116.610       52.456     9189.752    13597.782     2751.683        2.831        1.277      176.023       49.931        0.080      333.764        3.290      857.717
11/20/2013  23:55:00     -160.908      219.022      -38.264       66.132       86.180       50.220     4373.459     7427.011     2522.008        4.482        0.716      271.776       40.328        0.022      333.739        3.246      857.733
11/20/2013  23:56:00     -145.531      176.671      -32.272       81.677       74.553       50.614     6671.130     5558.145     2561.823        3.411        0.740      228.893       50.811        0.049      333.713        3.205      857.743
11/20/2013  23:57:00     -191.256      135.992      -35.526       72.596       71.639       50.241     5270.240     5132.103     2524.161        3.463        0.646      234.676       38.816        0.027      333.682        3.154      857.734
11/20/2013  23:58:00     -141.366      274.313      -39.716       85.629      106.148       55.275     7332.312    11267.296     3055.326        5.923        1.083      308.597       60.415        0.038      333.708        3.195      857.737
11/20/2013  23:59:00     -181.008       92.901      -17.431      105.845      125.522       53.118    11203.232    15755.893     2821.499        3.573        1.489      203.457       49.772        0.060      333.696        3.176      857.731
